[[{"header":{"parameterUnit":"m.s-1","parameterCategory":1,"la1":30.6,"la2":29.2853,"lo1":-89.7004,"lo2":-87.6739,"dy":0.0162,"dx":0.0183,"nx":112,"ny":82,"refTime":"2026-05-08T00:00:00:Z","depth":0,"parameterNumber":2,"parameterNumberName":"U-component_of_WINDS"},"data":[0.0,0.0,0.0,0.0,0.0,0.0,0.0,0.0,0.0,0.0,0.0,0.0,0.0,0.0,0.0,0.0,0.0,0.0,0.0,0.0,0.0,0.0,0.0,0.0,0.0,0.0,0.0,0.0,0.0,0.0,0.0,0.0,0.0,0.0,0.0,0.0,0.0,0.0,0.0,0.0,0.0,0.0,0.0,0.0,0.0,0.0,0.0,0.0,0.0,0.0,0.0,0.0,0.0,0.0,0.0,0.0,0.0,0.0,0.0,0.0,0.0,0.0,0.0,0.0,0.0,0.0,0.0,0.0,0.0,0.0,0.0,0.0,0.0,0.0,0.0,0.0,0.0,0.0,0.0,0.0,0.0,0.0,0.0,0.0,0.0,0.0,0.0,0.0,0.0,0.0,1.1125,1.2657,1.5001,1.6213,1.5651,1.6306,1.5941,1.3928,0.0,0.0,0.0,0.0,0.0,0.0,0.0,0.0,0.0,0.0,0.0,0.0,0.0,0.0,0.0,0.0,0.0,0.0,0.0,0.0,0.0,0.0,0.0,0.0,0.0,0.0,0.0,0.0,0.0,0.0,0.0,0.0,0.0,0.0,0.0,0.0,0.0,0.0,0.0,0.0,0.0,0.0,0.0,0.0,0.0,0.0,0.0,0.0,0.0,0.0,0.0,0.0,0.0,0.0,0.0,0.0,0.0,0.0,0.0,0.0,0.0,0.0,0.0,0.0,0.0,0.0,0.0,0.0,0.0,0.0,0.0,0.0,0.0,0.0,0.0,0.0,0.0,0.0,0.0,0.0,0.0,0.0,0.0,0.0,0.0,0.0,0.0,0.0,0.0,0.0,0.0,0.0,0.0,0.0,0.0,0.0,0.0,0.0,0.0,0.0,0.0,0.0,0.0,0.0,1.02,1.2192,1.3499,1.4182,1.3915,1.4458,1.4171,1.258,0.0,0.0,0.0,0.0,0.0,0.0,0.0,0.0,0.0,0.0,0.0,0.0,0.0,0.0,0.0,0.0,0.0,0.0,0.0,0.0,0.0,0.0,0.0,0.0,0.0,0.0,0.0,0.0,0.0,0.0,0.0,0.0,0.0,0.0,0.0,0.0,0.0,0.0,0.0,0.0,0.0,0.0,0.0,0.0,0.0,0.0,0.0,0.0,0.0,0.0,0.0,0.0,0.0,0.0,0.0,0.0,0.0,0.0,0.0,0.0,0.0,0.0,0.0,0.0,0.0,0.0,0.0,0.0,0.0,0.0,0.0,0.0,0.0,0.0,0.0,0.0,0.0,0.0,0.0,0.0,0.0,0.0,0.0,0.0,0.0,0.0,0.0,0.0,0.0,0.0,0.0,0.0,0.0,0.0,0.0,0.0,0.0,0.0,0.0,0.0,0.0,0.0,0.0,0.8412,0.9354,1.0545,1.1621,1.2203,1.2016,1.2502,1.2271,1.1036,1.0841,0.0,0.0,0.0,0.0,0.0,0.0,0.0,0.0,0.0,0.0,0.0,0.0,0.0,0.0,0.0,0.0,0.0,0.0,0.0,0.0,0.0,0.0,0.0,0.0,0.0,0.0,0.0,0.0,0.0,0.0,0.0,0.0,0.0,0.0,0.0,0.0,0.0,0.0,0.0,0.0,0.0,0.0,0.0,0.0,0.0,0.0,0.0,0.0,0.0,0.0,0.0,0.0,0.0,0.0,0.0,0.0,0.0,0.0,0.0,0.0,0.0,0.0,0.0,0.0,0.0,0.0,0.0,0.0,0.0,0.0,0.0,0.0,0.0,0.0,0.0,0.0,0.0,0.0,0.0,0.0,0.0,0.0,0.0,0.0,0.0,0.0,0.0,0.0,0.0,0.0,0.0,0.0,0.0,0.0,0.0,0.0,0.0,0.0,0.0,0.0,0.0,0.0,0.7787,0.8275,0.8739,0.9732,1.0306,1.0242,1.0646,1.052,0.9589,0.898,0.0,0.0,0.0,0.0,0.0,0.0,0.0,0.0,0.0,0.0,0.0,0.0,0.0,0.0,0.0,0.0,0.0,0.0,0.0,0.0,0.0,0.0,0.0,0.0,0.0,0.0,0.0,0.0,0.0,0.0,0.0,0.0,0.0,0.0,0.0,0.0,0.0,0.0,0.0,0.0,0.0,0.0,0.0,0.0,0.0,0.0,0.0,0.0,0.0,0.0,0.0,0.0,0.0,0.0,0.0,0.0,0.0,0.0,0.0,0.0,0.0,0.0,0.0,0.0,0.0,0.0,0.0,0.0,0.0,0.0,0.0,0.0,0.0,0.0,0.0,0.0,0.0,0.0,0.0,0.0,0.0,0.0,0.0,0.0,0.0,0.0,0.0,0.0,0.0,0.0,0.0,0.0,0.0,0.0,0.0,0.0,0.0,0.0,0.0,0.0,0.0,0.0,0.6324,0.6769,0.7276,0.79,0.8449,0.8822,0.9055,0.8966,0.8527,0.754,0.0,0.0,0.0,0.0,0.0,0.0,0.0,0.0,0.0,0.0,0.0,0.0,0.0,0.0,0.0,0.0,0.0,0.0,0.0,0.0,0.0,0.0,0.0,0.0,0.0,0.0,0.0,0.0,0.0,0.0,0.0,0.0,0.0,0.0,0.0,0.0,0.0,0.0,0.0,0.0,0.0,0.0,0.0,0.0,0.0,0.0,0.0,0.0,0.0,0.0,0.0,0.0,0.0,0.0,0.0,0.0,0.0,0.0,0.0,0.0,0.0,0.0,0.0,0.0,0.0,0.0,0.0,0.0,0.0,0.0,0.0,0.0,0.0,0.0,0.0,0.0,0.0,0.0,0.0,0.0,0.0,0.0,0.0,0.0,0.0,0.0,0.0,0.0,0.0,0.0,0.0,0.0,0.0,0.0,0.0,0.0,0.0,0.0,0.0,0.0,0.0,0.0,0.5952,0.6186,0.0,0.6769,0.7212,0.7453,0.7645,0.7602,0.7227,0.0,0.0,0.0,0.0,0.0,0.0,0.0,0.0,0.0,0.0,0.0,0.0,0.0,0.0,0.0,0.0,0.0,0.0,0.0,0.0,0.0,0.0,0.0,0.0,0.0,0.0,0.0,0.0,0.0,0.0,0.0,0.0,0.0,0.0,0.0,0.0,0.0,0.0,0.0,0.0,0.0,0.0,0.0,0.0,0.0,0.0,0.0,0.0,0.0,0.0,0.0,0.0,0.0,0.0,0.0,0.0,0.0,0.0,0.0,0.0,0.0,0.0,0.0,0.0,0.0,0.0,0.0,0.0,0.0,0.0,0.0,0.0,0.0,0.0,0.0,0.0,0.0,0.0,0.0,0.0,0.0,0.0,0.0,0.0,0.0,0.0,0.0,0.0,0.0,0.0,0.0,0.0,0.0,0.0,0.0,0.0,0.0,0.0,0.0,0.0,0.0,0.0,0.5397,0.5517,0.5546,0.0,0.5715,0.6052,0.6361,0.6473,0.6439,0.6199,0.0,0.0,0.0,0.0,0.0,0.0,0.0,0.0,0.0,0.0,0.0,0.0,0.0,0.0,0.0,0.0,0.0,0.0,0.0,0.0,0.0,0.0,0.0,0.0,0.0,0.0,0.0,0.0,0.0,0.0,0.0,0.0,0.0,0.0,0.0,0.0,0.0,0.0,0.0,0.0,0.0,0.0,0.0,0.0,0.0,0.0,0.0,0.0,0.0,0.0,0.0,0.0,0.0,0.0,0.0,0.0,0.0,0.0,0.0,0.0,0.0,0.0,0.0,0.0,0.0,0.0,0.0,0.0,0.0,0.0,0.0,0.0,0.0,0.0,0.0,0.0,0.0,0.0,0.0,0.0,0.0,0.0,0.0,0.0,0.0,0.0,0.0,0.0,0.0,0.0,0.0,0.0,0.0,0.0,0.0,0.0,0.0,0.0,0.0,0.0,0.0,0.0,0.5269,0.4939,0.4702,0.4966,0.4757,0.4884,0.5631,0.559,0.5502,0.0,0.0,0.0,0.0,0.0,0.0,0.0,0.0,0.0,0.0,0.0,0.0,0.0,0.0,0.0,0.0,0.0,0.0,0.0,0.0,0.0,0.0,0.0,0.0,0.0,0.0,0.0,0.0,0.0,0.0,0.0,0.0,0.0,0.0,0.0,0.0,0.0,0.0,0.0,0.0,0.0,0.0,0.0,0.0,0.0,0.0,0.0,0.0,0.0,0.0,0.0,0.0,0.0,0.0,0.0,0.0,0.0,0.0,0.0,0.0,0.0,0.0,0.0,0.0,0.0,0.0,0.0,0.0,0.0,0.0,0.0,0.0,0.0,0.0,0.0,0.0,0.0,0.0,0.0,0.0,0.0,0.0,0.0,0.0,0.0,0.0,0.0,0.0,0.0,0.0,0.0,0.0,0.0,0.0,0.0,0.0,0.0,0.0,0.0,0.0,0.0,0.0,0.0,0.4433,0.4431,0.4411,0.4478,0.4495,0.4626,0.5019,0.5188,0.5216,0.5081,0.0,0.0,0.0,0.0,0.0,0.0,0.0,0.0,0.0,0.0,0.0,0.0,0.0,0.0,0.0,0.0,0.0,0.0,0.0,0.0,0.0,0.0,0.0,0.0,0.0,0.0,0.0,0.0,0.0,0.0,0.0,0.0,0.0,0.0,0.0,0.0,0.0,0.0,0.0,0.0,0.0,0.0,0.0,0.0,0.0,0.0,0.0,0.0,0.0,0.0,0.0,0.0,0.0,0.0,0.0,0.0,0.0,0.0,0.0,0.0,0.0,0.0,0.0,0.0,0.0,0.0,0.0,0.0,0.0,0.0,0.0,0.0,0.0,0.0,0.0,0.0,0.0,0.0,0.0,0.0,0.0,0.0,0.0,0.0,0.0,0.0,0.0,0.0,0.0,0.0,0.0,0.0,0.0,0.0,0.0,0.0,0.0,0.0,0.0,0.0,0.0,0.0,0.3915,0.4004,0.4078,0.4208,0.4144,0.4276,0.4631,0.4748,0.475,0.4771,0.0,0.0,0.0,0.0,0.0,0.0,0.0,0.0,0.0,0.0,0.0,0.0,0.0,0.0,0.0,0.0,0.0,0.0,0.0,0.0,0.0,0.0,0.0,0.0,0.0,0.0,0.0,0.0,0.0,0.0,0.0,0.0,0.0,0.0,0.0,0.0,0.0,0.0,0.0,0.0,0.0,0.0,0.0,0.0,0.0,0.0,0.0,0.0,0.0,0.0,0.0,0.0,0.0,0.0,0.0,0.0,0.0,0.0,0.0,0.0,0.0,0.0,0.0,0.0,0.0,0.0,0.0,0.0,0.0,0.0,0.0,0.0,0.0,0.0,0.0,0.0,0.0,0.0,0.0,0.0,0.0,0.0,0.0,0.0,0.0,0.0,0.0,0.0,0.0,0.0,0.0,0.0,0.0,0.0,0.0,0.0,0.0,0.0,0.0,0.0,0.0,0.0,0.3602,0.3621,0.3715,0.4025,0.3836,0.3921,0.4412,0.423,0.422,0.4533,0.0,0.0,0.0,0.0,0.0,0.0,0.0,0.0,0.0,0.0,0.0,0.0,0.0,0.0,0.0,0.0,0.0,0.0,0.0,0.0,0.0,0.0,0.0,0.0,0.0,0.0,0.0,0.0,0.0,0.0,0.0,0.0,0.0,0.0,0.0,0.0,0.0,0.0,0.0,0.0,0.0,0.0,0.0,0.0,0.0,0.0,0.0,0.0,0.0,0.0,0.0,0.0,0.0,0.0,0.0,0.0,0.0,0.0,0.0,0.0,-0.3065,0.0,0.0,0.0,0.0,0.0,0.0,0.0,0.0,0.0,0.0,0.0,0.0,0.0,0.0,0.0,0.0,0.0,0.0,0.0,0.0,0.0,0.0,0.0,0.0,0.0,0.0,0.0,0.0,0.0,0.0,0.0,0.0,0.0,0.0,0.0,0.0,0.0,0.0,0.0,0.0,0.0,0.3411,0.3455,0.3523,0.3756,0.3744,0.3832,0.4152,0.4069,0.4071,0.4191,0.3759,0.0,0.0,0.0,0.0,0.0,0.0,0.0,0.0,0.0,0.0,0.0,0.0,0.0,0.0,0.0,0.0,0.0,0.0,0.0,0.0,0.0,0.0,0.0,0.0,0.0,0.0,0.0,0.0,0.0,0.0,0.0,0.0,0.0,0.0,0.0,0.0,0.0,0.0,0.0,0.0,0.0,0.0,0.0,0.0,0.0,0.0,0.0,0.0,0.0,0.0,0.0,0.0,0.0,0.0,0.0,0.0,0.0,0.0,0.0,0.0,-0.4957,0.0,0.0,0.0,0.0,0.0,0.0,0.0,0.0,0.0,0.0,0.0,0.0,0.0,0.0,0.0,0.0,0.0,0.0,0.0,0.0,0.0,0.0,0.0,0.0,0.0,0.0,0.0,0.0,0.0,0.0,0.0,0.0,0.0,0.0,0.0,0.0,0.0,0.0,0.0,0.0,0.3151,0.325,0.3361,0.3544,0.3615,0.3751,0.3972,0.39,0.3905,0.4053,0.3659,0.0,0.0,0.0,0.0,0.0,0.0,0.0,0.0,0.0,0.0,0.0,0.0,0.0,0.0,0.0,0.0,0.0,0.0,0.0,0.0,0.0,0.0,0.0,0.0,0.0,0.0,0.0,0.0,0.0,0.0,0.0,0.0,0.0,0.0,0.0,0.0,0.0,0.0,0.0,0.0,0.0,0.0,0.0,0.0,0.0,0.0,0.0,0.0,0.0,0.0,0.0,0.0,0.0,-0.9101,-0.8166,-0.6481,-0.7699,-0.8102,-0.7804,-0.7245,-0.6868,-0.6658,-0.6418,0.0,0.0,0.0,0.0,0.0,0.0,0.0,0.0,0.0,0.0,0.0,0.0,0.0,0.0,0.0,0.0,0.0,0.0,0.0,0.0,0.0,0.0,0.0,0.0,0.1366,0.212,0.2562,0.0,0.0,0.0,0.0,0.0,0.0,0.0,0.0,0.0,0.0,0.0,0.2983,0.3135,0.3236,0.3382,0.3534,0.3667,0.3884,0.3771,0.3765,0.3979,0.3717,0.3634,0.0,0.0,0.0,0.0,0.0,0.0,0.0,0.0,0.0,0.0,0.0,0.0,0.0,0.0,0.0,0.0,0.0,0.0,0.0,0.0,0.0,0.0,0.0,0.0,0.0,0.0,0.0,0.0,0.0,0.0,0.0,0.0,-0.6325,-0.6017,0.0,0.0,0.0,0.0,0.0,0.0,0.0,0.0,0.0,0.0,0.0,0.0,0.0,-0.7969,-0.8219,-0.847,-0.9438,-1.1104,-1.1104,-1.0794,-1.0169,-1.038,-1.0446,-1.0372,-0.9941,0.0,-0.8047,-0.6817,0.0,0.0,0.0,0.0,0.0,0.0,0.0,0.0,0.0,0.0,0.0,0.0,0.0,0.0,0.0,0.0,0.0,0.0,0.0,0.0,0.0,0.0,0.0782,0.1171,0.1468,0.1712,0.0,0.262,0.3066,0.2814,0.2272,0.0,0.0,0.0,0.0,0.0,0.0,0.0,0.3032,0.3159,0.3236,0.3382,0.3534,0.3667,0.3884,0.3771,0.3769,0.391,0.3647,0.3506,0.3545,0.3361,0.0,0.0,0.0,0.0,0.0,0.0,0.0,0.0,0.0,0.0,0.0,0.0,0.0,0.0,0.0,0.0,0.0,0.0,0.0,0.0,0.0,0.0,0.0,0.0,0.0,0.0,0.0,0.0,0.0,-0.554,-0.7635,-0.7235,-0.7187,-0.6778,0.0,0.0,0.0,0.0,0.0,0.0,0.0,0.0,0.0,-0.8595,-0.86,-0.86,-0.86,-0.9906,-1.1002,-1.1833,-1.1623,-1.1298,-1.0891,-1.0891,-1.0891,-1.0881,-1.0477,-0.9853,-0.9053,-0.794,-0.7496,-0.738,0.0,0.0,0.0,0.0,-0.4511,-0.3737,-0.3934,-0.3609,-0.3053,-0.2823,0.0,0.0,0.0,0.0,0.0,0.0,0.0,0.0,0.0,0.0,0.0764,0.0943,0.1047,0.1116,0.1124,0.1608,0.2078,0.0,0.2053,0.1831,0.1883,0.0,0.0,0.0,0.0,0.2733,0.3007,0.313,0.3237,0.33,0.3486,0.3667,0.3884,0.3771,0.3729,0.3795,0.3612,0.3516,0.3506,0.3189,0.3207,0.0,0.0,0.0,0.0,0.0,0.0,0.0,0.0,0.0,0.0,0.0,0.0,0.0,0.0,0.0,0.0,0.0,0.0,0.0,0.0,0.0,0.0,0.0,0.0,0.0,0.0,0.0,0.0,-0.7136,-0.8312,-0.8503,-0.8525,-0.8525,0.0,0.0,0.0,0.0,0.0,0.0,-0.9792,-0.9686,-0.9262,-0.8617,-0.9079,-0.933,-0.933,-1.1194,-1.2186,-1.2365,-1.187,-1.141,-1.0891,-1.0891,-1.0891,-1.0881,-1.0564,-1.0293,-0.9911,-0.8943,-0.8496,-0.831,-0.7264,-0.6615,-0.6236,-0.5862,-0.5172,-0.4469,-0.4976,-0.4893,-0.4408,-0.3928,-0.3301,-0.2658,-0.2326,0.0,0.0,0.0,0.0,0.0374,0.036,0.0448,0.0494,0.036,0.04,0.0475,0.0404,0.0671,0.1146,0.0,0.1735,0.1644,0.1773,0.0,0.0,0.0,0.0,0.2674,0.2868,0.2962,0.304,0.3129,0.3353,0.3561,0.3738,0.3703,0.3669,0.3611,0.3517,0.3473,0.3442,0.3112,0.3103,0.3529,0.0,0.0,0.0,0.0,0.0,0.0,0.0,0.0,0.0,0.0,0.0,0.0,0.0,0.0,0.0,0.0,0.0,0.0,0.0,0.0,0.0,0.0,0.0,0.0,0.0,0.0,0.0,0.0,0.0,-1.1337,-1.1574,0.0,0.0,0.0,0.0,-1.0179,-0.9893,-0.9433,-0.8717,-0.8673,-0.8656,-0.86,-1.0386,-1.1333,-1.1333,-1.185,-1.2437,-1.3129,-1.2401,-1.1649,-1.0891,-1.0891,-1.0891,-1.0891,-1.0881,-1.0843,-1.0728,-0.9496,-0.8741,-0.8406,-0.8342,-0.8026,-0.7534,-0.7107,-0.6655,-0.621,-0.5793,-0.5376,-0.4898,-0.4408,-0.3303,-0.2214,-0.2556,-0.2159,0.0,0.0,-0.0235,0.0035,0.0042,0.0045,-0.009,-0.0539,-0.0344,-0.0041,-0.0,0.0281,0.0679,0.0,0.1167,0.1143,0.1466,0.0,0.1907,0.1927,0.2198,0.246,0.2498,0.2526,0.264,0.2865,0.3084,0.3249,0.3329,0.3558,0.358,0.3332,0.3417,0.3438,0.3319,0.322,0.3308,0.3601,0.3324,0.0,0.0,0.0,0.0,0.0,0.0,0.0,0.0,0.0,0.0,0.0,0.0,0.0,0.0,0.0,0.0,0.0,0.0,0.0,0.0,0.0,0.0,0.0,0.0,0.0,0.0,0.0,0.0,-1.1749,-1.1696,0.0,-1.1362,-1.1038,-1.0681,-1.0324,-1.0199,-1.0008,-0.9712,-0.9686,-1.0393,-1.1896,-1.2638,-1.2965,-1.2965,-1.3104,-1.3185,-1.3198,-1.2697,-1.2197,-1.1675,-1.1675,-1.1675,-1.1649,-1.14,-1.1147,-1.0843,-1.0127,-0.9257,-0.8414,-0.8414,-0.8126,-0.767,-0.7496,-0.7377,-0.7167,-0.6689,-0.5884,-0.481,-0.3748,-0.3262,-0.3219,-0.3942,-0.3578,-0.2769,-0.2202,-0.1755,-0.1327,-0.0971,-0.0897,-0.0942,-0.1121,-0.1059,-0.0938,-0.0832,-0.0451,-0.0041,0.0208,0.0508,0.076,0.1008,0.1371,0.1663,0.1771,0.2209,0.2503,0.2442,0.2483,0.246,0.2415,0.2794,0.3071,0.3099,0.3203,0.3235,0.3233,0.3155,0.3101,0.3039,0.301,0.3052,0.3158,0.3092,0.3079,0.0,0.0,0.0,0.0,0.0,0.0,0.0,0.0,0.0,0.0,0.0,0.0,0.0,0.0,0.0,0.0,0.0,0.0,0.0,0.0,0.0,0.0,0.0,0.0,0.0,0.0,-1.2476,-1.3079,-1.2819,-1.2453,-1.2046,-1.1845,-1.1681,-1.1501,-1.1681,-1.1912,-1.2138,-1.2165,-1.2858,-1.4424,-1.4465,-1.4465,-1.4465,-1.4254,-1.4269,-1.4572,-1.4337,-1.3987,-1.3593,-1.3593,-1.3593,-1.3554,-1.2992,-1.2362,-1.1789,-1.1529,-1.0922,-1.0055,-0.918,-0.8537,-0.8126,-0.8002,-0.7919,-0.7836,-0.7076,-0.6013,-0.481,-0.3534,-0.3357,-0.3755,-0.4543,-0.4324,-0.3751,-0.3268,-0.2912,-0.2556,-0.2061,-0.1927,-0.1927,-0.1927,-0.1757,-0.1617,-0.1499,-0.107,-0.0682,-0.0515,-0.0036,0.0403,0.0634,0.103,0.1386,0.1626,0.2042,0.2267,0.2188,0.2016,0.1823,0.1708,0.222,0.2571,0.2646,0.2747,0.2876,0.293,0.2815,0.2784,0.2871,0.2852,0.2838,0.288,0.2847,0.2798,0.274,0.0,0.0,0.0,0.0,0.0,0.0,0.0,0.0,0.0,0.0,0.0,0.0,0.0,0.0,0.0,0.0,0.0,0.0,0.0,0.0,0.0,0.0,0.0,-1.1918,-1.1805,-1.2816,-1.5484,-1.5224,-1.4588,-1.3908,-1.3854,-1.3854,-1.3821,-1.4461,-1.5102,-1.577,-1.5799,-1.5799,-1.5799,-1.5799,-1.5799,-1.5799,-1.5133,-1.562,-1.724,-1.724,-1.6989,-1.6522,-1.6522,-1.6522,-1.6436,-1.5501,-1.4547,-1.3668,-1.3668,-1.3668,-1.3398,-1.0816,-0.952,-0.9016,-0.8618,-0.8414,-0.8209,-0.6914,-0.5809,-0.4898,-0.3932,-0.3622,-0.3711,-0.4144,-0.4276,-0.4188,-0.3755,-0.3622,-0.3537,-0.3046,-0.2957,-0.2951,-0.2893,-0.2526,-0.2075,-0.1873,-0.1447,-0.1088,-0.0957,-0.0423,0.0036,0.0341,0.067,0.104,0.1485,0.1632,0.0,0.1687,0.107,0.0746,0.0841,0.1338,0.1734,0.1869,0.2249,0.2443,0.2383,0.2439,0.2582,0.2775,0.2725,0.2736,0.2804,0.2607,0.2479,0.2399,0.0,0.0,0.0,0.0,0.0,0.0,0.0,0.0,0.0,0.0,0.0,0.0,0.0,0.0,0.0,0.0,0.0,0.0,0.0,0.0,0.0,-1.2606,-1.2867,-1.2195,-1.2091,-1.3084,-1.5762,-1.5926,-1.5668,-1.5269,-1.5041,-1.4808,-1.4556,-1.4932,-1.5358,-1.577,-1.5799,-1.5799,-1.5799,-1.5799,-1.5799,-1.5799,-1.5388,-1.616,-1.8149,-1.7828,-1.7282,-1.6522,-1.6522,-1.6522,-1.6479,-1.5869,-1.5244,-1.4686,-1.4686,-1.4686,-1.4538,-1.3107,-1.1644,-1.0332,-0.9922,-0.9208,-0.8291,-0.7587,-0.6745,-0.5852,-0.4941,-0.4368,-0.4012,-0.3439,-0.353,-0.3884,-0.446,-0.4635,-0.4504,-0.4056,-0.3921,-0.3762,-0.3253,-0.3006,-0.287,-0.2815,-0.2225,-0.1597,-0.124,-0.0975,-0.0661,-0.0188,0.0222,0.052,0.0624,0.1312,0.0,0.106,0.053,0.0203,0.024,0.0582,0.105,0.1566,0.1964,0.2149,0.1978,0.2159,0.2336,0.2438,0.2499,0.2599,0.2715,0.2578,0.2478,0.0,0.0,0.0,0.0,0.0,0.0,0.0,0.0,0.0,0.0,0.0,0.0,0.0,0.0,0.0,0.0,0.0,0.0,0.0,0.0,0.0,0.0,-1.326,-1.3534,-1.4416,-1.4465,-1.5,-1.6553,-1.6743,-1.6691,-1.6517,-1.6011,-1.5566,-1.5254,-1.5388,-1.5595,-1.5799,-1.5799,-1.5799,-1.5799,-1.5799,-1.5799,-1.5799,-1.6675,-1.7773,-1.8988,-1.8425,-1.7652,-1.6778,-1.6778,-1.6778,-1.6778,-1.6522,-1.612,-1.568,-1.568,-1.5124,0.0,0.0,0.0,0.0,0.0,-0.9457,-0.8578,-0.7919,-0.7245,-0.6526,-0.5804,-0.5154,-0.4412,-0.349,-0.3667,-0.4284,-0.4854,-0.499,-0.4941,-0.4675,-0.4451,-0.4213,-0.3752,-0.3427,-0.3208,-0.3208,-0.2676,-0.2114,-0.1715,-0.1449,0.0,-0.0769,-0.0293,0.0037,0.0038,0.0699,0.1061,0.0628,0.0236,-0.0,-0.0,0.0185,0.0469,0.0951,0.1333,0.0,0.0,0.0,0.197,0.2258,0.2399,0.0,0.0,0.0,0.0,0.0,0.0,0.0,0.0,0.2631,0.2904,0.0,0.0,0.0,0.0,0.0,0.0,0.0,0.0,0.0,0.0,0.0,0.0,0.0,0.0,0.0,0.0,-1.4041,-1.4893,-1.7504,-1.7737,-1.7592,-1.7545,-1.7522,-1.7522,-1.7522,-1.6821,-1.6234,-1.6011,-1.5983,-1.5983,-1.5983,0.0,0.0,0.0,0.0,-1.5856,-1.5856,-1.844,-1.9762,-1.969,-1.8912,-1.8135,-1.7365,-1.7365,-1.7365,-1.7323,-1.7282,-1.6889,-1.6271,-1.6229,-1.5003,-1.3025,-1.187,-1.1223,-1.0805,-1.0107,-0.9515,-0.8943,-0.8044,0.0,0.0,-0.6666,-0.5938,-0.4985,-0.4064,-0.4328,-0.499,-0.499,-0.499,-0.499,-0.499,-0.4675,-0.4364,-0.432,-0.3728,-0.3208,-0.3208,-0.2911,-0.258,-0.2217,-0.1878,-0.1609,-0.1406,-0.0838,-0.0397,-0.0361,-0.0,0.0309,0.0309,0.0116,-0.0,-0.0,0.0,0.0,0.0236,0.0538,0.0706,0.0672,0.1122,0.1614,0.2157,0.234,0.245,0.2479,0.2479,0.2471,0.2388,0.2342,0.2383,0.2571,0.2724,0.2994,0.0,0.0,0.0,0.0,0.0,0.0,0.0,0.0,0.0,0.0,0.0,0.0,0.0,0.0,0.0,-1.7047,-1.7533,-1.7705,-1.8278,-1.8325,-1.818,-1.7789,-1.7743,-1.7743,-1.7743,-1.7458,-1.7216,-1.7191,-1.7166,-1.7166,-1.7166,-1.6965,-1.6628,-1.6139,-1.6111,-1.6111,-1.6111,-1.8803,-2.001,-1.969,0.0,0.0,-1.8268,-1.8268,-1.8268,-1.8228,-1.7922,-1.6617,-1.4706,-1.4441,-1.3727,-1.2674,-1.1474,-1.0957,-1.0881,-1.0728,-1.0186,-0.9395,-0.8118,-0.7628,-0.7545,-0.7461,-0.6872,-0.5938,-0.5029,-0.4854,0.0,-0.499,-0.499,-0.499,-0.499,-0.4941,-0.4762,-0.4408,-0.3728,-0.3208,-0.3208,-0.2841,-0.251,-0.2444,-0.2211,-0.1947,-0.1811,-0.1321,-0.0889,-0.0717,-0.0483,-0.0312,-0.0243,-0.0104,-0.0,-0.0,-0.0,-0.0,0.0067,0.0101,0.0269,0.0538,0.1032,0.1523,0.2035,0.2117,0.2269,0.2401,0.2433,0.2421,0.2395,0.2395,0.2379,0.2377,0.2609,0.2893,0.0,0.0,0.0,0.0,0.0,0.0,0.0,0.0,0.0,0.0,0.0,-1.0766,-1.2432,0.0,-1.5791,-1.8457,-1.8843,-1.8788,-1.8788,-1.8788,-1.8639,-1.8205,-1.8142,-1.8142,-1.8142,-1.8074,-1.8009,-1.8009,-1.8009,-1.8009,-1.8009,-1.7652,-1.7929,-1.8965,-1.7594,-1.6847,-1.6847,-1.9311,-2.0239,-1.969,-1.9508,-1.9288,-1.9101,-1.9101,-1.8368,-1.7132,-1.6961,-1.6165,-1.5011,-1.417,-1.3573,-1.3163,-1.2365,-1.1686,-1.1185,-1.0957,-1.0535,-0.9823,-0.8732,-0.8209,-0.8044,-0.8044,-0.7587,-0.6872,-0.5981,-0.5723,-0.5723,-0.5723,-0.555,-0.529,-0.5072,-0.4678,-0.4285,-0.4051,-0.3575,-0.3208,-0.3208,-0.2944,-0.2712,-0.2712,-0.255,-0.2347,-0.2178,-0.1847,-0.1479,-0.1076,-0.0706,-0.0504,-0.0471,-0.0336,-0.0202,-0.0034,-0.0,-0.0,-0.0,-0.0,0.0067,0.0235,0.0672,0.1161,0.177,0.1951,0.212,0.2281,0.2374,0.2377,0.2313,0.2347,0.2317,0.232,0.2513,0.275,0.0,0.0,0.0,0.0,0.0,0.0,0.0,0.0,-0.6913,-0.9701,-1.0766,-1.2022,-1.4786,-1.5696,-1.6772,-1.9027,-1.9311,-1.9251,-1.9251,-1.9251,-1.9102,-1.8752,-1.8658,-1.862,-1.862,-1.862,-1.862,-1.862,-1.862,-1.862,-1.862,-1.8225,-1.9212,-2.1903,-1.9161,-1.7656,-1.7656,-1.9942,-2.0763,-2.012,-2.005,-1.9925,-1.9818,-1.9256,-1.7824,-1.5799,-1.5799,-1.577,-1.5624,-1.4479,-1.3941,-1.3841,-1.3369,-1.2627,-1.1734,-1.1147,-1.0679,-1.0322,-0.9607,-0.9096,-0.8732,-0.8496,-0.8126,-0.767,-0.6878,-0.6666,-0.6666,-0.6666,-0.6319,-0.5802,-0.5121,-0.4428,-0.3901,-0.377,-0.3536,-0.3307,-0.3274,-0.308,-0.2915,-0.2915,-0.2782,-0.2646,-0.2441,-0.2278,-0.1947,-0.1378,-0.0907,-0.0605,-0.0571,-0.0538,-0.0403,-0.0101,-0.0034,-0.0,-0.0,-0.0,-0.0,-0.0,0.0303,0.084,0.1575,0.1811,0.2003,0.2165,0.2291,0.2294,0.2193,0.2234,0.2267,0.2293,0.2425,0.2609,-0.9147,-0.9325,-0.9544,-0.9683,-0.968,-0.962,0.0,0.0,-0.9805,-1.0137,-1.2622,-1.4844,-1.5231,-1.7709,-1.9715,-1.9744,-1.9725,-1.9712,-1.9712,-1.9712,-1.966,-1.9512,-1.9219,-1.9036,-1.9036,-1.9036,-1.9036,-1.9036,-1.9036,-1.9036,-1.9036,-1.8807,-1.9886,-2.2529,-1.9688,-1.8126,-1.8126,-2.0779,-2.1961,-2.1554,-2.1261,-2.0827,-2.0158,-1.7716,-1.63,-1.5799,-1.5799,-1.5624,-1.5313,-1.4856,-1.4525,-1.417,-1.3459,-1.3129,-1.2838,-1.1437,-1.0881,-1.0805,-1.0728,-1.04,-0.9883,-0.8773,-0.8373,-0.8209,-0.7712,-0.7552,-0.7552,-0.7552,-0.7202,-0.6542,-0.5162,-0.4734,-0.4549,-0.4091,-0.3798,-0.3639,-0.3569,-0.32,-0.2904,-0.2904,-0.2775,-0.2646,-0.251,-0.2411,-0.2175,-0.1642,-0.1243,-0.0976,-0.0774,-0.0605,-0.0437,-0.0269,-0.0101,-0.0,-0.0,-0.0,-0.0,-0.0,0.0303,0.0841,0.1583,0.1644,0.1804,0.2098,0.2142,0.2142,0.2095,0.2109,0.2173,0.2313,0.2327,0.2435,-0.9817,-0.9957,-1.0136,0.0,-1.0274,-1.0248,-1.0169,-1.0226,-1.0858,-1.2767,-1.4318,-1.5303,-1.5303,-1.6411,-1.7282,0.0,-1.8696,-1.9977,-1.9977,-1.9941,-1.9868,-1.9731,-1.9592,-1.9479,-1.9408,-1.9375,-1.9375,-1.9375,-1.9464,-1.9504,-1.9504,-1.9246,-2.0408,-2.3247,-2.2135,-2.1458,-2.1458,-2.2476,-2.285,-2.2554,-2.2089,-2.073,-1.8631,-1.7105,-1.6207,-1.5799,-1.5799,-1.5712,-1.5566,-1.5433,-1.5072,-1.4525,-1.3808,-1.3539,-1.3404,-1.2077,-1.0721,-0.9733,-1.085,-1.0995,-1.0487,-0.9616,-0.8975,-0.8448,-0.7679,-0.7174,-0.6876,-0.6876,-0.662,-0.6103,-0.5313,-0.5023,-0.489,-0.4543,-0.4156,-0.3831,-0.37,-0.3335,-0.3003,-0.3003,-0.2904,-0.2805,-0.2739,-0.2676,-0.251,-0.2175,-0.1709,-0.1276,-0.1009,-0.0706,-0.0403,-0.0168,-0.0034,-0.0,-0.0,-0.0,-0.0,-0.0,0.0303,0.0841,0.1585,0.1613,0.1744,0.2083,0.2117,0.2117,0.2117,0.2117,0.2178,0.2299,0.2363,0.2506,-0.9959,0.0,0.0,-1.1446,-1.1706,-1.1698,-1.1646,-1.1671,-1.2399,-1.4798,-1.5307,-1.5302,-1.5308,-1.525,-1.5207,-1.5165,-1.7198,-1.9107,-2.0054,-1.9316,-1.862,-1.8429,-1.8425,-1.8746,-1.9559,-1.967,-1.967,-1.967,-1.9744,-1.9807,-1.9807,-1.9574,-2.0404,-2.2479,-2.2552,-2.2988,-2.3899,-2.288,-2.2239,-2.1998,-2.1552,-2.005,-1.7662,-1.6933,-1.6382,-1.6011,-1.6011,-1.5983,-1.5913,-1.5827,-1.5477,-1.4871,-1.43,-1.3589,-1.274,-1.1838,-1.029,-0.8796,-1.0201,-1.0687,-1.0583,-1.0044,-0.9354,-0.8549,-0.7642,-0.6857,-0.6315,-0.6315,-0.6122,-0.5842,-0.5467,-0.5302,-0.5176,-0.4902,-0.4479,-0.4086,-0.3868,-0.3504,-0.3204,-0.3142,-0.3039,-0.2937,-0.2871,-0.2779,-0.265,-0.2477,-0.2011,-0.1577,-0.1278,-0.0773,-0.0336,-0.0034,-0.0,-0.0,-0.0,-0.0,-0.0,-0.0,0.0303,0.0841,0.1585,0.1613,0.1744,0.2083,0.2117,0.2117,0.2117,0.2117,0.2194,0.2344,0.2463,0.2585,0.0,0.0,-1.1003,-1.4399,-1.5246,-1.5246,-1.5245,-1.5232,-1.5251,-1.529,-1.5306,-1.5295,-1.5293,-1.5303,-1.5303,-1.5279,-1.5376,-1.6595,-1.9909,-1.7484,-1.524,-1.4982,-1.4944,-1.623,0.0,-1.9795,-1.9795,-1.9795,-1.9795,-1.9807,-1.9807,-1.9795,-1.9684,-1.9452,-1.9436,-2.0978,-2.4171,-2.1016,-1.936,-1.9215,-1.9004,-1.8649,-1.813,-1.7093,-1.6596,-1.657,-1.657,-1.6436,-1.6166,-1.5913,-1.5595,-1.5253,-1.4902,-1.2991,-1.0378,-1.0084,-0.9402,-0.86,-0.8666,-0.9327,-1.0081,-0.9651,-0.9179,-0.8646,-0.785,-0.6999,-0.6315,-0.6315,-0.6284,-0.6191,-0.5725,-0.5599,-0.5474,-0.5087,-0.473,-0.4403,-0.4156,-0.3765,-0.3434,-0.3241,-0.3142,-0.3043,-0.2849,-0.2646,-0.2477,-0.232,-0.2081,-0.1811,-0.1609,-0.0839,-0.0235,-0.0034,-0.0,-0.0,-0.0,-0.0,-0.0,-0.0,0.0303,0.0841,0.1585,0.1613,0.1744,0.2083,0.2117,0.2117,0.2117,0.2117,0.2234,0.2495,0.2501,0.2631,-1.2806,0.0,-1.3807,-1.5031,-1.5321,-1.5321,-1.5321,-1.5379,-1.5397,-1.5369,-1.5371,-1.4666,-1.2396,-1.3847,-1.5343,-1.5319,-1.5307,-1.651,-1.9978,-1.7456,-1.5207,-1.5015,-1.6958,0.0,0.0,0.0,0.0,-1.9807,-1.9807,-1.9807,-1.9807,-1.9807,-1.9738,-1.9628,-1.9628,-2.0168,-2.1258,-2.0173,-1.9601,-1.9546,-1.9168,-1.8732,-1.819,-1.7635,-1.7401,-1.7401,-1.7401,-1.7158,-1.6759,-1.6083,-1.5741,-1.5624,-1.5507,-1.3581,-1.0801,-1.0534,-1.011,-0.9656,-0.9563,-0.9525,-0.953,-0.9647,-0.9355,-0.8815,-0.8172,-0.7516,-0.689,-0.6579,-0.6368,-0.6199,-0.6044,-0.5888,-0.5725,-0.5522,-0.5169,-0.4845,-0.4628,-0.4178,-0.3793,-0.3695,-0.3438,-0.3179,-0.301,-0.2676,-0.2308,-0.1911,-0.1646,-0.1514,-0.1581,-0.084,-0.0235,-0.0034,-0.0,-0.0,-0.0,-0.0,-0.0,-0.0,0.0303,0.0841,0.1585,0.1613,0.1744,0.2083,0.2117,0.2117,0.2117,0.2197,0.2315,0.2503,0.2585,0.271,-1.4513,-1.5127,-1.5177,-1.5222,-1.5236,-1.5236,-1.5236,-1.5259,-1.5299,-1.5299,-1.5283,-1.425,-1.0846,-1.2063,-1.3959,-1.5109,-1.5306,-1.6083,-1.8332,-1.7791,-1.7132,-1.7041,-1.8922,-2.0235,0.0,0.0,0.0,-1.9911,-1.9919,-1.9919,-1.9919,-1.9919,-1.9919,-1.9919,-1.9919,-1.9919,-1.9919,-1.9873,-1.9844,-1.9795,-1.9372,-1.8931,-1.8502,-1.8117,-1.7939,-1.7939,-1.7833,-1.7536,-1.7032,-1.6151,-1.5799,-1.5709,-1.4749,-1.3154,-1.1384,-1.1118,-1.076,-1.0374,-1.0064,-0.9661,-0.9289,-0.9489,-0.9224,-0.8733,-0.8266,-0.7757,-0.7212,-0.6846,-0.6551,-0.6292,-0.623,-0.6067,-0.5912,-0.5773,-0.5453,-0.5131,-0.4915,-0.4473,-0.4091,-0.3956,-0.3635,-0.3307,-0.3072,-0.254,-0.1976,-0.151,-0.1278,-0.1246,-0.1483,-0.0908,-0.0336,-0.0034,-0.0,-0.0,-0.0,-0.0,-0.0,-0.0,0.0303,0.0841,0.1585,0.1613,0.1744,0.2083,0.2117,0.2135,0.2181,0.2259,0.2414,0.2651,0.2733,0.2836,-1.5071,-1.5085,-1.5085,-1.5085,-1.5085,-1.5085,-1.5085,-1.5085,-1.5054,-1.4863,-1.4844,-1.387,0.0,0.0,-1.1384,-1.4768,-1.5313,-1.5313,-1.5313,-1.8302,-2.0517,0.0,0.0,0.0,0.0,0.0,0.0,-2.0133,0.0,-2.0116,-2.0116,-2.0116,-2.0116,-2.0126,-2.0116,-2.0116,-2.0116,-2.0028,-1.9926,-1.9795,-1.9485,-1.9246,-1.9087,-1.8344,-1.799,-1.7948,-1.7679,-1.7319,-1.6806,-1.5979,-1.5632,-1.5377,-1.2816,-1.1891,-1.1991,-1.1725,-1.1281,-1.0753,-1.0172,-0.9738,-0.9396,-0.919,-0.8839,-0.8445,-0.8135,-0.7705,-0.7296,-0.7098,-0.6786,-0.6499,-0.6337,-0.6153,-0.5967,-0.5842,-0.5617,-0.5358,-0.5087,-0.4704,-0.435,-0.4091,-0.3728,-0.3331,-0.2933,-0.2206,-0.1544,-0.1143,-0.0976,-0.1009,-0.1346,-0.0976,-0.0538,-0.0067,-0.0,0.0034,0.0067,0.0034,0.0034,0.0034,0.0336,0.0875,0.1585,0.1611,0.1778,0.2083,0.2117,0.2173,0.2285,0.2299,0.2534,0.2888,0.2941,0.3055,-1.5022,-1.503,-1.503,-1.503,-1.503,-1.503,-1.503,-1.503,-1.4327,-1.1819,-1.1306,-1.104,0.0,0.0,0.0,-1.4813,-1.5371,0.0,-1.5371,-1.8373,0.0,-2.0577,0.0,-2.0577,-2.0577,-2.0577,0.0,0.0,-2.0434,-2.0404,-2.0404,-2.0404,-2.0379,-2.0325,-2.0379,-2.0404,-2.0404,-2.003,-1.9832,-1.9795,-1.9712,-1.9513,-1.9154,-1.6499,-1.5188,-1.4982,-1.4657,-1.4272,-1.3856,-1.3339,-1.3115,-1.3054,-1.2366,-1.2112,-1.2133,-1.207,-1.1747,-1.1273,-1.0963,-1.0383,-0.9728,-0.9542,-0.917,-0.8778,-0.8568,-0.8174,-0.7715,-0.7491,-0.7145,-0.6764,-0.6573,-0.6268,-0.599,-0.5959,-0.5811,-0.5648,-0.5428,-0.5011,-0.4628,-0.4403,-0.3653,-0.2867,-0.2242,-0.1744,-0.1244,-0.0739,-0.0639,-0.0706,-0.0976,-0.0875,-0.0672,-0.0403,0.0067,0.0504,0.0808,0.0538,0.037,0.037,0.0841,0.1278,0.1747,0.1711,0.1811,0.2083,0.2117,0.213,0.2162,0.2563,0.284,0.2987,0.3324,0.3578,-1.7179,-1.7189,-1.7189,-1.7189,-1.6098,-1.4998,-1.4998,-1.3861,-1.2268,-1.0385,-1.0006,0.0,-1.0006,0.0,0.0,0.0,0.0,0.0,-1.5409,-1.8378,-2.0566,0.0,-2.0605,0.0,-2.0605,-2.0605,-2.0605,0.0,-2.0562,-2.0549,-2.0549,-2.0511,-2.0482,-2.0446,-2.0473,-2.0497,-2.0452,-2.0107,-1.9922,-1.9922,-1.9896,-1.9763,-1.9402,-1.6018,-1.4331,-1.4058,0.0,-1.3396,-1.3031,-1.2639,-1.2463,-1.2463,-1.2463,-1.2363,-1.2236,-1.2195,-1.2033,-1.1768,-1.1541,-1.1052,-1.0441,-1.0021,-0.953,-0.9089,-0.8844,-0.8467,-0.8023,-0.7763,-0.7353,-0.6945,-0.6734,-0.6399,-0.6098,-0.6098,-0.5967,-0.5835,-0.5679,-0.5264,-0.4782,-0.4242,-0.3528,-0.2772,-0.2078,-0.1581,-0.1145,-0.0672,-0.0538,-0.0538,-0.0706,-0.0706,-0.0639,-0.0504,0.0034,0.0706,0.1483,0.1212,0.0976,0.0976,0.1311,0.168,0.2014,0.1911,0.1945,0.2214,0.2247,0.2273,0.233,0.2791,0.3161,0.3425,0.3794,0.4136,-1.9938,-1.965,-1.9309,-1.9309,-1.7113,-1.4982,-1.4982,-1.238,-0.9995,-0.9995,0.0,-0.9319,-0.9343,-0.9805,-1.1179,-1.4228,0.0,-1.5387,-1.5409,-1.7944,-2.0002,-2.0529,-2.059,-2.059,-2.059,-2.059,-2.059,-2.0586,-2.0585,-2.0583,-2.0599,-2.0545,-2.051,-2.0507,-2.0507,-2.0468,-2.0411,-2.0246,-2.0143,-2.0125,-1.9592,-1.9287,-1.9092,-1.6113,-1.46,-1.4344,-1.4086,-1.3781,-1.343,-1.3049,-1.2885,-1.2885,-1.2885,-1.2662,-1.2363,-1.2298,-1.2252,-1.2195,-1.1933,-1.1637,-1.1227,-1.0494,-0.988,-0.9369,-0.905,-0.8662,-0.8262,-0.7947,-0.75,-0.7095,-0.6893,-0.6507,-0.6207,-0.6207,-0.6098,-0.5967,-0.5842,-0.5421,-0.482,-0.3928,-0.3405,-0.2874,-0.2114,-0.1646,-0.1177,-0.0773,-0.0605,-0.0504,-0.0504,-0.0471,-0.0437,-0.0403,0.0067,0.0808,0.1926,0.172,0.1585,0.1583,0.1747,0.1947,0.2253,0.2117,0.2147,0.2408,0.2408,0.2466,0.2585,0.3039,0.3467,0.3939,0.4299,0.4696,-1.9795,-1.7802,-1.5696,-1.5696,-1.5264,-1.4832,-1.4832,-1.2283,0.0,0.0,-0.7717,-0.5811,-0.5859,-0.82,-1.0325,-1.0983,0.0,0.0,0.0,0.0,-1.7343,0.0,0.0,0.0,0.0,0.0,0.0,0.0,0.0,-2.0542,-2.0599,-2.0586,-2.0568,-2.0493,-2.0507,-2.0483,-2.0473,-2.0457,-2.0398,-2.0308,-1.737,-1.5933,-1.5899,-1.5301,-1.4876,-1.4618,-1.4453,0.0,-1.3798,-1.3446,-1.3294,-1.3294,-1.3294,-1.3067,-1.2716,-1.2636,-1.2518,-1.2323,-1.2117,-1.1869,-1.1512,-1.0835,-1.0135,-0.9516,-0.9289,-0.8921,-0.8488,-0.8215,-0.7792,-0.7364,-0.7047,-0.659,-0.6207,-0.6207,-0.6098,-0.5967,-0.5888,-0.5435,-0.4794,-0.4091,-0.3593,-0.2999,-0.2147,-0.1744,-0.1341,-0.0773,-0.0672,-0.0639,-0.0504,-0.0269,-0.0034,0.0134,0.0538,0.1009,0.1483,0.1415,0.1414,0.1577,0.1778,0.1947,0.2047,0.2183,0.2284,0.2408,0.2408,0.242,0.2444,0.3132,0.3633,0.3983,0.4665,0.5188,-1.9679,-1.7265,-1.4746,-1.4746,-1.4746,-1.4298,-1.2589,0.0,0.0,0.0,-0.6015,-0.4912,-0.4989,0.0,0.0,0.0,0.0,0.0,0.0,0.0,0.0,0.0,0.0,0.0,0.0,0.0,0.0,0.0,0.0,-1.8523,-2.0451,-2.0583,-2.0594,-2.0558,-2.0555,-2.0549,-2.0508,-2.0502,-1.9566,-1.7733,-1.5983,-1.5146,-1.5146,-1.5146,-1.5071,-1.4904,-1.4685,-1.4471,-1.4177,-1.3809,-1.3793,-1.3963,-1.3806,-1.3492,-1.3108,-1.3,-1.2778,-1.2487,-1.2343,-1.2117,-1.1783,-1.1256,-1.0519,-0.9803,-0.9593,-0.9205,-0.8795,-0.8544,-0.8195,-0.784,-0.7491,-0.7056,-0.6651,-0.659,-0.6337,-0.6091,-0.5881,-0.5467,-0.496,-0.4318,-0.3756,-0.313,-0.2308,-0.1842,-0.1408,-0.084,-0.0706,-0.0639,-0.0504,-0.0202,0.0202,0.0773,0.1009,0.1279,0.1715,0.1682,0.1713,0.1947,0.2047,0.2147,0.2245,0.2347,0.2447,0.2543,0.2543,0.2582,0.2656,0.3313,0.3901,0.4398,0.5082,0.5631,-1.8544,-1.6669,-1.4701,-1.4701,-1.4701,-1.3829,-1.0543,-0.9794,0.0,0.0,-0.4874,-0.491,-0.4967,0.0,-0.5843,0.0,-0.9549,0.0,0.0,0.0,0.0,0.0,0.0,0.0,0.0,0.0,0.0,0.0,0.0,0.0,-1.9221,-1.9447,-1.9488,-1.9488,-1.9488,-1.9462,-1.9402,-1.9395,-1.8002,-1.5306,-1.5255,-1.521,-1.521,-1.521,-1.517,-1.5106,-1.4886,-1.4685,-1.4529,-1.4163,-1.4242,-1.4545,-1.4281,-1.3913,-1.3501,-1.3327,-1.3038,-1.2687,-1.26,-1.2343,-1.2018,-1.1659,-1.0936,-1.0147,-0.9905,-0.9552,-0.9178,-0.8937,-0.8662,-0.8382,-0.8042,-0.7637,-0.7205,-0.6966,-0.6643,-0.6276,-0.5905,-0.5592,-0.5214,-0.4576,-0.3988,-0.3298,-0.2438,-0.1942,-0.1475,-0.0874,-0.0773,-0.0672,-0.0437,-0.0101,0.0403,0.1211,0.1313,0.1514,0.2017,0.1981,0.2047,0.2317,0.2387,0.245,0.2543,0.2577,0.2643,0.2746,0.2779,0.2856,0.3014,0.3617,0.4226,0.4791,0.5434,0.5976,-1.5125,-1.4924,-1.4701,-1.4701,-1.4701,-1.3829,-1.0543,0.0,0.0,-0.5483,-0.4801,-0.4838,-0.4904,-0.4914,-0.5007,0.0,0.0,-1.0054,0.0,0.0,0.0,0.0,0.0,0.0,0.0,0.0,0.0,0.0,0.0,0.0,-1.5746,-1.5836,-1.5874,-1.5874,-1.5874,-1.5878,-1.5878,-1.5818,-1.5617,-1.5306,-1.528,-1.5295,-1.5295,-1.5295,-1.525,-1.5197,-1.5099,-1.4921,0.0,-1.4499,-1.4571,-1.4747,-1.4537,-1.4214,-1.3818,-1.3632,-1.3362,-1.3037,-1.2836,-1.2588,-1.2323,-1.2033,-1.1327,-1.0503,-1.0222,-0.9906,-0.9609,-0.9387,-0.9147,-0.8876,-0.8601,-0.8171,-0.7656,-0.7056,-0.6725,-0.6474,-0.6052,-0.5804,-0.5453,-0.473,-0.4183,-0.3523,-0.2471,-0.2075,-0.1644,-0.0907,-0.0841,-0.0672,-0.0134,0.0202,0.0604,0.1239,0.131,0.1481,0.188,0.2014,0.2181,0.2477,0.258,0.2683,0.2782,0.2841,0.2867,0.2871,0.3006,0.3192,0.3432,0.3992,0.4543,0.5081,0.5556,0.6013,-1.4574,-1.4585,-1.4585,-1.4585,-1.4585,-1.3737,-1.0481,0.0,-0.865,-0.54,-0.4741,-0.4746,-0.4771,-0.4771,-0.4771,-0.4771,-0.7494,-0.9612,-0.9688,0.0,0.0,0.0,0.0,0.0,0.0,0.0,0.0,0.0,0.0,0.0,-1.512,-1.5268,-1.5346,-1.5346,-1.5346,-1.5358,-1.5395,-1.5369,-1.5351,-1.5351,-1.5369,-1.5362,-1.5362,-1.5353,-1.5351,-1.5327,-1.5255,-1.5101,0.0,-1.4849,-1.4849,-1.4892,-1.4738,-1.4504,-1.4247,-1.4038,-1.3754,-1.3427,-1.3227,-1.2928,-1.2607,-1.2388,-1.1909,-1.1357,-1.0845,-1.0434,-1.0097,-0.9945,-0.9765,-0.953,-0.9212,-0.864,-0.7974,-0.7255,-0.6936,-0.6634,-0.6114,-0.5734,-0.5327,-0.473,-0.4118,-0.3429,-0.2504,-0.2042,-0.1575,-0.0941,-0.0639,-0.0303,0.0235,0.0706,0.1209,0.1711,0.1611,0.1611,0.1981,0.2178,0.2408,0.2739,0.2805,0.2874,0.3047,0.3072,0.3072,0.3072,0.3237,0.3548,0.3993,0.4347,0.4882,0.5524,0.5876,0.6227,-1.4173,-1.4441,-1.4441,-1.4441,-1.3728,-1.243,0.0,-0.8816,-0.7411,-0.5141,-0.4665,-0.4665,-0.4665,-0.4665,-0.467,-0.4706,-0.656,-0.8349,-0.9331,-1.159,0.0,0.0,0.0,0.0,0.0,0.0,0.0,0.0,0.0,0.0,-1.4921,-1.5069,-1.5183,-1.525,-1.5231,-1.5263,-1.5315,-1.5315,-1.5326,-1.5368,-1.5377,-1.5381,-1.5391,-1.5406,-1.54,-1.5409,-1.5349,-1.5259,0.0,-1.5108,-1.5087,-1.504,-1.4914,-1.4757,-1.4571,-1.4398,-1.4105,-1.3783,-1.3588,-1.3244,-1.2893,-1.2703,-1.2412,-1.2045,-1.1549,-1.1043,-1.064,-1.0532,-1.0298,-0.9995,-0.9633,-0.8981,-0.8269,-0.7511,-0.7136,-0.6755,-0.6145,-0.5672,-0.5226,-0.4692,-0.4048,-0.3364,-0.254,-0.2078,-0.1575,-0.084,-0.0336,0.0134,0.0639,0.1211,0.1747,0.2181,0.2045,0.2011,0.2214,0.2444,0.2739,0.3064,0.3101,0.3171,0.334,0.3372,0.3372,0.334,0.3565,0.3966,0.4494,0.4769,0.5245,0.5922,0.6179,0.6447,-1.3431,-1.4306,-1.4306,-1.4306,-1.1905,-0.9545,0.0,-0.699,-0.4632,-0.4614,-0.4597,-0.4597,-0.4597,-0.4597,-0.4617,-0.4697,-0.4724,-0.5829,-0.8975,-0.9493,0.0,0.0,0.0,0.0,0.0,0.0,0.0,0.0,0.0,0.0,-1.4699,-1.4757,-1.49,-1.5092,-1.5099,-1.5099,-1.5099,-1.5099,-1.5171,-1.5308,-1.5292,-1.5345,-1.5392,-1.5401,-1.5409,-1.5391,-1.5406,-1.5355,0.0,-1.5293,-1.526,-1.518,-1.505,-1.4916,-1.4774,-1.4658,-1.4379,-1.4074,-1.3867,-1.352,-1.3159,-1.3051,-1.2773,-1.2459,-1.2323,-1.1818,-1.1287,-1.1201,-1.0753,-1.0199,-0.9725,-0.9185,-0.8612,-0.7878,-0.7334,-0.6807,-0.6145,-0.5672,-0.5226,-0.4622,-0.407,-0.3421,-0.254,-0.2247,-0.1678,-0.047,0.0034,0.0504,0.1111,0.1646,0.2114,0.2444,0.2613,0.2646,0.251,0.2874,0.3204,0.3467,0.3565,0.3635,0.3705,0.3831,0.3826,0.3705,0.3966,0.4387,0.5001,0.5184,0.5601,0.6184,0.6392,0.6575,-1.046,-1.0753,-1.0753,-1.0753,-0.9975,-0.9224,-0.9224,-0.6792,-0.4534,-0.4534,-0.4534,-0.4534,-0.4534,-0.4577,-0.4617,-0.4697,-0.4706,-0.5045,0.0,0.0,0.0,0.0,0.0,0.0,0.0,0.0,0.0,0.0,0.0,-1.456,-1.456,-1.4624,-1.4785,-1.5027,-1.5027,-1.5038,-1.5038,-1.5038,-1.5073,-1.5155,-1.5157,-1.5202,-1.5257,-1.5313,-1.5336,-1.5332,-1.5331,-1.5328,-1.5309,-1.5302,-1.5297,-1.5253,-1.5173,-1.5086,-1.4986,-1.4852,-1.4652,-1.44,-1.4165,-1.3849,-1.3503,-1.3328,-1.307,-1.2829,-1.2684,-1.2215,-1.1637,-1.1339,-1.0873,-1.0324,-0.9841,-0.9304,-0.8695,-0.7956,-0.7403,-0.6876,-0.6145,-0.5648,-0.5112,-0.4436,-0.3788,-0.3101,-0.2335,-0.1671,-0.0937,0.0034,0.0571,0.1075,0.1747,0.2078,0.2374,0.2669,0.3035,0.32,0.3064,0.3298,0.3565,0.3881,0.3923,0.4031,0.4161,0.4221,0.4248,0.4242,0.4479,0.4932,0.5633,0.5671,0.6032,0.6696,0.6774,0.6859,-0.8788,-0.9109,-0.9109,-0.9109,-0.8226,-0.7355,-0.7338,-0.5856,-0.4178,-0.3028,-0.3708,-0.4503,-0.4503,-0.4542,-0.4579,-0.4622,-0.4631,-0.5031,0.0,0.0,0.0,0.0,0.0,0.0,0.0,0.0,0.0,0.0,0.0,-1.4393,-1.4393,-1.4441,-1.4441,-1.4316,-1.4327,-1.4217,-1.4012,-1.383,-1.3757,-1.3831,-1.4028,-1.4146,-1.4212,-1.4263,-1.4466,-1.4766,-1.4797,-1.4992,0.0,-1.531,-1.5299,-1.5309,-1.526,-1.5202,-1.5153,-1.5056,-1.4893,-1.4728,-1.4503,-1.4223,-1.3939,-1.3731,-1.3442,-1.3123,-1.3,-1.2478,-1.1897,-1.1564,-1.1062,-1.0485,-0.9906,-0.9345,-0.8723,-0.8013,-0.7471,-0.6906,-0.626,-0.5641,-0.5017,-0.4274,-0.356,-0.2907,-0.2275,-0.137,-0.0434,0.0536,0.1176,0.1747,0.2278,0.2543,0.2805,0.3163,0.3523,0.3784,0.3968,0.3946,0.4048,0.436,0.4409,0.4511,0.4666,0.4704,0.4768,0.4788,0.4992,0.5346,0.5914,0.6175,0.6613,0.7209,0.7245,0.728,0.0,-0.8771,-0.8771,-0.8771,-0.6618,-0.4476,-0.4401,-0.4431,0.0,-0.0883,-0.2379,-0.424,-0.4454,-0.4488,-0.4488,-0.4486,-0.448,-0.5551,0.0,0.0,0.0,0.0,0.0,0.0,0.0,0.0,0.0,0.0,-1.4172,-1.4172,-1.4172,-1.4193,-1.3877,-1.3201,-1.3067,-1.2809,-1.2399,-1.188,-1.1685,-1.1749,-1.2262,-1.2522,-1.2585,-1.2582,-1.3055,0.0,-1.395,-1.4478,0.0,-1.5293,-1.5287,-1.5293,-1.5291,-1.5299,-1.5297,-1.5221,-1.5125,-1.498,-1.4863,-1.4644,-1.439,-1.4198,-1.3828,-1.3408,-1.3278,-1.2727,-1.2086,-1.1811,-1.1302,-1.0667,-0.9932,-0.9336,-0.875,-0.8088,-0.752,-0.6966,-0.6435,-0.5689,-0.4877,-0.4151,-0.3397,-0.2772,-0.2353,-0.1271,-0.01,0.0969,0.1811,0.2447,0.2801,0.3035,0.3368,0.3891,0.4075,0.443,0.5068,0.4782,0.4654,0.4877,0.4985,0.5112,0.5163,0.5302,0.5372,0.5372,0.5512,0.5723,0.5977,0.672,0.731,0.7724,0.7746,0.7836,-0.5315,0.0,-0.5579,-0.5579,-0.5,-0.4383,0.0,-0.422,-0.4085,-0.3433,0.0,-0.173,-0.3931,-0.4357,-0.4341,-0.4343,-0.4343,-0.5363,0.0,0.0,0.0,0.0,0.0,0.0,0.0,0.0,0.0,-1.3959,-1.3959,-1.3959,-1.3959,-1.3445,-1.3102,-1.298,-1.1822,-1.1544,-1.2248,-1.2116,-1.2101,-1.2155,-1.2286,-1.2358,-1.2373,-1.2423,-1.2887,-1.3674,-1.3742,-1.4266,-1.508,-1.5171,-1.5225,-1.5229,-1.5286,-1.5303,-1.5292,-1.5227,-1.5158,-1.507,-1.498,-1.4833,-1.4665,-1.441,-1.4144,-1.3876,-1.3651,-1.3075,-1.2416,-1.2092,-1.1564,-1.0973,-1.0383,-0.9701,-0.8996,-0.8428,-0.7715,-0.7017,-0.6504,-0.5797,-0.5017,-0.4237,-0.3453,-0.2739,-0.225,-0.1072,0.0201,0.1306,0.2009,0.261,0.3266,0.3597,0.3928,0.4253,0.457,0.4953,0.5365,0.5239,0.5264,0.5634,0.5665,0.5727,0.5851,0.5882,0.5952,0.606,0.6362,0.6532,0.6576,0.7373,0.7834,0.7921,0.8311,0.8513,-0.4265,-0.4359,-0.4448,-0.4448,-0.4389,-0.4268,-0.4135,-0.4147,-0.4204,0.0,0.0,-0.2408,-0.3964,-0.4253,-0.4684,-0.6006,-0.6216,0.0,0.0,0.0,0.0,0.0,0.0,0.0,0.0,0.0,0.0,-1.3715,-1.3684,-1.3684,-1.3715,-1.3028,-1.2494,-1.2183,-1.1007,-1.0741,-1.1508,-1.114,-1.099,-1.1058,-1.1023,-1.1031,-1.1058,-1.1063,-1.1746,-1.2925,-1.2975,-1.3713,-1.4874,-1.5012,-1.5074,-1.5113,-1.5181,-1.5225,-1.526,-1.5217,-1.5194,-1.5192,-1.5147,-1.5043,-1.4904,-1.4737,-1.4541,-1.4325,-1.4096,-1.3391,-1.264,-1.2441,-1.1936,-1.132,-1.0709,-0.9957,-0.9227,-0.8595,-0.7859,-0.7175,-0.6573,-0.5897,-0.5144,-0.4301,-0.3519,-0.2768,-0.2111,-0.0937,0.0468,0.1976,0.2504,0.3028,0.3886,0.4274,0.459,0.4915,0.5232,0.5547,0.5944,0.5983,0.6044,0.6137,0.6191,0.6291,0.6421,0.6474,0.6587,0.6725,0.6904,0.7124,0.7303,0.7991,0.8401,0.8555,0.9046,0.9301,-0.4094,-0.4516,-0.4965,-0.4965,-0.4571,-0.4174,-0.4115,0.0,0.0,0.0,0.0,0.0,0.0,-0.4533,0.0,0.0,0.0,0.0,0.0,0.0,0.0,0.0,0.0,0.0,0.0,-1.3328,-1.3345,-1.341,-1.3378,-1.331,-1.3256,-1.2571,-1.1835,-1.1113,-1.0313,-1.0054,-1.0387,-0.9762,-0.9483,-0.9534,-0.9499,-0.9499,-0.9534,-0.9499,-1.0394,-1.2029,0.0,0.0,-1.4634,-1.4774,-1.486,-1.492,-1.5024,-1.5093,-1.5154,-1.5166,-1.5216,-1.5277,-1.5287,-1.5192,-1.5097,-1.5034,-1.4796,-1.4518,-1.4323,-1.3516,-1.2667,-1.2557,-1.2135,-1.1578,-1.0878,-1.0239,-0.9548,-0.8747,-0.8014,-0.7318,-0.661,-0.5899,-0.5144,-0.4368,-0.3606,-0.2783,-0.1823,-0.0621,0.0884,0.2964,0.3399,0.3851,0.4801,0.5149,0.5425,0.5805,0.6029,0.6275,0.6661,0.685,0.6918,0.6708,0.6717,0.6816,0.6954,0.7107,0.7216,0.7373,0.7423,0.766,0.8086,0.8637,0.9085,0.9437,0.9925,1.0234,-0.4094,-0.577,-0.7528,-0.7528,-0.582,-0.4115,-0.4101,0.0,0.0,0.0,0.0,0.0,0.0,-0.607,-0.7855,0.0,0.0,0.0,0.0,0.0,0.0,0.0,0.0,0.0,0.0,-1.3086,-1.3034,-1.2998,-1.3051,-1.2804,-1.2174,-1.1491,-1.0834,-1.0138,-0.9329,-0.8952,-0.901,-0.9109,-0.9189,-0.9274,-0.9311,-0.9311,-0.9257,-0.9304,-1.0194,-1.1688,0.0,-1.2739,-1.4277,-1.4426,-1.4518,-1.4584,-1.4775,-1.49,-1.495,-1.5007,-1.5069,-1.5133,-1.5193,-1.5161,-1.5103,-1.5093,-1.4523,-1.3827,-1.3672,-1.2925,-1.2049,-1.177,-1.1574,-1.1327,-1.0827,-1.0565,-1.0162,-0.9083,-0.8156,-0.73,-0.651,-0.5549,-0.4726,-0.4434,-0.3635,-0.2476,-0.0819,0.038,0.199,0.4625,0.5192,0.5548,0.6287,0.6507,0.6687,0.6943,0.7091,0.7248,0.7501,0.7705,0.7907,0.8088,0.7647,0.748,0.7724,0.7849,0.7993,0.8138,0.8138,0.8394,0.8911,0.951,1.0077,1.0583,1.1082,1.142,-0.4094,-0.6059,-0.8094,-0.8094,-0.7169,-0.5864,-0.4334,-0.4,0.0,0.0,0.0,0.0,0.0,0.0,0.0,0.0,0.0,0.0,0.0,0.0,0.0,0.0,0.0,0.0,-1.277,-1.2642,-1.2549,-1.2475,-1.2455,-1.2212,-1.1601,-1.0912,-1.0253,-0.9658,-0.8889,-0.8463,-0.8438,-0.8579,-0.879,-0.9043,-0.9026,-0.9036,-0.903,-0.9068,-0.9706,-1.079,0.0,-1.1811,-1.3338,-1.3446,-1.3755,-1.4185,-1.4319,-1.4423,-1.4481,-1.4625,-1.4709,-1.4793,-1.4844,-1.4859,-1.4826,-1.4789,-1.4237,-1.3579,-1.3514,-1.2595,-1.1631,-1.1914,-1.1588,-1.1172,-1.1152,-1.0574,-0.9876,-0.935,-0.824,-0.7121,-0.6493,-0.4657,-0.3063,-0.2833,-0.1235,0.0073,0.0074,0.1848,0.4035,0.6385,0.6692,0.696,0.7743,0.7914,0.8084,0.8299,0.8382,0.8486,0.8612,0.8722,0.8717,0.8456,0.8231,0.8192,0.8417,0.8546,0.8668,0.8839,0.8839,0.9159,0.9822,1.0379,1.0953,1.1578,1.2013,1.2294,-0.4087,-0.5577,-0.7255,-0.7845,0.0,-0.7464,-0.5228,-0.4716,0.0,0.0,0.0,0.0,0.0,0.0,0.0,0.0,0.0,0.0,-1.2049,-1.2302,-1.2487,-1.2514,-1.2503,-1.2455,-1.2399,-1.2205,-1.2066,-1.2003,-1.183,-1.149,-1.098,-1.0285,-0.967,-0.9088,-0.8498,-0.8178,-0.8123,-0.8176,-0.8396,-0.8749,-0.8738,-0.8761,-0.8801,-0.8807,-0.9234,-0.9988,-1.0054,-1.0972,-1.2416,-1.2467,-1.293,-1.3609,-1.371,-1.3789,-1.3908,-1.4083,-1.4185,-1.4246,-1.4286,-1.4307,-1.427,-1.4219,-1.377,-1.3265,-1.3324,-1.2425,-1.1523,-1.2153,-1.1815,-1.1335,-1.1606,-1.0863,-0.9759,-0.8524,-0.7101,-0.5662,-0.4198,-0.1924,-0.0107,0.0095,0.1767,0.2832,0.1875,0.3772,0.5992,0.78,0.8184,0.8558,0.924,0.9378,0.9491,0.9705,0.9717,0.9717,0.9754,0.9831,0.9626,0.9085,0.8935,0.8958,0.9158,0.9227,0.9345,0.9502,0.9502,0.9924,1.0771,1.1223,1.1876,1.2645,1.2969,1.3157,-0.4058,-0.4144,-0.4753,-0.7053,-0.7768,0.0,-0.7271,-0.7154,0.0,-0.7154,0.0,0.0,0.0,0.0,0.0,0.0,0.0,0.0,-1.1593,0.0,-1.2117,-1.2287,-1.22,-1.2133,-1.2133,-1.1949,-1.1768,-1.1659,-1.1159,-1.0608,-0.995,-0.9376,-0.8789,-0.8131,-0.7998,-0.7926,-0.7928,-0.7928,-0.8068,-0.8345,-0.8467,-0.8517,-0.8517,-0.8538,-0.8925,-0.9637,-0.9694,-1.0544,-1.186,-1.1925,-1.224,-1.2708,-1.2889,-1.3109,-1.3269,-1.3361,-1.3422,-1.3482,-1.3421,-1.3404,-1.3374,-1.3328,-1.2979,-1.2611,-1.2788,-1.2425,-1.1969,-1.209,-1.2127,-1.2117,-1.2139,-1.1942,-1.049,-0.5653,-0.368,-0.1733,0.2591,0.4149,0.4687,0.4631,0.4539,0.4707,0.5471,0.6294,0.7237,0.8372,0.9755,1.0717,1.0909,1.0931,1.096,1.0966,1.0897,1.0879,1.088,1.0964,1.0903,1.0739,1.0033,0.9714,0.9906,0.9983,1.0059,1.0135,1.0135,1.0716,1.1903,1.2102,1.2801,1.3868,1.403,1.4057,-0.1941,-0.2607,-0.392,-0.4772,-0.6131,0.0,0.0,-0.7219,-0.7219,-0.7219,-0.7219,0.0,0.0,0.0,0.0,0.0,0.0,0.0,-1.1497,-1.1667,-1.182,-1.1976,-1.1912,-1.1826,-1.179,-1.1652,-1.1497,-1.1362,-1.0771,-1.0138,-0.9537,-0.8941,-0.8336,-0.7709,-0.7621,-0.7575,-0.753,-0.756,-0.762,-0.768,-0.8026,-0.822,-0.8258,-0.8256,-0.8411,-0.8693,-0.9089,-0.9829,-1.0778,-1.1136,-1.1628,-1.2167,-1.2289,-1.2355,-1.2399,-1.2461,-1.2482,-1.2468,-1.2436,-1.2401,-1.2364,-1.2343,-1.197,-1.1592,-1.1824,-1.1454,-1.1112,-1.159,-0.9907,-0.8598,-1.1354,-0.9731,-0.6787,-0.4517,-0.1163,0.2033,0.3998,0.5978,0.7339,0.7242,0.8298,0.9268,0.9442,0.9924,1.0415,1.0735,1.1628,1.23,1.2394,1.2373,1.2313,1.2226,1.1907,1.1694,1.1665,1.1593,1.1542,1.1586,1.0917,1.0551,1.0619,1.0643,1.0691,1.0763,1.0763,1.1426,1.2747,1.287,1.3572,1.4814,1.4817,1.4817,-0.2694,-0.2903,-0.3574,-0.3441,0.0,0.0,-0.7009,-0.7042,-0.724,-0.7952,-0.8112,0.0,0.0,0.0,0.0,0.0,-1.0944,-1.1132,-1.1239,-1.1285,-1.1384,-1.1586,-1.1527,-1.146,-1.1415,-1.1293,-1.1155,-1.1038,-1.0275,-0.9612,-0.9208,-0.8404,-0.7779,-0.7359,-0.7282,-0.7219,-0.7171,-0.7219,-0.7219,-0.7171,-0.7499,-0.7739,-0.7912,-0.7912,-0.8003,-0.8184,-0.8601,-0.9257,-1.0077,-1.0421,-1.094,-1.152,-1.1535,-1.1468,-1.1403,-1.1395,-1.1366,-1.1307,-1.1271,-1.1227,-1.1161,-1.1131,-1.0943,-1.0743,-1.0914,-1.0632,-1.0333,-1.0686,-0.8259,-0.6098,-0.8356,-0.5863,-0.2329,-0.0558,0.2751,0.5936,0.7456,0.9323,1.0664,1.0573,1.1632,1.2464,1.2243,1.2421,1.255,1.2406,1.2988,1.3432,1.3387,1.3355,1.3242,1.3023,1.2695,1.2501,1.2559,1.2384,1.2276,1.2246,1.1879,1.1564,1.137,1.1324,1.1324,1.1333,1.1603,1.2303,1.3458,1.3741,1.4458,1.5551,1.555,1.5447,-0.7091,-0.5401,-0.3593,0.0,0.0,0.0,-0.6934,-0.6921,-0.7546,-0.983,0.0,-0.9538,-0.7074,0.0,0.0,-0.9467,-1.057,-1.0991,-1.0729,-1.0705,-1.0825,-1.1155,-1.1062,-1.0991,-1.0991,-1.0873,-1.0777,-1.0705,-0.9576,-0.8914,-0.8914,-0.7695,-0.7006,-0.7006,-0.6937,-0.6904,-0.6904,-0.6891,-0.6891,-0.6891,-0.6891,-0.7107,-0.7484,-0.7498,-0.7778,-0.8289,-0.8303,-0.8896,-0.9878,-0.9911,-1.0199,-1.0681,-1.0548,-1.0409,-1.0282,-1.0119,-1.0045,-0.997,-0.9907,-0.983,-0.9754,-0.9626,-0.9805,-1.0087,-1.0154,-1.0071,-0.9855,-0.9309,-0.7584,-0.5345,-0.2859,-0.046,0.2439,0.6935,0.8428,0.9964,1.4027,1.4959,1.499,1.4995,1.4306,1.3681,1.3535,1.3398,1.3243,1.3047,1.3682,1.4111,1.3838,1.3818,1.3654,1.3261,1.3261,1.3378,1.3589,1.3428,1.3158,1.2832,1.3012,1.2813,1.2149,1.205,1.1988,1.1924,1.2687,1.3413,1.4019,1.4761,1.5461,1.6123,1.6246,1.5902,-0.696,-0.6455,0.0,-0.587,0.0,0.0,0.0,-0.8057,0.0,0.0,-1.0008,-0.9679,-0.856,0.0,0.0,-0.9456,-1.0148,-1.0498,-1.0374,-1.0349,-1.0361,-1.0422,-1.0385,-1.0373,-1.0373,-1.0323,-1.0298,-1.0273,-0.9478,-0.893,-0.8836,-0.7974,-0.7448,-0.7357,-0.7336,-0.7315,-0.7315,-0.7039,-0.6878,-0.6835,-0.6487,-0.6583,-0.7029,-0.7306,-0.7478,-0.7636,-0.8354,-0.8848,-0.9156,-0.9416,-0.9603,-0.9701,-0.961,-0.9442,-0.9207,-0.8997,-0.8835,-0.8738,-0.8711,-0.8629,-0.8508,-0.8365,-0.8399,-0.8464,-0.8392,-0.7946,-0.7317,-0.6517,-0.3081,0.0894,0.2991,0.6439,0.9183,0.851,1.0747,1.3397,1.4755,1.5125,1.5197,1.5141,1.4929,1.4731,1.464,1.452,1.4392,1.4278,1.44,1.4478,1.4441,1.4426,1.4314,1.4001,1.3605,1.3575,1.4046,1.3949,1.3776,1.3592,1.3669,1.3445,1.2759,1.2575,1.2721,1.3234,1.3473,1.413,1.5256,1.5535,1.6037,1.6738,1.6825,1.649,-0.6659,-0.6659,0.0,-0.6659,-0.6659,-0.7218,-0.933,0.0,0.0,0.0,0.0,-0.9499,-0.9162,-0.9092,0.0,-0.9309,-0.9605,-0.9814,-0.9762,-0.9658,-0.9607,-0.9777,-0.9777,-0.979,-0.9816,-0.979,-0.979,-0.979,-0.9095,-0.8633,-0.8524,-0.7842,-0.7417,-0.7303,-0.7303,-0.7303,-0.7257,-0.6857,-0.6621,-0.6557,-0.6056,-0.6034,-0.6423,-0.6798,-0.7091,-0.7336,-0.8113,-0.8441,-0.8464,-0.8691,-0.876,-0.8667,-0.8574,-0.8342,-0.8034,-0.7779,-0.7617,-0.7521,-0.7444,-0.7328,-0.7181,-0.6931,-0.6757,-0.6593,-0.6319,-0.5547,-0.4508,-0.3354,0.0198,0.4153,0.6284,0.9452,1.1863,1.1014,1.283,1.4804,1.498,1.5176,1.5295,1.525,1.5265,1.5275,1.5221,1.5133,1.5046,1.5043,1.4814,1.4685,1.4794,1.4832,1.4794,1.4603,1.4188,1.4046,1.4356,1.4306,1.4216,1.4136,1.4123,1.3952,1.354,1.3531,1.3724,1.4134,1.4715,1.5404,1.6192,1.6472,1.6703,1.6868,1.6921,1.6741,-0.6224,-0.6224,0.0,-0.6425,-0.6472,0.0,-0.863,-0.9026,-0.9026,-0.9054,0.0,-0.9054,-0.9026,-0.9026,-0.9054,-0.9026,-0.8999,-0.8971,-0.8999,-0.8739,-0.8717,-0.9158,-0.9209,-0.922,-0.9301,-0.9247,-0.9193,-0.9166,-0.8555,-0.813,-0.8057,-0.7487,-0.7116,-0.7047,-0.7047,-0.7,-0.6938,-0.6514,-0.6285,-0.6199,-0.5664,-0.5551,-0.5822,-0.6125,-0.6647,-0.7283,-0.7639,-0.779,-0.779,-0.7762,-0.7685,-0.754,-0.7425,-0.7163,-0.6819,-0.6545,-0.6411,-0.6289,-0.6075,-0.593,-0.576,-0.5353,-0.499,-0.4597,-0.415,-0.3046,-0.1629,-0.0125,0.2368,0.5146,0.7499,0.9504,1.1462,1.3585,1.4367,1.4671,1.4807,1.5077,1.529,1.5299,1.5355,1.5399,1.5397,1.5344,1.5328,1.5385,1.5037,1.4822,1.5019,1.5085,1.5085,1.5022,1.4841,1.4672,1.4533,1.4522,1.4522,1.4522,1.4405,1.4331,1.4319,1.4677,1.4914,1.4951,1.6195,1.6844,1.6846,1.7326,1.725,1.6659,1.6649,1.6747,-0.567,-0.567,0.0,0.0,-0.7797,-0.7888,-0.8291,-0.8386,-0.8442,-0.8656,-0.8712,-0.8656,-0.8442,-0.8572,-0.8684,-0.8561,-0.8223,-0.8062,-0.8202,-0.8184,-0.8223,-0.8467,-0.8505,-0.8533,-0.8533,-0.8488,-0.8375,-0.8202,-0.8006,-0.7871,-0.7794,-0.7601,-0.745,-0.7404,-0.73,-0.7206,-0.713,-0.6619,-0.6337,-0.6267,-0.573,-0.5624,-0.5872,-0.6055,-0.6444,-0.6973,-0.6907,-0.6883,-0.6883,-0.6832,-0.6674,-0.6515,-0.6364,-0.6121,-0.5791,-0.5449,-0.5237,-0.5048,-0.4745,-0.4529,-0.4375,-0.3965,-0.3501,-0.3006,-0.2615,-0.1367,0.0195,0.147,0.358,0.5859,0.7627,0.9204,1.0657,1.2082,1.3215,1.4055,1.4293,1.4845,1.5309,1.5292,1.5319,1.5346,1.5391,1.5381,1.5379,1.5405,1.531,1.5261,1.5319,1.5274,1.5212,1.5085,1.4987,1.4877,1.4747,1.4737,1.4737,1.4737,1.4654,1.4574,1.4453,1.5189,1.5974,1.6799,1.6565,1.6677,1.7184,1.6636,1.6321,1.6236,1.6182,1.6585,-0.5492,0.0,0.0,-0.7758,0.0,-0.8187,-0.8187,-0.8187,-0.813,-0.7792,-0.808,-0.8329,-0.8015,-0.8072,-0.8176,-0.8156,-0.785,-0.7598,-0.7627,-0.7608,-0.7705,-0.7984,-0.7966,-0.7937,-0.8013,-0.7869,-0.7724,-0.7579,-0.7462,-0.7403,-0.7364,-0.7246,-0.7196,-0.7214,-0.7098,-0.6969,-0.6927,-0.6399,-0.6099,-0.6007,-0.551,-0.5341,-0.5474,-0.5752,-0.5952,-0.6121,-0.586,-0.5698,-0.5643,-0.5581,-0.5463,-0.5313,-0.5143,-0.496,-0.4744,-0.4451,-0.4189,-0.3931,-0.3468,-0.3167,-0.2907,-0.2439,-0.1945,-0.1387,-0.0857,0.0361,0.1865,0.3194,0.4666,0.6241,0.7748,0.8817,0.9767,1.087,1.2415,1.3716,1.4066,1.433,1.4558,1.4858,1.5077,1.5225,1.5241,1.5299,1.5368,1.541,1.5406,1.5405,1.5401,1.5332,1.526,1.5159,1.5113,1.5071,1.5,1.5,1.5,1.5,1.4919,1.4804,1.4607,1.511,1.5882,1.6848,1.6721,1.6802,1.7111,1.6622,1.6199,1.5829,1.6141,1.699,-0.5492,0.0,-0.6084,-0.764,-0.813,0.0,-0.8187,-0.8187,-0.7928,-0.6924,-0.7362,-0.7899,-0.7666,-0.7598,-0.7656,-0.7811,-0.7588,-0.7362,-0.7196,-0.7166,-0.7285,-0.7569,-0.75,-0.7451,-0.7549,-0.7334,-0.7148,-0.7047,-0.6927,-0.6829,-0.6798,-0.6639,-0.6617,-0.6725,-0.6617,-0.6518,-0.6435,-0.6024,-0.5737,-0.5565,-0.5175,-0.4941,-0.4939,-0.5205,-0.5289,-0.5151,-0.482,-0.4622,-0.45,-0.4398,-0.4307,-0.4253,-0.4043,-0.3886,-0.3761,-0.3486,-0.3188,-0.2856,-0.2258,-0.1892,-0.1559,-0.1031,-0.0466,0.01,0.0731,0.1918,0.3293,0.452,0.5522,0.6488,0.7705,0.8365,0.8969,1.0097,1.1812,1.3295,1.3728,1.3682,1.3743,1.4313,1.4785,1.5078,1.5078,1.5196,1.5313,1.5369,1.5374,1.54,1.5408,1.5355,1.5283,1.522,1.5224,1.5224,1.5224,1.5224,1.5224,1.5224,1.5171,1.5023,1.4813,1.4938,1.5371,1.6088,1.659,1.6805,1.6743,1.6544,1.6062,1.5382,1.624,1.7511,-0.5492,0.0,-0.6757,0.0,-0.7763,-0.8187,0.0,0.0,-0.786,0.0,-0.6712,-0.7044,-0.7235,-0.7255,-0.7324,-0.751,-0.7333,-0.7154,-0.7125,-0.7125,-0.7125,-0.7184,-0.7116,-0.7047,-0.6996,-0.6807,-0.6626,-0.6429,-0.6291,-0.616,-0.6068,-0.6037,-0.6006,-0.6044,-0.5952,-0.5859,-0.572,-0.556,-0.5328,-0.5092,-0.4915,-0.4722,-0.4575,-0.4375,-0.443,-0.4666,-0.4333,-0.414,-0.4053,-0.3881,-0.3751,-0.3695,-0.349,-0.3257,-0.2999,-0.2669,-0.2266,-0.1831,-0.1268,-0.0867,-0.0534,-0.0033,0.0569,0.117,0.1667,0.2845,0.4114,0.4581,0.5652,0.673,0.7225,0.7821,0.869,1.026,1.1512,1.2439,1.2662,1.3086,1.3576,1.4054,1.4627,1.5014,1.5014,1.5127,1.5236,1.529,1.5303,1.5332,1.5397,1.5388,1.5359,1.5283,1.5292,1.5292,1.5292,1.5292,1.5292,1.5292,1.5274,1.5229,1.5146,1.5159,1.5204,1.5259,1.5894,1.6192,1.6113,1.5359,1.4895,1.4755,1.6182,1.7748,-0.4734,-0.5138,-0.5407,0.0,-0.6663,-0.7647,-0.7647,0.0,-0.7383,-0.649,-0.6337,-0.649,-0.6885,-0.6975,-0.7035,-0.7205,-0.7065,-0.6924,-0.6924,-0.6794,-0.6725,-0.6816,-0.6626,-0.6504,-0.6551,-0.6352,-0.6168,-0.6029,-0.5828,-0.5672,-0.5585,-0.5453,-0.5421,-0.5446,-0.5397,-0.5334,-0.5264,-0.5144,-0.4928,-0.4672,-0.4494,-0.4333,-0.4145,-0.3811,-0.3811,-0.4075,-0.3686,-0.3467,-0.3307,-0.3064,-0.2933,-0.2867,-0.2699,-0.2468,-0.2172,-0.1804,-0.1405,-0.0937,-0.0368,0.0033,0.0402,0.0905,0.1473,0.2073,0.2692,0.351,0.4355,0.5067,0.5705,0.6382,0.7264,0.8195,0.922,1.0422,1.127,1.1884,1.2257,1.2636,1.3175,1.4127,1.4537,1.4746,1.4823,1.4971,1.5114,1.5236,1.5231,1.5255,1.5278,1.5346,1.5388,1.5359,1.5355,1.5355,1.5355,1.5355,1.5352,1.536,1.537,1.5338,1.53,1.5276,1.5231,1.5215,1.5431,1.5532,1.5491,1.5072,1.4841,1.4822,1.6839,1.8403,-0.3884,-0.424,-0.4158,-0.4313,-0.5358,-0.6366,0.0,0.0,-0.6717,0.0,-0.606,-0.6091,-0.6507,-0.6629,-0.6712,-0.6816,-0.6734,-0.669,-0.669,-0.6482,-0.6352,-0.6413,-0.616,-0.5975,-0.6029,-0.5828,-0.5672,-0.5592,-0.5365,-0.5207,-0.5087,-0.489,-0.4826,-0.4845,-0.4788,-0.4762,-0.4762,-0.4608,-0.442,-0.4156,-0.3951,-0.3751,-0.3597,-0.3196,-0.3093,-0.3225,-0.3003,-0.2808,-0.2616,-0.2377,-0.2208,-0.2139,-0.1971,-0.1705,-0.1406,-0.0971,-0.0536,-0.0101,0.0436,0.0873,0.1244,0.1611,0.2142,0.2739,0.3388,0.3941,0.4526,0.5244,0.5758,0.639,0.7888,0.8921,0.9762,1.0436,1.1062,1.1623,1.2091,1.2439,1.3,1.418,1.4429,1.4488,1.4618,1.4813,1.499,1.5127,1.5159,1.5171,1.5171,1.5283,1.5704,1.6596,1.5915,1.5408,1.5408,1.5409,1.539,1.5403,1.5402,1.5402,1.5402,1.5782,1.5997,1.5986,1.5864,1.5599,1.512,1.5052,1.5228,1.5636,1.7826,1.9399,-0.3229,-0.3931,-0.3911,-0.3931,-0.4005,0.0,0.0,0.0,0.0,0.0,-0.5811,-0.5842,-0.592,-0.616,-0.6315,-0.6345,-0.6345,-0.6315,-0.6315,-0.6199,-0.6068,-0.5944,-0.5758,-0.554,-0.5372,-0.5232,-0.5106,-0.5055,-0.4902,-0.471,-0.4447,-0.4312,-0.4205,-0.4167,-0.4135,-0.4135,-0.4135,-0.3891,-0.37,-0.3532,-0.327,-0.3006,-0.2746,-0.2338,-0.2106,-0.2011,-0.2308,-0.2311,-0.2114,-0.1978,-0.1845,-0.1709,-0.1438,-0.1103,-0.0702,-0.0235,0.0269,0.0773,0.1072,0.1509,0.1914,0.1811,0.2341,0.3035,0.3397,0.4108,0.4788,0.4832,0.578,0.7205,0.9266,0.9816,0.9957,1.0249,1.092,1.1623,1.2091,1.2675,1.3278,1.3984,1.4216,1.4356,1.4494,1.4629,1.4784,1.4982,1.5057,1.5119,1.5119,1.5224,1.6577,1.9873,1.7324,1.5394,1.5394,1.5394,1.5409,1.5403,1.5402,1.5402,1.5402,1.6974,1.786,1.7866,1.778,1.6904,1.5189,1.5133,1.5919,1.7494,1.9087,2.0725,-0.1139,-0.1993,0.0,-0.3683,-0.3765,-0.3689,-0.3869,-0.4252,-0.4723,-0.5246,-0.5312,-0.534,-0.5536,-0.5842,-0.6036,-0.5998,-0.5967,-0.5967,-0.5967,-0.5797,-0.5609,-0.5522,-0.5271,-0.5023,-0.4858,-0.4756,-0.4718,-0.4692,-0.4505,-0.4344,-0.4156,-0.4053,-0.3951,-0.3793,-0.3793,-0.3728,-0.3597,-0.3438,-0.3241,-0.2977,-0.2772,-0.2477,-0.2178,-0.1873,-0.164,-0.1507,-0.1475,-0.1509,-0.1575,-0.1444,-0.1243,-0.1007,-0.067,-0.0268,0.0134,0.0803,0.1241,0.1544,0.1873,0.2073,0.2208,0.2371,0.2834,0.3462,0.414,0.4564,0.4896,0.5309,0.682,0.8477,0.942,0.9788,1.0008,1.0436,1.0897,1.133,1.1667,1.2262,1.2924,1.3636,1.3927,1.4058,1.4114,1.4368,1.4629,1.4784,1.4868,1.5677,1.7838,1.8346,1.9001,2.0307,1.9338,1.8615,1.8615,1.8647,1.8696,1.873,1.8749,1.8747,1.874,1.9342,1.9671,1.9669,1.8559,1.7612,1.6928,1.6919,1.7476,1.859,2.0184,2.1531,0.0,-0.0619,0.0,0.0,0.0,-0.2942,-0.3529,0.0,-0.3986,-0.4758,-0.4858,-0.4896,-0.519,-0.5404,-0.5536,-0.5529,-0.5529,-0.5529,-0.5529,-0.5334,-0.5144,-0.5023,-0.4742,-0.4485,-0.4312,-0.4242,-0.4242,-0.4242,-0.4081,0.0,-0.3826,-0.3728,-0.3565,-0.3307,-0.3237,-0.3138,-0.301,-0.294,-0.2779,-0.2447,-0.2175,-0.1876,-0.1544,-0.1274,-0.1072,-0.0938,-0.0738,-0.0805,-0.1106,-0.0941,-0.0706,-0.0437,0.0,0.047,0.094,0.1607,0.2006,0.2242,0.2474,0.2636,0.2772,0.2966,0.3458,0.414,0.5163,0.5602,0.5859,0.6329,0.7569,0.8889,0.9271,0.9632,0.9995,1.0361,1.0632,1.0944,1.1399,1.197,1.26,1.3295,1.3622,1.3811,1.3811,1.4082,1.4368,1.4596,1.5592,1.7125,1.9348,1.9915,2.019,2.0352,2.0366,2.0366,2.0366,2.0413,2.0469,2.0521,2.0523,2.0533,2.0564,2.0566,2.0566,2.0565,1.9427,1.8828,1.8805,1.8199,1.8617,2.0002,2.1055,2.2288,0.0,0.0,0.0,0.0,0.0,0.0,-0.2896,0.0,-0.3683,-0.4421,-0.4479,-0.4485,-0.4815,-0.4832,-0.4812,-0.4928,-0.496,-0.4992,-0.4992,-0.487,-0.4678,-0.4415,-0.4226,-0.3999,-0.3705,-0.3705,-0.3705,-0.3705,-0.3635,-0.3565,-0.3499,-0.3274,-0.301,-0.2679,-0.2477,-0.2374,-0.2374,-0.2374,-0.2245,-0.1947,-0.1507,-0.1141,-0.0875,-0.0538,-0.0336,-0.0269,-0.0134,-0.0336,-0.0739,-0.0471,-0.0202,0.0067,0.0537,0.1107,0.1676,0.2139,0.2534,0.2834,0.2904,0.3237,0.3602,0.3565,0.4108,0.5068,0.6399,0.7232,0.7695,0.7725,0.7957,0.8358,0.8971,0.9526,0.9905,0.9905,1.0085,1.0523,1.133,1.1863,1.2379,1.2975,1.3362,1.3589,1.3589,1.3748,1.4066,1.4545,1.7293,1.9274,1.9274,1.9569,1.9919,2.0252,2.0296,2.0296,2.0296,2.0296,2.0308,2.0386,2.0392,2.0423,2.0483,2.0492,2.0492,2.0494,2.0506,2.0527,2.0583,1.8841,1.9285,2.1736,2.172,2.3045,-0.0829,0.0,0.0,0.0,0.0,0.0,0.0,0.0,0.0,-0.364,-0.3826,-0.3929,-0.4251,-0.428,-0.4188,-0.4091,-0.4377,-0.4628,-0.4628,-0.4538,-0.435,-0.4123,-0.3928,-0.3737,-0.3565,-0.3565,-0.3565,0.0,-0.3438,-0.334,-0.3204,-0.2805,-0.2474,-0.2281,-0.2111,-0.1976,-0.1909,-0.1909,-0.1676,-0.1209,-0.0974,-0.0638,-0.0235,-0.0101,0.0034,0.0134,0.0235,0.0269,0.0269,0.0269,0.0469,0.0837,0.137,0.1804,0.2242,0.2808,0.3138,0.3348,0.362,0.3822,0.4031,0.435,0.4922,0.5679,0.6529,0.7232,0.7754,0.7986,0.813,0.8432,0.9434,0.9802,0.9905,0.9905,1.0085,1.0523,1.133,1.1733,1.2143,1.2957,1.3173,1.3243,1.3243,1.3478,1.4527,1.701,1.8164,1.8734,1.8734,1.913,1.9569,1.9889,1.9941,1.9941,1.9941,1.9941,1.9952,1.9966,2.0199,2.033,2.0352,2.0404,2.0434,2.0428,2.0474,2.0519,2.0533,2.0075,2.0845,2.2746,2.3936,2.4846,0.0,0.0,0.0,0.0,0.0,0.0,-0.178,-0.201,0.0,0.0,-0.3219,-0.3339,-0.361,-0.3585,-0.3503,-0.336,-0.3632,-0.3935,-0.4135,-0.4086,-0.3956,-0.3793,-0.3635,-0.3508,-0.3368,-0.3368,-0.3368,-0.3368,-0.3241,-0.3006,-0.2709,-0.2242,-0.1907,-0.1778,-0.1644,-0.151,-0.1377,-0.1308,-0.1074,-0.0639,-0.037,-0.0067,0.0303,0.0403,0.0504,0.0639,0.0705,0.0873,0.1074,0.1206,0.134,0.1473,0.1937,0.2371,0.2775,0.3241,0.3504,0.3724,0.4034,0.4243,0.4382,0.4736,0.5302,0.6075,0.7268,0.8289,0.9074,0.927,0.9574,1.004,1.102,1.1299,1.1299,1.1299,1.1532,1.2016,1.2882,1.3165,1.3169,1.2902,1.292,1.339,1.4705,1.5107,1.5936,1.8061,1.8443,1.8485,1.8485,1.8861,1.923,1.956,1.966,1.9744,1.9795,1.9807,1.9807,1.9807,2.0017,2.0145,2.0171,2.0246,2.0294,2.0321,2.0346,2.0406,2.0453,2.0527,2.1414,2.3082,2.4466,2.5068,-0.1109,-0.1428,0.0,0.0,0.0,0.0,-0.1568,-0.1663,-0.1874,0.0,0.0,-0.2724,-0.2874,-0.2829,-0.2783,-0.2735,-0.281,-0.3064,-0.3543,-0.3588,-0.3532,-0.3467,-0.334,-0.3245,-0.3175,-0.3142,-0.3142,-0.3142,-0.294,-0.2573,-0.2047,-0.1642,-0.1373,-0.1238,-0.1108,-0.0976,-0.0808,-0.0672,-0.0471,-0.0168,0.0235,0.0571,0.0773,0.0875,0.1009,0.1145,0.1206,0.1406,0.1707,0.2172,0.2208,0.2011,0.2377,0.2808,0.3274,0.3467,0.3695,0.3958,0.4336,0.4553,0.4752,0.5001,0.5499,0.6348,0.817,0.9724,1.0891,1.0891,1.1463,1.2258,1.3012,1.3198,1.3198,1.3198,1.3506,1.4072,1.5025,1.5283,1.483,1.3171,1.3023,1.4092,1.7004,1.7515,1.7639,1.8044,1.8301,1.8445,1.8485,1.8657,1.8878,1.918,1.9402,1.9611,1.9782,1.9807,1.9807,1.9807,1.9868,1.993,1.9971,2.006,2.0122,2.0185,2.0199,2.0274,2.0405,2.0558,2.1405,2.2884,2.3823,2.4213,-0.1208,-0.1296,-0.1421,-0.1137,0.0,0.0,-0.1049,-0.1143,-0.1297,0.0,-0.1711,-0.1918,-0.2149,-0.2179,-0.2196,-0.2242,-0.2259,-0.2474,-0.3056,-0.321,-0.3241,-0.3171,-0.3138,-0.3076,-0.2882,-0.2882,-0.2849,-0.2812,-0.2411,-0.2011,-0.1642,-0.1241,-0.0974,-0.0907,-0.0706,-0.0504,-0.0269,-0.0168,0.0067,0.0504,0.0706,0.0908,0.1111,0.1179,0.1279,0.1415,0.1544,0.1807,0.2172,0.251,0.258,0.258,0.2977,0.3241,0.3467,0.3602,0.3798,0.4082,0.4691,0.5044,0.5355,0.6122,0.6514,0.6899,0.7852,0.945,1.0891,1.0891,1.1463,1.2258,1.3012,1.3198,1.3198,1.3198,1.3506,1.4007,1.4746,1.5117,1.5272,1.5179,1.5369,1.594,1.728,1.7515,1.7538,1.7616,1.7805,1.8057,1.8445,1.8524,1.8582,1.8641,1.8984,1.9375,1.977,1.9807,1.9807,1.9807,1.982,1.9832,1.9837,1.9969,2.005,2.0125,2.0231,2.0314,2.0395,2.1165,2.1715,2.2051,2.2949,2.3357,-0.1282,-0.1309,-0.1347,-0.1141,0.0,0.0,0.0,-0.095,-0.1068,-0.1129,-0.1311,-0.1482,-0.1637,0.0,-0.1661,-0.17,-0.1767,-0.191,-0.2221,-0.2541,-0.2751,-0.2765,-0.2706,-0.2639,-0.2474,-0.2414,-0.2347,-0.2178,-0.1809,-0.1473,-0.1174,-0.0738,-0.0471,-0.0403,-0.0202,0.0,0.0202,0.037,0.0605,0.0942,0.1142,0.131,0.1444,0.1546,0.1682,0.1816,0.2011,0.2275,0.2577,0.2878,0.3043,0.3105,0.3307,0.3532,0.3728,0.3798,0.4026,0.4323,0.4928,0.5311,0.5645,0.6607,0.7024,0.7399,0.8399,0.9721,1.0891,1.0891,1.1463,1.2258,1.3012,1.3198,1.3198,1.3198,1.3335,1.3641,1.4203,1.4714,1.5208,1.5712,1.5913,1.6234,1.6924,1.7191,1.7354,1.7491,1.7592,1.7828,1.8281,1.8443,1.8524,1.8638,1.8932,1.9266,1.9665,1.9692,1.9692,1.9692,1.977,1.9807,1.9807,1.9854,1.9945,1.9998,2.0125,2.0223,2.0308,2.0847,2.1347,2.1818,2.2252,2.2681,0.0,0.0,0.0,0.0,0.0,-0.0922,0.0,0.0,0.0,-0.0892,0.0,0.0,0.0,0.0,0.0,0.0,0.0,0.0,0.0,-0.1742,0.0,-0.2246,-0.2232,-0.2144,-0.2001,-0.1913,-0.1775,-0.1493,-0.1244,-0.0989,-0.0695,-0.0267,0.0,0.0101,0.0303,0.0471,0.0605,0.0841,0.1076,0.1278,0.1544,0.1709,0.1778,0.1911,0.2047,0.2181,0.2444,0.2679,0.2915,0.3212,0.3438,0.3565,0.3565,0.3695,0.3923,0.4026,0.428,0.4657,0.5227,0.5604,0.5988,0.7005,0.765,0.8239,0.9324,1.0236,1.0891,1.0891,1.1426,1.2174,1.2978,1.3198,1.3198,1.3198,1.3198,1.3301,1.3721,1.4332,1.498,1.5683,1.5799,1.5926,1.6382,1.6717,1.7057,1.7427,1.7515,1.7656,1.8022,1.8281,1.8561,1.8824,1.9002,1.9202,1.9483,1.9497,1.9497,1.9497,1.9652,1.9757,1.9782,1.9795,1.9907,2.0118,2.0245,2.0432,2.0664,2.0807,2.1101,2.1546,2.1702,2.2168,0.0,0.0,0.0,0.0,-0.0916,0.0,0.0,0.0,-0.0462,-0.0462,0.0,0.0,0.0,0.0,0.0,0.0,0.0,0.0,-0.0881,-0.0926,-0.116,-0.1713,-0.1767,-0.172,-0.157,-0.1461,-0.128,-0.1092,-0.0935,-0.0684,-0.028,0.0065,0.0303,0.0437,0.0639,0.0841,0.1043,0.1179,0.1345,0.1542,0.1811,0.1947,0.1981,0.215,0.2317,0.2477,0.2679,0.2948,0.3245,0.3405,0.363,0.3858,0.3733,0.3798,0.4026,0.4253,0.4576,0.4959,0.5678,0.62,0.6747,0.7813,0.8999,1.004,1.0357,1.0667,1.0891,1.0891,1.1201,1.1811,1.2908,1.3198,1.3198,1.3198,1.3198,1.3301,1.3721,1.4332,1.498,1.5683,1.5799,1.5827,1.5885,1.6139,1.6559,1.7378,1.7515,1.7515,1.7569,1.7956,1.8443,1.9002,1.9105,1.9122,1.9153,1.9153,1.9153,1.9153,1.9393,1.9583,1.9718,1.977,2.0145,2.0853,2.1013,2.1488,2.2325,2.2469,2.1871,2.0663,2.1386,2.1755,0.0,0.0,0.0,0.0,0.0,0.0,-0.0565,0.0,-0.0449,0.0,0.0,0.0,0.0,0.0,0.0,0.0,-0.0535,0.0,0.0,0.0,-0.0739,0.0,0.0,0.0,-0.0986,-0.0846,-0.0752,-0.0648,-0.0459,-0.0207,0.0061,0.0456,0.0739,0.0908,0.1142,0.1308,0.1444,0.1579,0.1747,0.1878,0.2178,0.2344,0.2414,0.2577,0.2709,0.2841,0.301,0.3208,0.3447,0.3691,0.3942,0.4191,0.4387,0.4382,0.4307,0.4602,0.4922,0.5316,0.5798,0.6227,0.6803,0.8158,0.9459,1.0505,1.0631,1.0756,1.0891,1.0891,1.1033,1.1463,1.2838,1.3198,1.3198,1.3198,1.3198,1.3301,1.3721,1.4332,1.498,1.5683,1.5799,1.5799,1.5799,1.6026,1.6506,1.7378,1.7515,1.7515,1.7515,1.776,1.8159,1.8696,1.8752,1.8752,1.8752,1.8861,1.8967,1.9087,1.928,1.9431,1.9513,2.0052,2.0504,2.0891,2.1467,2.2023,2.2486,2.2579,2.2317,2.1737,2.2178,2.2668,-0.125,0.0,0.0,0.0,0.0,0.0,0.0,0.0,0.0,0.0,0.0,0.0,0.0,0.0,0.0,0.0,0.0,0.0,0.0,0.0,0.0,0.0,0.0,0.0,0.0,-0.0405,-0.0326,-0.0293,-0.0055,0.02,0.0419,0.0808,0.111,0.1311,0.1577,0.1742,0.1778,0.1974,0.216,0.2333,0.2534,0.2737,0.291,0.2959,0.3068,0.3204,0.3307,0.3469,0.3727,0.4009,0.4317,0.468,0.5063,0.5162,0.5073,0.5273,0.557,0.5938,0.6191,0.6706,0.741,0.8668,0.9787,1.0708,1.0718,1.0805,1.0891,1.0891,1.0891,1.125,1.2803,1.3198,1.3198,1.3198,1.3267,1.3438,1.3754,1.4332,1.498,1.5683,1.5799,1.5799,1.5799,1.6026,1.6506,1.7378,1.7515,1.7515,1.7515,1.7639,1.7878,1.8263,1.8304,1.8304,1.8304,1.8522,1.8965,1.9703,1.984,1.9937,2.0047,2.0668,2.1137,2.1447,2.2152,2.2689,2.3051,2.312,2.3191,2.3261,2.3212,2.355,0.0,0.0,0.0,-0.0376,0.0,0.0,0.0,0.0,-0.027,0.0,0.0,0.0,0.0,0.0,0.0,0.0,0.0,0.0,0.0,0.0,0.0,0.0,0.0,0.0,0.0,-0.0243,-0.0148,0.0,0.0181,0.0447,0.0758,0.1107,0.1378,0.1575,0.1845,0.1981,0.1981,0.2329,0.2603,0.2883,0.2958,0.3108,0.3361,0.3255,0.3303,0.3495,0.3499,0.3745,0.4181,0.4322,0.4738,0.5323,0.5664,0.6059,0.6418,0.6441,0.6622,0.6882,0.7162,0.8038,0.9078,0.951,1.024,1.0881,1.0881,1.0891,1.0891,1.0891,1.0891,1.125,1.2803,1.3198,1.3198,1.3198,1.3506,1.3788,1.3788,1.4332,1.498,1.5683,1.5799,1.5799,1.5799,1.6026,1.6506,1.7378,1.7515,1.7515,1.7515,1.7515,1.7592,1.7811,1.7833,1.7833,1.7833,1.8065,1.9132,2.1295,2.1423,2.148,2.1622,2.1711,2.2201,2.3115,2.3212,2.3742,2.4728,2.4799,2.4866,2.4911,2.4272,2.4013,0.0,0.0,-0.0231,-0.0122,0.0,0.0,0.0,0.0,0.0,0.0,0.0,0.0,0.0,0.0,0.0,0.0,0.0,0.0,0.0,0.0,0.0,0.0,0.0,0.0,0.0,0.0,0.0,0.0,0.0544,0.0,0.1061,0.1483,0.1843,0.2116,0.244,0.2662,0.2787,0.3093,0.3309,0.3418,0.3605,0.3721,0.3875,0.3962,0.4044,0.4112,0.4112,0.426,0.4565,0.4963,0.5419,0.5948,0.6613,0.7095,0.7371,0.6922,0.6913,0.7137,0.7567,0.8306,0.918,0.9639,1.0278,1.0891,1.0891,1.0891,1.0891,1.0891,1.1287,1.2004,1.3254,1.362,1.362,1.362,1.3721,1.3788,1.3788,1.4332,1.498,1.5683,1.5799,1.5799,1.5799,1.6026,1.6506,1.7378,1.7515,1.7515,1.7515,1.7515,1.7538,1.7576,1.7737,1.7811,1.7811,1.8159,1.9253,2.1236,2.2397,2.2566,2.1607,2.21,2.2594,2.2996,2.3583,2.4129,2.4591,2.4673,2.4734,2.4808,2.4657,2.4706,-0.0147,0.0072,0.0,0.0292,0.0254,0.0,0.0054,0.0,0.0,0.0,0.0,0.0,0.0,0.0,0.0,0.0,0.0,0.0,0.0,0.0649,0.0,0.0,0.0,0.0,0.0,0.0,0.036,0.0495,0.0772,0.0,0.0,0.1735,0.2168,0.2498,0.2844,0.3141,0.3394,0.3645,0.3833,0.3956,0.4069,0.4187,0.4343,0.439,0.4476,0.459,0.459,0.4783,0.5142,0.5596,0.6074,0.6679,0.7335,0.7795,0.8031,0.7548,0.7471,0.7698,0.8148,0.8734,0.9385,0.9891,1.0436,1.093,1.1061,1.1212,1.1389,1.1649,1.2041,1.2615,1.3539,1.3788,1.3788,1.3788,1.3788,1.3788,1.3788,1.4138,1.4637,1.5314,1.558,1.5712,1.5799,1.5983,1.6452,1.7354,1.7515,1.7515,1.7515,1.7515,1.7515,1.7515,1.7616,1.7737,1.7789,1.9142,2.0534,2.1785,2.298,2.3235,2.2323,2.2799,2.3153,2.3288,2.3877,2.4248,2.4462,2.4513,2.458,2.466,2.4798,2.4961]},{"header":{"parameterUnit":"m.s-1","parameterCategory":1,"la1":30.6,"la2":29.2853,"lo1":-89.7004,"lo2":-87.6739,"dy":0.0162,"dx":0.0183,"nx":112,"ny":82,"refTime":"2026-05-08T00:00:00:Z","depth":0,"parameterNumber":3,"parameterNumberName":"V-component_of_WINDS"},"data":[0.0,0.0,0.0,0.0,0.0,0.0,0.0,0.0,0.0,0.0,0.0,0.0,0.0,0.0,0.0,0.0,0.0,0.0,0.0,0.0,0.0,0.0,0.0,0.0,0.0,0.0,0.0,0.0,0.0,0.0,0.0,0.0,0.0,0.0,0.0,0.0,0.0,0.0,0.0,0.0,0.0,0.0,0.0,0.0,0.0,0.0,0.0,0.0,0.0,0.0,0.0,0.0,0.0,0.0,0.0,0.0,0.0,0.0,0.0,0.0,0.0,0.0,0.0,0.0,0.0,0.0,0.0,0.0,0.0,0.0,0.0,0.0,0.0,0.0,0.0,0.0,0.0,0.0,0.0,0.0,0.0,0.0,0.0,0.0,0.0,0.0,0.0,0.0,0.0,0.0,-1.3861,-1.5912,-1.7957,-1.8488,-1.6784,-1.5954,-1.4228,-1.1229,0.0,0.0,0.0,0.0,0.0,0.0,0.0,0.0,0.0,0.0,0.0,0.0,0.0,0.0,0.0,0.0,0.0,0.0,0.0,0.0,0.0,0.0,0.0,0.0,0.0,0.0,0.0,0.0,0.0,0.0,0.0,0.0,0.0,0.0,0.0,0.0,0.0,0.0,0.0,0.0,0.0,0.0,0.0,0.0,0.0,0.0,0.0,0.0,0.0,0.0,0.0,0.0,0.0,0.0,0.0,0.0,0.0,0.0,0.0,0.0,0.0,0.0,0.0,0.0,0.0,0.0,0.0,0.0,0.0,0.0,0.0,0.0,0.0,0.0,0.0,0.0,0.0,0.0,0.0,0.0,0.0,0.0,0.0,0.0,0.0,0.0,0.0,0.0,0.0,0.0,0.0,0.0,0.0,0.0,0.0,0.0,0.0,0.0,0.0,0.0,0.0,0.0,0.0,0.0,-1.6403,-1.842,-2.0013,-2.016,-1.8299,-1.7696,-1.6018,-1.2858,0.0,0.0,0.0,0.0,0.0,0.0,0.0,0.0,0.0,0.0,0.0,0.0,0.0,0.0,0.0,0.0,0.0,0.0,0.0,0.0,0.0,0.0,0.0,0.0,0.0,0.0,0.0,0.0,0.0,0.0,0.0,0.0,0.0,0.0,0.0,0.0,0.0,0.0,0.0,0.0,0.0,0.0,0.0,0.0,0.0,0.0,0.0,0.0,0.0,0.0,0.0,0.0,0.0,0.0,0.0,0.0,0.0,0.0,0.0,0.0,0.0,0.0,0.0,0.0,0.0,0.0,0.0,0.0,0.0,0.0,0.0,0.0,0.0,0.0,0.0,0.0,0.0,0.0,0.0,0.0,0.0,0.0,0.0,0.0,0.0,0.0,0.0,0.0,0.0,0.0,0.0,0.0,0.0,0.0,0.0,0.0,0.0,0.0,0.0,0.0,0.0,0.0,0.0,-1.6779,-1.8557,-1.9321,-2.0645,-2.0716,-1.8861,-1.7855,-1.6138,-1.3329,-1.0841,0.0,0.0,0.0,0.0,0.0,0.0,0.0,0.0,0.0,0.0,0.0,0.0,0.0,0.0,0.0,0.0,0.0,0.0,0.0,0.0,0.0,0.0,0.0,0.0,0.0,0.0,0.0,0.0,0.0,0.0,0.0,0.0,0.0,0.0,0.0,0.0,0.0,0.0,0.0,0.0,0.0,0.0,0.0,0.0,0.0,0.0,0.0,0.0,0.0,0.0,0.0,0.0,0.0,0.0,0.0,0.0,0.0,0.0,0.0,0.0,0.0,0.0,0.0,0.0,0.0,0.0,0.0,0.0,0.0,0.0,0.0,0.0,0.0,0.0,0.0,0.0,0.0,0.0,0.0,0.0,0.0,0.0,0.0,0.0,0.0,0.0,0.0,0.0,0.0,0.0,0.0,0.0,0.0,0.0,0.0,0.0,0.0,0.0,0.0,0.0,0.0,0.0,-1.857,-2.0102,-1.9861,-2.087,-2.0898,-1.9263,-1.7983,-1.62,-1.3695,-1.1598,0.0,0.0,0.0,0.0,0.0,0.0,0.0,0.0,0.0,0.0,0.0,0.0,0.0,0.0,0.0,0.0,0.0,0.0,0.0,0.0,0.0,0.0,0.0,0.0,0.0,0.0,0.0,0.0,0.0,0.0,0.0,0.0,0.0,0.0,0.0,0.0,0.0,0.0,0.0,0.0,0.0,0.0,0.0,0.0,0.0,0.0,0.0,0.0,0.0,0.0,0.0,0.0,0.0,0.0,0.0,0.0,0.0,0.0,0.0,0.0,0.0,0.0,0.0,0.0,0.0,0.0,0.0,0.0,0.0,0.0,0.0,0.0,0.0,0.0,0.0,0.0,0.0,0.0,0.0,0.0,0.0,0.0,0.0,0.0,0.0,0.0,0.0,0.0,0.0,0.0,0.0,0.0,0.0,0.0,0.0,0.0,0.0,0.0,0.0,0.0,0.0,0.0,-1.9179,-2.0678,-2.0547,-2.113,-2.1043,-1.9932,-1.8878,-1.7132,-1.4404,-1.2009,0.0,0.0,0.0,0.0,0.0,0.0,0.0,0.0,0.0,0.0,0.0,0.0,0.0,0.0,0.0,0.0,0.0,0.0,0.0,0.0,0.0,0.0,0.0,0.0,0.0,0.0,0.0,0.0,0.0,0.0,0.0,0.0,0.0,0.0,0.0,0.0,0.0,0.0,0.0,0.0,0.0,0.0,0.0,0.0,0.0,0.0,0.0,0.0,0.0,0.0,0.0,0.0,0.0,0.0,0.0,0.0,0.0,0.0,0.0,0.0,0.0,0.0,0.0,0.0,0.0,0.0,0.0,0.0,0.0,0.0,0.0,0.0,0.0,0.0,0.0,0.0,0.0,0.0,0.0,0.0,0.0,0.0,0.0,0.0,0.0,0.0,0.0,0.0,0.0,0.0,0.0,0.0,0.0,0.0,0.0,0.0,0.0,0.0,0.0,0.0,0.0,0.0,-1.9319,-2.0717,0.0,-2.0678,-2.0652,-1.9671,-1.8121,-1.6303,-1.4183,0.0,0.0,0.0,0.0,0.0,0.0,0.0,0.0,0.0,0.0,0.0,0.0,0.0,0.0,0.0,0.0,0.0,0.0,0.0,0.0,0.0,0.0,0.0,0.0,0.0,0.0,0.0,0.0,0.0,0.0,0.0,0.0,0.0,0.0,0.0,0.0,0.0,0.0,0.0,0.0,0.0,0.0,0.0,0.0,0.0,0.0,0.0,0.0,0.0,0.0,0.0,0.0,0.0,0.0,0.0,0.0,0.0,0.0,0.0,0.0,0.0,0.0,0.0,0.0,0.0,0.0,0.0,0.0,0.0,0.0,0.0,0.0,0.0,0.0,0.0,0.0,0.0,0.0,0.0,0.0,0.0,0.0,0.0,0.0,0.0,0.0,0.0,0.0,0.0,0.0,0.0,0.0,0.0,0.0,0.0,0.0,0.0,0.0,0.0,0.0,0.0,0.0,-1.7118,-1.9082,-2.0169,0.0,-2.0264,-2.0268,-1.9578,-1.7784,-1.5936,-1.4172,0.0,0.0,0.0,0.0,0.0,0.0,0.0,0.0,0.0,0.0,0.0,0.0,0.0,0.0,0.0,0.0,0.0,0.0,0.0,0.0,0.0,0.0,0.0,0.0,0.0,0.0,0.0,0.0,0.0,0.0,0.0,0.0,0.0,0.0,0.0,0.0,0.0,0.0,0.0,0.0,0.0,0.0,0.0,0.0,0.0,0.0,0.0,0.0,0.0,0.0,0.0,0.0,0.0,0.0,0.0,0.0,0.0,0.0,0.0,0.0,0.0,0.0,0.0,0.0,0.0,0.0,0.0,0.0,0.0,0.0,0.0,0.0,0.0,0.0,0.0,0.0,0.0,0.0,0.0,0.0,0.0,0.0,0.0,0.0,0.0,0.0,0.0,0.0,0.0,0.0,0.0,0.0,0.0,0.0,0.0,0.0,0.0,0.0,0.0,0.0,0.0,0.0,-1.7648,-1.8432,-1.9037,-1.9918,-2.0009,-1.9958,-1.9801,-1.8143,-1.6324,0.0,0.0,0.0,0.0,0.0,0.0,0.0,0.0,0.0,0.0,0.0,0.0,0.0,0.0,0.0,0.0,0.0,0.0,0.0,0.0,0.0,0.0,0.0,0.0,0.0,0.0,0.0,0.0,0.0,0.0,0.0,0.0,0.0,0.0,0.0,0.0,0.0,0.0,0.0,0.0,0.0,0.0,0.0,0.0,0.0,0.0,0.0,0.0,0.0,0.0,0.0,0.0,0.0,0.0,0.0,0.0,0.0,0.0,0.0,0.0,0.0,0.0,0.0,0.0,0.0,0.0,0.0,0.0,0.0,0.0,0.0,0.0,0.0,0.0,0.0,0.0,0.0,0.0,0.0,0.0,0.0,0.0,0.0,0.0,0.0,0.0,0.0,0.0,0.0,0.0,0.0,0.0,0.0,0.0,0.0,0.0,0.0,0.0,0.0,0.0,0.0,0.0,0.0,-1.6545,-1.7937,-1.9107,-1.9993,-2.0069,-2.0039,-1.9945,-1.8241,-1.6418,-1.4652,0.0,0.0,0.0,0.0,0.0,0.0,0.0,0.0,0.0,0.0,0.0,0.0,0.0,0.0,0.0,0.0,0.0,0.0,0.0,0.0,0.0,0.0,0.0,0.0,0.0,0.0,0.0,0.0,0.0,0.0,0.0,0.0,0.0,0.0,0.0,0.0,0.0,0.0,0.0,0.0,0.0,0.0,0.0,0.0,0.0,0.0,0.0,0.0,0.0,0.0,0.0,0.0,0.0,0.0,0.0,0.0,0.0,0.0,0.0,0.0,0.0,0.0,0.0,0.0,0.0,0.0,0.0,0.0,0.0,0.0,0.0,0.0,0.0,0.0,0.0,0.0,0.0,0.0,0.0,0.0,0.0,0.0,0.0,0.0,0.0,0.0,0.0,0.0,0.0,0.0,0.0,0.0,0.0,0.0,0.0,0.0,0.0,0.0,0.0,0.0,0.0,0.0,-1.6153,-1.7517,-1.8781,-2.0012,-2.0144,-2.0117,-2.0058,-1.8361,-1.6701,-1.5248,0.0,0.0,0.0,0.0,0.0,0.0,0.0,0.0,0.0,0.0,0.0,0.0,0.0,0.0,0.0,0.0,0.0,0.0,0.0,0.0,0.0,0.0,0.0,0.0,0.0,0.0,0.0,0.0,0.0,0.0,0.0,0.0,0.0,0.0,0.0,0.0,0.0,0.0,0.0,0.0,0.0,0.0,0.0,0.0,0.0,0.0,0.0,0.0,0.0,0.0,0.0,0.0,0.0,0.0,0.0,0.0,0.0,0.0,0.0,0.0,0.0,0.0,0.0,0.0,0.0,0.0,0.0,0.0,0.0,0.0,0.0,0.0,0.0,0.0,0.0,0.0,0.0,0.0,0.0,0.0,0.0,0.0,0.0,0.0,0.0,0.0,0.0,0.0,0.0,0.0,0.0,0.0,0.0,0.0,0.0,0.0,0.0,0.0,0.0,0.0,0.0,0.0,-1.6246,-1.7221,-1.8259,-2.0009,-2.0205,-2.0169,-2.0108,-1.8507,-1.7084,-1.6072,0.0,0.0,0.0,0.0,0.0,0.0,0.0,0.0,0.0,0.0,0.0,0.0,0.0,0.0,0.0,0.0,0.0,0.0,0.0,0.0,0.0,0.0,0.0,0.0,0.0,0.0,0.0,0.0,0.0,0.0,0.0,0.0,0.0,0.0,0.0,0.0,0.0,0.0,0.0,0.0,0.0,0.0,0.0,0.0,0.0,0.0,0.0,0.0,0.0,0.0,0.0,0.0,0.0,0.0,0.0,0.0,0.0,0.0,0.0,0.0,-0.6845,0.0,0.0,0.0,0.0,0.0,0.0,0.0,0.0,0.0,0.0,0.0,0.0,0.0,0.0,0.0,0.0,0.0,0.0,0.0,0.0,0.0,0.0,0.0,0.0,0.0,0.0,0.0,0.0,0.0,0.0,0.0,0.0,0.0,0.0,0.0,0.0,0.0,0.0,0.0,0.0,0.0,-1.6048,-1.7175,-1.8337,-2.0022,-2.0203,-2.0186,-2.0183,-1.8543,-1.712,-1.6205,-1.3003,0.0,0.0,0.0,0.0,0.0,0.0,0.0,0.0,0.0,0.0,0.0,0.0,0.0,0.0,0.0,0.0,0.0,0.0,0.0,0.0,0.0,0.0,0.0,0.0,0.0,0.0,0.0,0.0,0.0,0.0,0.0,0.0,0.0,0.0,0.0,0.0,0.0,0.0,0.0,0.0,0.0,0.0,0.0,0.0,0.0,0.0,0.0,0.0,0.0,0.0,0.0,0.0,0.0,0.0,0.0,0.0,0.0,0.0,0.0,0.0,-1.1069,0.0,0.0,0.0,0.0,0.0,0.0,0.0,0.0,0.0,0.0,0.0,0.0,0.0,0.0,0.0,0.0,0.0,0.0,0.0,0.0,0.0,0.0,0.0,0.0,0.0,0.0,0.0,0.0,0.0,0.0,0.0,0.0,0.0,0.0,0.0,0.0,0.0,0.0,0.0,0.0,-1.6021,-1.7533,-1.8823,-2.01,-2.0246,-2.0241,-2.0199,-1.8958,-1.7799,-1.6883,-1.4406,0.0,0.0,0.0,0.0,0.0,0.0,0.0,0.0,0.0,0.0,0.0,0.0,0.0,0.0,0.0,0.0,0.0,0.0,0.0,0.0,0.0,0.0,0.0,0.0,0.0,0.0,0.0,0.0,0.0,0.0,0.0,0.0,0.0,0.0,0.0,0.0,0.0,0.0,0.0,0.0,0.0,0.0,0.0,0.0,0.0,0.0,0.0,0.0,0.0,0.0,0.0,0.0,0.0,-1.3556,-1.2396,-1.0321,-1.2941,-1.4176,-1.4298,-1.4611,-1.4813,-1.4866,-1.4332,0.0,0.0,0.0,0.0,0.0,0.0,0.0,0.0,0.0,0.0,0.0,0.0,0.0,0.0,0.0,0.0,0.0,0.0,0.0,0.0,0.0,0.0,0.0,0.0,-1.6016,-1.4849,-1.1555,0.0,0.0,0.0,0.0,0.0,0.0,0.0,0.0,0.0,0.0,0.0,-1.6292,-1.801,-1.934,-2.0207,-2.03,-2.0277,-2.0216,-1.9402,-1.8508,-1.7583,-1.594,-1.4573,0.0,0.0,0.0,0.0,0.0,0.0,0.0,0.0,0.0,0.0,0.0,0.0,0.0,0.0,0.0,0.0,0.0,0.0,0.0,0.0,0.0,0.0,0.0,0.0,0.0,0.0,0.0,0.0,0.0,0.0,0.0,0.0,-0.627,-0.6566,0.0,0.0,0.0,0.0,0.0,0.0,0.0,0.0,0.0,0.0,0.0,0.0,0.0,-1.187,-1.2243,-1.2616,-1.4059,-1.654,-1.654,-1.6464,-1.6354,-1.6774,-1.6963,-1.7009,-1.7219,0.0,-1.7968,-1.5223,0.0,0.0,0.0,0.0,0.0,0.0,0.0,0.0,0.0,0.0,0.0,0.0,0.0,0.0,0.0,0.0,0.0,0.0,0.0,0.0,0.0,0.0,-1.9906,-1.9848,-1.8653,-1.7004,0.0,-1.4492,-1.4424,-1.4475,-1.2113,0.0,0.0,0.0,0.0,0.0,0.0,0.0,-1.7196,-1.8383,-1.934,-2.0207,-2.03,-2.0277,-2.0216,-1.9402,-1.8527,-1.7638,-1.5956,-1.4605,-1.3709,-1.1918,0.0,0.0,0.0,0.0,0.0,0.0,0.0,0.0,0.0,0.0,0.0,0.0,0.0,0.0,0.0,0.0,0.0,0.0,0.0,0.0,0.0,0.0,0.0,0.0,0.0,0.0,0.0,0.0,0.0,-0.4486,-0.6815,-0.7266,-0.7314,-0.6867,0.0,0.0,0.0,0.0,0.0,0.0,0.0,0.0,0.0,-1.2743,-1.2811,-1.2811,-1.2811,-1.4213,-1.5567,-1.6821,-1.6991,-1.7232,-1.7515,-1.7515,-1.7515,-1.7498,-1.7698,-1.8053,-1.8358,-1.7223,-1.6738,-1.6576,0.0,0.0,0.0,0.0,-1.4755,-1.5272,-1.7212,-1.7941,-1.8005,-1.8082,0.0,0.0,0.0,0.0,0.0,0.0,0.0,0.0,0.0,0.0,-2.0591,-2.0564,-1.9973,-1.8932,-1.7151,-1.5974,-1.5269,0.0,-1.3537,-1.2069,-1.2061,0.0,0.0,0.0,0.0,-1.6117,-1.821,-1.9219,-1.9875,-2.026,-2.0289,-2.0277,-2.0216,-1.9402,-1.8535,-1.7663,-1.6464,-1.5384,-1.4464,-1.2792,-1.1373,0.0,0.0,0.0,0.0,0.0,0.0,0.0,0.0,0.0,0.0,0.0,0.0,0.0,0.0,0.0,0.0,0.0,0.0,0.0,0.0,0.0,0.0,0.0,0.0,0.0,0.0,0.0,0.0,-0.4859,-0.6523,-0.769,-0.7811,-0.7811,0.0,0.0,0.0,0.0,0.0,0.0,-1.1721,-1.1961,-1.2291,-1.2776,-1.3524,-1.3897,-1.3897,-1.5694,-1.6543,-1.6409,-1.6795,-1.7158,-1.7515,-1.7515,-1.7515,-1.7498,-1.7669,-1.7828,-1.8065,-1.8542,-1.8751,-1.8556,-1.6221,-1.5397,-1.5533,-1.5678,-1.5919,-1.6536,-1.9068,-1.9996,-2.0089,-2.0208,-1.9726,-1.862,-1.6043,0.0,0.0,0.0,0.0,-1.5601,-1.65,-1.8666,-2.0599,-2.0602,-2.0367,-1.9799,-1.8511,-1.7077,-1.5896,0.0,-1.4388,-1.3632,-1.3694,0.0,0.0,0.0,0.0,-1.7374,-1.8905,-1.9819,-2.034,-2.0327,-2.0311,-2.0196,-1.9926,-1.9276,-1.8447,-1.7363,-1.6724,-1.5994,-1.5061,-1.3614,-1.233,-1.1277,0.0,0.0,0.0,0.0,0.0,0.0,0.0,0.0,0.0,0.0,0.0,0.0,0.0,0.0,0.0,0.0,0.0,0.0,0.0,0.0,0.0,0.0,0.0,0.0,0.0,0.0,0.0,0.0,0.0,-0.9429,-0.9755,0.0,0.0,0.0,0.0,-1.1256,-1.1482,-1.1913,-1.2684,-1.2738,-1.2773,-1.2811,-1.547,-1.6881,-1.6881,-1.669,-1.6355,-1.5856,-1.6382,-1.6949,-1.7515,-1.7515,-1.7515,-1.7515,-1.7498,-1.7522,-1.7592,-1.8243,-1.8638,-1.877,-1.8627,-1.8681,-1.8885,-1.9008,-1.9191,-1.9401,-1.9713,-1.9892,-2.0015,-2.0089,-1.804,-1.5507,-1.5276,-1.512,0.0,0.0,-1.5408,-1.6152,-1.9473,-2.0469,-2.0605,-2.0598,-1.9724,-1.8945,-1.9102,-1.8416,-1.7272,0.0,-1.4425,-1.3761,-1.3947,0.0,-1.4248,-1.5151,-1.6692,-1.8076,-1.8977,-1.9859,-2.0396,-2.0386,-2.0334,-1.9952,-1.9126,-1.8966,-1.8206,-1.6563,-1.6426,-1.6002,-1.5128,-1.423,-1.3266,-1.2255,-1.0461,0.0,0.0,0.0,0.0,0.0,0.0,0.0,0.0,0.0,0.0,0.0,0.0,0.0,0.0,0.0,0.0,0.0,0.0,0.0,0.0,0.0,0.0,0.0,0.0,0.0,0.0,0.0,0.0,-0.9728,-1.0034,0.0,-1.0411,-1.0753,-1.1108,-1.1466,-1.1578,-1.1718,-1.194,-1.1961,-1.272,-1.4367,-1.54,-1.594,-1.594,-1.5826,-1.5784,-1.5799,-1.6179,-1.6559,-1.6908,-1.6908,-1.6908,-1.6949,-1.7141,-1.733,-1.7522,-1.79,-1.8365,-1.8788,-1.8788,-1.8914,-1.9104,-1.9152,-1.9219,-1.9298,-1.9427,-1.9707,-2.0036,-2.0222,-1.9495,-1.8491,-1.8351,-1.8405,-1.8525,-1.8601,-1.8648,-1.8977,-2.0211,-2.0547,-2.0545,-2.0536,-2.0207,-1.9528,-1.8145,-1.8784,-1.8789,-1.5917,-1.5519,-1.5822,-1.6473,-1.6074,-1.6165,-1.7587,-1.8324,-1.9016,-1.989,-2.0219,-2.0399,-2.0404,-1.9883,-1.9387,-1.9027,-1.7939,-1.7039,-1.6443,-1.5861,-1.5414,-1.5107,-1.4795,-1.4207,-1.3282,-1.2635,-1.159,0.0,0.0,0.0,0.0,0.0,0.0,0.0,0.0,0.0,0.0,0.0,0.0,0.0,0.0,0.0,0.0,0.0,0.0,0.0,0.0,0.0,0.0,0.0,0.0,0.0,0.0,-0.9791,-1.0878,-1.1391,-1.1818,-1.2205,-1.2427,-1.2581,-1.2773,-1.2581,-1.2336,-1.2085,-1.2059,-1.2858,-1.455,-1.4592,-1.4592,-1.4592,-1.4825,-1.5641,-1.6912,-1.7086,-1.7349,-1.7635,-1.7635,-1.7635,-1.7664,-1.813,-1.8589,-1.8958,-1.9094,-1.9403,-1.9734,-1.8926,-1.8732,-1.8914,-1.8967,-1.9002,-1.9036,-1.9311,-1.9668,-2.0036,-2.03,-2.033,-2.026,-2.0078,-2.0127,-2.0241,-2.0345,-2.0399,-2.0446,-2.0463,-2.0476,-2.0476,-2.0476,-1.9589,-1.8484,-1.7573,-1.8152,-1.8386,-1.6848,-1.6621,-1.6792,-1.7078,-1.6843,-1.7131,-1.8581,-1.9031,-1.9517,-2.0391,-2.0467,-2.0329,-2.0025,-1.9483,-1.8888,-1.8247,-1.7105,-1.6311,-1.6003,-1.519,-1.4839,-1.512,-1.4846,-1.4431,-1.3844,-1.3252,-1.2243,-1.079,0.0,0.0,0.0,0.0,0.0,0.0,0.0,0.0,0.0,0.0,0.0,0.0,0.0,0.0,0.0,0.0,0.0,0.0,0.0,0.0,0.0,0.0,0.0,-0.9738,-0.9905,-1.0706,-1.2935,-1.3828,-1.4525,-1.5178,-1.5253,-1.5253,-1.5283,-1.4651,-1.396,-1.3232,-1.3198,-1.3198,-1.3198,-1.3198,-1.3198,-1.3198,-1.3927,-1.5895,-1.9064,-1.9064,-1.9288,-1.969,-1.969,-1.969,-1.9762,-2.0478,-2.1166,-2.1768,-2.1768,-2.1768,-2.1545,-1.9216,-1.8385,-1.8485,-1.8695,-1.8788,-1.8878,-1.939,-1.977,-2.0015,-2.0227,-2.0285,-2.0269,-2.0144,-2.0117,-2.0135,-2.026,-2.0285,-2.0319,-2.0379,-2.0392,-2.0354,-2.0263,-1.7692,-1.5762,-1.7458,-1.6538,-1.6057,-1.8256,-1.7612,-1.6445,-1.5621,-1.6158,-1.6999,-1.7868,-1.8659,0.0,-2.0301,-2.0421,-2.0103,-1.9259,-1.9133,-1.8434,-1.6732,-1.6527,-1.6105,-1.5264,-1.4384,-1.428,-1.5158,-1.4353,-1.3913,-1.3939,-1.2265,-1.0954,-1.009,0.0,0.0,0.0,0.0,0.0,0.0,0.0,0.0,0.0,0.0,0.0,0.0,0.0,0.0,0.0,0.0,0.0,0.0,0.0,0.0,0.0,-0.7801,-0.8516,-0.9485,-0.9617,-1.0408,-1.2594,-1.3012,-1.3323,-1.3749,-1.4026,-1.43,-1.4556,-1.417,-1.3708,-1.3232,-1.3198,-1.3198,-1.3198,-1.3198,-1.3198,-1.3198,-1.3674,-1.5402,-1.8228,-1.8542,-1.9026,-1.969,-1.969,-1.969,-1.9726,-2.022,-2.0695,-2.1071,-2.1071,-2.1071,-2.1054,-2.0874,-1.9572,-1.7805,-1.7992,-1.8368,-1.8843,-1.9137,-1.945,-1.9757,-2.0004,-2.0117,-2.0171,-2.0277,-2.0281,-2.0216,-2.0117,-2.0077,-2.0107,-2.0162,-2.0169,-1.9583,-1.7135,-1.583,-1.5299,-1.5766,-1.5584,-1.5523,-1.6203,-1.6534,-1.6823,-1.7225,-1.6952,-1.7004,-1.788,-1.8195,0.0,-1.8661,-1.8684,-1.8593,-1.8358,-1.7764,-1.7175,-1.6645,-1.5993,-1.5536,-1.5283,-1.4449,-1.4342,-1.5177,-1.4354,-1.4198,-1.4832,-1.3745,-1.275,0.0,0.0,0.0,0.0,0.0,0.0,0.0,0.0,0.0,0.0,0.0,0.0,0.0,0.0,0.0,0.0,0.0,0.0,0.0,0.0,0.0,0.0,-0.7889,-0.8416,-0.9678,-0.9988,-1.0552,-1.1807,-1.1943,-1.2016,-1.2222,-1.2908,-1.3472,-1.3795,-1.3674,-1.3438,-1.3198,-1.3198,-1.3198,-1.3198,-1.3198,-1.3198,-1.3198,-1.4368,-1.5724,-1.7323,-1.7949,-1.8683,-1.9472,-1.9472,-1.9472,-1.9472,-1.969,-1.9995,-2.0342,-2.0342,-1.971,0.0,0.0,0.0,0.0,0.0,-1.8263,-1.8714,-1.9002,-1.9248,-1.9504,-1.9751,-1.993,-2.0108,-2.0308,-2.0277,-2.0155,-2.0026,-2.0012,-2.0004,-2.0048,-2.0079,-1.9611,-1.7652,-1.6124,-1.5092,-1.5092,-1.5176,-1.5284,-1.5354,-1.5773,0.0,-1.6779,-1.6775,-1.6875,-1.7383,-1.7779,-1.7996,-1.7997,-1.8006,-1.7852,-1.748,-1.6991,-1.6536,-1.6124,-1.5627,0.0,0.0,0.0,-1.4239,-1.4671,-1.453,0.0,0.0,0.0,0.0,0.0,0.0,0.0,0.0,-1.0958,-1.1434,0.0,0.0,0.0,0.0,0.0,0.0,0.0,0.0,0.0,0.0,0.0,0.0,0.0,0.0,0.0,0.0,-0.7663,-0.8383,-0.9954,-1.0448,-1.0728,-1.0805,-1.0843,-1.0843,-1.0843,-1.1833,-1.2627,-1.2908,-1.2943,-1.2943,-1.2943,0.0,0.0,0.0,0.0,-1.3129,-1.3129,-1.5337,-1.6436,-1.6522,-1.7406,-1.8214,-1.895,-1.895,-1.895,-1.8988,-1.9026,-1.909,-1.9135,-1.917,-1.7879,-1.5942,-1.6795,-1.7281,-1.7545,-1.7956,-1.8277,-1.8542,-1.8949,0.0,0.0,-1.9497,-1.9731,-1.9993,-2.0201,-2.0146,-2.0012,-2.0012,-2.0012,-2.0012,-2.0012,-2.0048,-2.0098,-2.0108,-1.7538,-1.5092,-1.5092,-1.5153,-1.5212,-1.5289,-1.5295,-1.5306,-1.5307,-1.5994,-1.6558,-1.6559,-1.7207,-1.7712,-1.7712,-1.7714,-1.7402,-1.6641,0.0,0.0,-1.5467,-1.5401,-1.5394,-1.5395,-1.4664,-1.4166,-1.4015,-1.4777,-1.4838,-1.406,-1.406,-1.3665,-1.2886,-1.2954,-1.3344,-1.4044,-1.3099,-1.31,0.0,0.0,0.0,0.0,0.0,0.0,0.0,0.0,0.0,0.0,0.0,0.0,0.0,0.0,0.0,-0.8131,-0.8694,-0.8875,-0.9213,-0.9337,-0.9616,-1.0322,-1.04,-1.04,-1.04,-1.0909,-1.1287,-1.1325,-1.1362,-1.1362,-1.1362,-1.166,-1.2136,-1.278,-1.2815,-1.2815,-1.2815,-1.489,-1.6132,-1.6522,0.0,0.0,-1.8109,-1.8109,-1.8109,-1.8149,-1.8478,-1.7511,-1.577,-1.6039,-1.6144,-1.6222,-1.7092,-1.7451,-1.7498,-1.7592,-1.7912,-1.8339,-1.8896,-1.912,-1.9153,-1.9186,-1.9405,-1.9731,-1.9982,-2.0026,0.0,-2.0012,-2.0012,-2.0012,-2.0012,-2.0004,-2.0028,-2.0089,-1.7538,-1.5092,-1.5092,-1.5146,-1.5204,-1.5215,-1.5251,-1.5306,-1.5303,-1.5491,-1.5658,-1.5648,-1.5793,-1.5895,-1.5897,-1.5898,-1.584,-1.5664,-1.5644,-1.5586,-1.541,-1.541,-1.5408,-1.5401,-1.5238,-1.4805,-1.4033,-1.483,-1.5183,-1.4945,-1.494,-1.4863,-1.4709,-1.4709,-1.481,-1.5008,-1.4077,-1.4061,0.0,0.0,0.0,0.0,0.0,0.0,0.0,0.0,0.0,0.0,0.0,-0.1084,-0.1637,0.0,-0.4865,-0.7551,-0.8193,-0.8365,-0.8365,-0.8365,-0.8692,-0.9527,-0.9646,-0.9646,-0.9646,-0.9813,-0.9932,-0.9932,-0.9932,-0.9932,-0.9932,-1.0554,-1.1588,-1.3095,-1.2262,-1.1796,-1.1796,-1.4224,-1.5812,-1.6522,-1.6735,-1.6989,-1.7199,-1.7199,-1.6612,-1.5562,-1.5748,-1.514,-1.4059,-1.4932,-1.5477,-1.5827,-1.6409,-1.6924,-1.7306,-1.7451,-1.7708,-1.8091,-1.862,-1.8878,-1.8949,-1.8949,-1.9137,-1.9405,-1.9718,-1.9795,-1.9795,-1.9795,-1.9844,-1.9915,-1.9971,-1.8762,-1.7511,-1.7546,-1.6292,-1.5092,-1.5092,-1.5146,-1.5189,-1.5189,-1.5237,-1.525,-1.5255,-1.5319,-1.5359,-1.5392,-1.5394,-1.5402,-1.5403,-1.5406,-1.5409,-1.5391,-1.5391,-1.5391,-1.5391,-1.5391,-1.539,-1.5408,-1.5395,-1.517,-1.4679,-1.507,-1.5086,-1.4608,-1.4989,-1.5008,-1.4603,-1.5033,-1.5274,-1.5294,-1.5224,-1.5401,0.0,0.0,0.0,0.0,0.0,0.0,0.0,0.0,-0.0091,-0.07,-0.1084,-0.145,-0.2012,-0.298,-0.4338,-0.6412,-0.7076,-0.7293,-0.7293,-0.7293,-0.7621,-0.8398,-0.8651,-0.8732,-0.8732,-0.8732,-0.8732,-0.8732,-0.8732,-0.8732,-0.8732,-0.9487,-1.0981,-1.3226,-1.157,-1.0661,-1.0661,-1.3325,-1.5085,-1.5932,-1.602,-1.6207,-1.6337,-1.5944,-1.4824,-1.3198,-1.3198,-1.3232,-1.3404,-1.4606,-1.5147,-1.5238,-1.5654,-1.6234,-1.6914,-1.733,-1.7599,-1.7789,-1.8163,-1.8445,-1.862,-1.8751,-1.8914,-1.9104,-1.9424,-1.9497,-1.9497,-1.9497,-1.9592,-1.9588,-1.9111,-1.6971,-1.4949,-1.4982,-1.5019,-1.5071,-1.5078,-1.5139,-1.5172,-1.5172,-1.5197,-1.5201,-1.5196,-1.5241,-1.5306,-1.5368,-1.5383,-1.5398,-1.54,-1.5401,-1.5405,-1.539,-1.5391,-1.5391,-1.5391,-1.5391,-1.5391,-1.5391,-1.5407,-1.5387,-1.531,-1.5303,-1.4964,-1.427,-1.4883,-1.4903,-1.4246,-1.4951,-1.54,-1.5574,-1.6226,-1.6474,0.3307,0.2696,0.1769,0.0677,0.0719,0.1139,0.0,0.0,0.0043,-0.1088,-0.169,-0.202,-0.2073,-0.2924,-0.4101,-0.5615,-0.589,-0.5933,-0.5933,-0.5933,-0.6105,-0.6623,-0.7377,-0.7836,-0.7836,-0.7836,-0.7836,-0.7836,-0.7836,-0.7836,-0.7836,-0.8324,-0.9753,-1.2169,-1.0689,-0.9841,-0.9841,-1.2057,-1.3392,-1.3931,-1.4408,-1.5062,-1.582,-1.3966,-1.3141,-1.3198,-1.3198,-1.3404,-1.3788,-1.4222,-1.4588,-1.4932,-1.5551,-1.5856,-1.6067,-1.7117,-1.7498,-1.7545,-1.7592,-1.7743,-1.8014,-1.8601,-1.8806,-1.8878,-1.9087,-1.9172,-1.9172,-1.9172,-1.9264,-1.8734,-1.6005,-1.5014,-1.4764,-1.4877,-1.4955,-1.5014,-1.5011,-1.5054,-1.5114,-1.5114,-1.5158,-1.5201,-1.5204,-1.522,-1.5236,-1.5303,-1.536,-1.5399,-1.541,-1.5398,-1.5404,-1.5408,-1.539,-1.5391,-1.5391,-1.5391,-1.5391,-1.5391,-1.5407,-1.5407,-1.5387,-1.5322,-1.5245,-1.5168,-1.5241,-1.5241,-1.5149,-1.5245,-1.571,-1.6459,-1.6556,-1.654,0.3095,0.2529,0.1673,0.0,0.0628,0.0964,0.1316,0.076,-0.0142,-0.1286,-0.1822,-0.2117,-0.2117,-0.2636,-0.332,0.0,-0.4618,-0.4888,-0.4888,-0.5111,-0.5463,-0.5938,-0.6319,-0.666,-0.6921,-0.6956,-0.6956,-0.6956,-0.6702,-0.6526,-0.6526,-0.7196,-0.8505,-1.0594,-0.9971,-0.9666,-0.9666,-1.0902,-1.1769,-1.2246,-1.3142,-1.3334,-1.2925,-1.2542,-1.2662,-1.3198,-1.3198,-1.3301,-1.3472,-1.3594,-1.3993,-1.4588,-1.5268,-1.5507,-1.5624,-1.6623,-1.6045,-1.4988,-1.6708,-1.7427,-1.7715,-1.818,-1.8505,-1.8537,-1.7767,-1.69,-1.6199,-1.6199,-1.6284,-1.6109,-1.4901,-1.4589,-1.4614,-1.4746,-1.4859,-1.4947,-1.4979,-1.5045,-1.5095,-1.5095,-1.5114,-1.5133,-1.5145,-1.5176,-1.5204,-1.5236,-1.5295,-1.5357,-1.5397,-1.5394,-1.5405,-1.5409,-1.5391,-1.5391,-1.5391,-1.5391,-1.5391,-1.5391,-1.5407,-1.5407,-1.5407,-1.5345,-1.5311,-1.5308,-1.5303,-1.5303,-1.5303,-1.5303,-1.5748,-1.6619,-1.7083,-1.7556,0.2599,0.0,0.0,0.065,0.0537,0.069,0.0891,0.0459,-0.0298,-0.1392,-0.1778,-0.1981,-0.2083,-0.2347,-0.2613,-0.2845,-0.3343,-0.3757,-0.3898,-0.4194,-0.4599,-0.5241,-0.5327,-0.5553,-0.6167,-0.6202,-0.6202,-0.6202,-0.5895,-0.568,-0.568,-0.6313,-0.7326,-0.8855,-0.8883,-0.9055,-0.9354,-0.9477,-0.9785,-1.0316,-1.1219,-1.1286,-1.0613,-1.1638,-1.2401,-1.2908,-1.2908,-1.2943,-1.306,-1.3163,-1.3573,-1.4235,-1.4808,-1.4701,-1.4337,-1.5016,-1.4228,-1.3102,-1.5194,-1.6301,-1.6855,-1.7137,-1.7501,-1.7626,-1.6672,-1.5312,-1.41,-1.41,-1.4163,-1.4281,-1.4429,-1.4469,-1.4515,-1.4651,-1.4765,-1.4859,-1.4957,-1.5027,-1.5073,-1.5106,-1.5107,-1.5108,-1.512,-1.5177,-1.522,-1.521,-1.5278,-1.5329,-1.5377,-1.5391,-1.5406,-1.5391,-1.5391,-1.5391,-1.5391,-1.5391,-1.5391,-1.5391,-1.5407,-1.5407,-1.5407,-1.5345,-1.5311,-1.5308,-1.5303,-1.5303,-1.5303,-1.5303,-1.5865,-1.6948,-1.7523,-1.8393,0.0,0.0,0.1254,0.066,0.0499,0.0499,0.0532,0.0266,-0.0299,-0.1371,-0.1609,-0.1709,-0.2047,-0.2117,-0.2117,-0.2147,-0.2161,-0.2332,-0.2887,-0.2848,-0.317,-0.4225,-0.4356,-0.4692,0.0,-0.5723,-0.5723,-0.5723,-0.5723,-0.568,-0.568,-0.5723,-0.6159,-0.7032,-0.7074,-0.7635,-0.8798,-0.7701,-0.7335,-0.7812,-0.8312,-0.8945,-0.9793,-1.1367,-1.2113,-1.215,-1.215,-1.233,-1.2745,-1.306,-1.3438,-1.3854,-1.4203,-1.322,-1.1628,-1.1859,-1.2308,-1.2811,-1.2908,-1.3828,-1.5016,-1.5296,-1.5583,-1.5841,-1.6185,-1.5269,-1.41,-1.41,-1.4114,-1.4154,-1.4349,-1.4399,-1.4447,-1.4567,-1.4666,-1.4747,-1.4859,-1.4963,-1.5023,-1.5085,-1.5106,-1.5127,-1.5184,-1.5201,-1.521,-1.5294,-1.5289,-1.5303,-1.5306,-1.5368,-1.5408,-1.5391,-1.5391,-1.5391,-1.5391,-1.5391,-1.5391,-1.5391,-1.5407,-1.5407,-1.5407,-1.5345,-1.5311,-1.5308,-1.5303,-1.5303,-1.5303,-1.5303,-1.6155,-1.7755,-1.7794,-1.8722,0.2693,0.0,0.2094,0.1414,0.1239,0.1239,0.1239,0.0974,0.0639,0.0268,-0.0034,-0.0256,-0.0406,-0.0756,-0.1208,-0.1678,-0.1778,-0.1918,-0.2365,-0.2376,-0.2613,-0.3467,-0.3993,0.0,0.0,0.0,0.0,-0.568,-0.568,-0.568,-0.568,-0.568,-0.5847,-0.6142,-0.6142,-0.6311,-0.6754,-0.6361,-0.6227,-0.6398,-0.7454,-0.8537,-0.9723,-1.0544,-1.0926,-1.0926,-1.0926,-1.1303,-1.1954,-1.285,-1.3267,-1.3404,-1.3539,-1.2499,-1.0991,-1.1247,-1.1579,-1.2085,-1.3162,-1.3859,-1.4398,-1.4997,-1.5341,-1.5501,-1.5209,-1.4912,-1.4609,-1.4108,-1.4054,-1.4172,-1.4239,-1.4304,-1.4349,-1.4387,-1.4497,-1.4587,-1.4678,-1.4813,-1.4936,-1.496,-1.5042,-1.5119,-1.5133,-1.5176,-1.5217,-1.5291,-1.5342,-1.5375,-1.5368,-1.5387,-1.5408,-1.5391,-1.5391,-1.5391,-1.5391,-1.5391,-1.5391,-1.5391,-1.5407,-1.5407,-1.5407,-1.5345,-1.5311,-1.5308,-1.5303,-1.5303,-1.5303,-1.5884,-1.6735,-1.7813,-1.8393,-1.9283,0.3118,0.3043,0.2779,0.2275,0.2175,0.2175,0.2175,0.2009,0.1845,0.1845,0.164,0.1372,0.1068,0.0421,-0.0396,-0.1422,-0.1609,-0.169,-0.1967,-0.2066,-0.2294,-0.2775,-0.3251,-0.3568,0.0,0.0,0.0,-0.5149,-0.5198,-0.5198,-0.5198,-0.5198,-0.5198,-0.5198,-0.5198,-0.5198,-0.5198,-0.5371,-0.555,-0.5723,-0.6907,-0.7987,-0.9024,-0.9734,-1.0098,-1.0098,-1.0244,-1.0746,-1.1597,-1.2733,-1.3198,-1.3123,-1.2321,-1.1334,-1.0386,-1.0643,-1.0949,-1.1421,-1.2709,-1.3236,-1.3452,-1.4002,-1.434,-1.4462,-1.4104,-1.4212,-1.4387,-1.3959,-1.397,-1.4131,-1.4159,-1.4208,-1.4273,-1.4288,-1.4392,-1.4489,-1.4585,-1.4747,-1.4877,-1.4894,-1.4995,-1.5071,-1.5101,-1.518,-1.5263,-1.5336,-1.5377,-1.5399,-1.5397,-1.5403,-1.5406,-1.5391,-1.5391,-1.5391,-1.5391,-1.5391,-1.5391,-1.5391,-1.5407,-1.5407,-1.5407,-1.5345,-1.5311,-1.5308,-1.5303,-1.5439,-1.5768,-1.6329,-1.7175,-1.8285,-1.8846,-1.9561,0.3307,0.3241,0.3241,0.3241,0.3241,0.3241,0.3241,0.3241,0.32,0.3159,0.3155,0.2948,0.0,0.0,0.0224,-0.1292,-0.1542,-0.1542,-0.1542,-0.1883,-0.2111,0.0,0.0,0.0,0.0,0.0,0.0,-0.4005,0.0,-0.4184,-0.4184,-0.4184,-0.4184,-0.4232,-0.4184,-0.4184,-0.4184,-0.4762,-0.5246,-0.5723,-0.652,-0.7196,-0.7712,-0.8947,-0.9515,-0.9594,-1.0002,-1.0613,-1.1443,-1.254,-1.3001,-1.2789,-1.0706,-0.9802,-0.971,-0.997,-1.0383,-1.0847,-1.1498,-1.1918,-1.219,-1.2419,-1.2623,-1.282,-1.3019,-1.3278,-1.3507,-1.3634,-1.3836,-1.4016,-1.4068,-1.415,-1.4229,-1.4281,-1.435,-1.4428,-1.4567,-1.4695,-1.4804,-1.4877,-1.4952,-1.5026,-1.5089,-1.5212,-1.5333,-1.5387,-1.5399,-1.5397,-1.539,-1.5399,-1.5401,-1.539,-1.5391,-1.5391,-1.539,-1.5391,-1.5391,-1.5391,-1.5406,-1.5405,-1.5407,-1.5326,-1.5307,-1.5308,-1.5303,-1.571,-1.6522,-1.6619,-1.7473,-1.904,-1.9111,-1.9568,0.3607,0.3574,0.3574,0.3574,0.3574,0.3574,0.3574,0.3574,0.3407,0.281,0.2688,0.2625,0.0,0.0,0.0,-0.0582,-0.0772,0.0,-0.0772,-0.0963,0.0,-0.1078,0.0,-0.1078,-0.1078,-0.1078,0.0,0.0,-0.2328,-0.2732,-0.2732,-0.2732,-0.2909,-0.3265,-0.2909,-0.2732,-0.2732,-0.4578,-0.5593,-0.5723,-0.5933,-0.6435,-0.7161,-0.6918,-0.7082,-0.7551,-0.8124,-0.8746,-0.939,-1.0143,-1.0432,-1.0383,-0.9836,-0.9591,-0.9564,-0.9644,-0.9944,-1.0421,-1.0774,-1.1281,-1.18,-1.205,-1.2336,-1.2594,-1.2762,-1.3018,-1.3295,-1.3445,-1.3653,-1.3868,-1.3938,-1.4078,-1.4198,-1.4211,-1.4293,-1.4338,-1.4422,-1.4552,-1.4678,-1.4747,-1.4931,-1.5101,-1.5226,-1.5311,-1.5379,-1.5392,-1.5397,-1.5394,-1.5399,-1.5405,-1.5395,-1.5405,-1.539,-1.5402,-1.5409,-1.5401,-1.5406,-1.5406,-1.5407,-1.5377,-1.533,-1.5315,-1.5303,-1.5308,-1.5303,-1.54,-1.5632,-1.6897,-1.7683,-1.8095,-1.9345,-2.0035,0.4323,0.4286,0.4286,0.4286,0.3976,0.3705,0.3705,0.3424,0.303,0.2589,0.2495,0.0,0.2495,0.0,0.0,0.0,0.0,0.0,0.0202,0.02,0.0135,0.0,-0.009,0.0,-0.009,-0.009,-0.009,0.0,-0.0988,-0.1527,-0.1527,-0.1749,-0.2062,-0.2556,-0.2333,-0.229,-0.2511,-0.4228,-0.5106,-0.5106,-0.5285,-0.5761,-0.6398,-0.5672,-0.5718,-0.6407,0.0,-0.7656,-0.8262,-0.885,-0.9097,-0.9097,-0.9097,-0.9232,-0.9432,-0.9485,-0.9658,-0.9919,-1.0211,-1.0626,-1.1148,-1.163,-1.2035,-1.2396,-1.2572,-1.2852,-1.3157,-1.3312,-1.3543,-1.3778,-1.3883,-1.404,-1.4195,-1.4195,-1.4229,-1.4263,-1.4325,-1.4462,-1.4608,-1.4794,-1.4981,-1.5139,-1.5269,-1.5368,-1.5407,-1.5395,-1.5401,-1.5401,-1.5394,-1.5394,-1.5397,-1.5402,-1.5391,-1.5394,-1.5397,-1.5402,-1.5399,-1.5399,-1.5374,-1.5338,-1.5298,-1.5291,-1.5287,-1.527,-1.5265,-1.5439,-1.5825,-1.7137,-1.7927,-1.8256,-1.9517,-2.0106,0.5203,0.499,0.4904,0.4904,0.4346,0.377,0.377,0.3144,0.2538,0.2538,0.0,0.2345,0.2329,0.1862,0.1422,0.1182,0.0,0.1143,0.1111,0.1255,0.1223,0.0851,0.0809,0.0809,0.0809,0.0809,0.0809,0.0899,0.0135,-0.0359,-0.0494,-0.0942,-0.1524,-0.2201,-0.2201,-0.2377,-0.2823,-0.3615,-0.4052,-0.414,-0.4568,-0.4988,-0.5339,-0.4811,-0.4992,-0.5686,-0.6345,-0.6984,-0.7637,-0.8233,-0.8488,-0.8488,-0.8488,-0.8784,-0.9232,-0.9351,-0.9444,-0.9485,-0.975,-1.0072,-1.047,-1.1205,-1.1775,-1.221,-1.24,-1.2722,-1.3031,-1.3226,-1.3462,-1.3702,-1.3826,-1.4034,-1.419,-1.419,-1.4195,-1.4229,-1.4281,-1.4404,-1.4616,-1.4921,-1.5049,-1.514,-1.5284,-1.5342,-1.5385,-1.5391,-1.5398,-1.5402,-1.5402,-1.5403,-1.5404,-1.5405,-1.539,-1.5409,-1.5407,-1.5392,-1.5407,-1.5387,-1.533,-1.5306,-1.5304,-1.5303,-1.5279,-1.5201,-1.5201,-1.5568,-1.632,-1.7234,-1.8049,-1.8731,-1.9593,-1.9943,0.5723,0.5021,0.4427,0.4427,0.4305,0.4183,0.4183,0.3435,0.0,0.0,0.214,0.1557,0.1447,0.1724,0.1844,0.1422,0.0,0.0,0.0,0.0,0.1175,0.0,0.0,0.0,0.0,0.0,0.0,0.0,0.0,0.1346,0.0494,0.0,-0.0853,-0.2154,-0.2201,-0.2243,-0.2333,-0.2467,-0.2776,-0.3126,-0.3376,-0.3569,-0.3634,-0.3532,-0.4021,-0.4998,-0.5404,0.0,-0.6993,-0.7608,-0.787,-0.787,-0.787,-0.8205,-0.8739,-0.8889,-0.9054,-0.9286,-0.9552,-0.9828,-1.0185,-1.093,-1.1557,-1.2071,-1.2271,-1.2565,-1.2885,-1.3084,-1.3295,-1.3492,-1.3682,-1.3973,-1.419,-1.419,-1.4195,-1.4229,-1.4304,-1.4441,-1.4645,-1.4877,-1.4965,-1.5076,-1.5279,-1.5311,-1.5332,-1.5391,-1.5395,-1.5397,-1.5402,-1.5408,-1.5391,-1.541,-1.5401,-1.5397,-1.5397,-1.5404,-1.5384,-1.5329,-1.5307,-1.5306,-1.5293,-1.5294,-1.5279,-1.5201,-1.5201,-1.5278,-1.5433,-1.69,-1.7658,-1.7782,-1.9247,-1.9881,0.611,0.532,0.4543,0.4543,0.4543,0.4405,0.3849,0.0,0.0,0.0,0.1768,0.1362,0.1221,0.0,0.0,0.0,0.0,0.0,0.0,0.0,0.0,0.0,0.0,0.0,0.0,0.0,0.0,0.0,0.0,0.2356,0.152,0.0314,-0.0674,-0.1393,-0.1437,-0.1527,-0.1794,-0.2064,-0.2186,-0.2217,-0.271,-0.2944,-0.2944,-0.2944,-0.3307,-0.3993,-0.4736,-0.541,-0.6091,-0.6885,-0.6915,-0.6474,-0.6846,-0.7364,-0.7954,-0.8202,-0.8578,-0.9031,-0.9259,-0.9552,-0.9931,-1.0496,-1.1182,-1.1839,-1.206,-1.2383,-1.2678,-1.2848,-1.3051,-1.3244,-1.3445,-1.37,-1.3944,-1.3973,-1.4068,-1.4177,-1.4286,-1.4429,-1.4611,-1.4813,-1.4925,-1.5049,-1.5217,-1.528,-1.5326,-1.5387,-1.5394,-1.5397,-1.5402,-1.5409,-1.5409,-1.5391,-1.5397,-1.5396,-1.5354,-1.5357,-1.5334,-1.5306,-1.5293,-1.5279,-1.5246,-1.525,-1.5234,-1.5199,-1.5199,-1.543,-1.5873,-1.7044,-1.778,-1.8146,-1.9303,-1.9801,0.607,0.5456,0.4812,0.4812,0.4812,0.4527,0.3451,0.3229,0.0,0.0,0.156,0.1443,0.1308,0.0,0.1511,0.0,0.2139,0.0,0.0,0.0,0.0,0.0,0.0,0.0,0.0,0.0,0.0,0.0,0.0,0.0,0.2105,0.0467,-0.0425,-0.0425,-0.0425,-0.0637,-0.1102,-0.1739,-0.1932,-0.1609,-0.2178,-0.2477,-0.2477,-0.2477,-0.2709,-0.3142,-0.4058,-0.4736,-0.5252,-0.6122,-0.5936,-0.5151,-0.5842,-0.6488,-0.7141,-0.754,-0.8068,-0.8679,-0.8905,-0.9259,-0.9646,-1.0046,-1.0746,-1.152,-1.1805,-1.2117,-1.2403,-1.253,-1.2722,-1.2908,-1.3123,-1.3362,-1.3622,-1.3746,-1.3927,-1.4096,-1.4255,-1.4381,-1.4522,-1.4736,-1.4885,-1.5033,-1.5177,-1.5268,-1.532,-1.5385,-1.5391,-1.5395,-1.5404,-1.541,-1.5385,-1.5382,-1.5393,-1.5375,-1.5317,-1.5302,-1.5293,-1.5274,-1.5284,-1.5254,-1.5199,-1.5193,-1.5182,-1.5183,-1.5177,-1.56,-1.6465,-1.7202,-1.7947,-1.8693,-1.943,-1.9699,0.5024,0.4885,0.4812,0.4812,0.4812,0.4527,0.3451,0.0,0.0,0.2009,0.1771,0.1725,0.1593,0.1561,0.1591,0.0,0.0,0.2624,0.0,0.0,0.0,0.0,0.0,0.0,0.0,0.0,0.0,0.0,0.0,0.0,0.1724,0.0865,0.0381,0.0381,0.0381,0.0208,-0.0139,-0.1141,-0.1641,-0.1609,-0.1673,-0.1709,-0.1709,-0.1709,-0.2075,-0.2782,-0.3175,-0.3928,0.0,-0.5277,-0.5017,-0.4473,-0.5112,-0.5851,-0.6554,-0.7059,-0.7598,-0.8107,-0.8456,-0.8855,-0.9286,-0.9658,-1.0333,-1.1116,-1.1453,-1.1753,-1.1972,-1.2123,-1.2305,-1.2501,-1.2692,-1.295,-1.3261,-1.37,-1.3865,-1.3963,-1.4172,-1.4275,-1.4392,-1.4666,-1.4832,-1.4962,-1.5171,-1.525,-1.5322,-1.5383,-1.5407,-1.5395,-1.541,-1.5409,-1.5379,-1.5321,-1.5354,-1.5378,-1.5315,-1.5298,-1.5275,-1.521,-1.5212,-1.5214,-1.5197,-1.5146,-1.5101,-1.512,-1.5114,-1.5515,-1.6323,-1.7119,-1.7889,-1.8636,-1.9375,-1.9668,0.5125,0.5093,0.5093,0.5093,0.5093,0.4797,0.3635,0.0,0.3407,0.2223,0.1976,0.1966,0.1903,0.1903,0.1903,0.1903,0.2877,0.357,0.3359,0.0,0.0,0.0,0.0,0.0,0.0,0.0,0.0,0.0,0.0,0.0,0.2871,0.1773,0.1174,0.1174,0.1174,0.1007,0.0672,0.0235,0.0033,0.0033,-0.0235,-0.0536,-0.094,-0.1074,-0.1343,-0.178,-0.2314,-0.297,0.0,-0.4048,-0.4048,-0.3886,-0.4436,-0.503,-0.5612,-0.6213,-0.682,-0.7443,-0.783,-0.8315,-0.8828,-0.9166,-0.9687,-1.0271,-1.0893,-1.1287,-1.1564,-1.1695,-1.1846,-1.2035,-1.228,-1.2689,-1.3141,-1.3573,-1.3761,-1.3909,-1.4145,-1.4282,-1.4439,-1.4666,-1.485,-1.5004,-1.5166,-1.5255,-1.531,-1.5381,-1.5397,-1.5407,-1.5408,-1.5394,-1.5363,-1.5315,-1.5326,-1.5326,-1.5302,-1.5255,-1.5201,-1.5145,-1.5133,-1.514,-1.5146,-1.5101,-1.5101,-1.5101,-1.5066,-1.5678,-1.6958,-1.7274,-1.8063,-1.9263,-1.9525,-1.9601,0.537,0.5435,0.5435,0.5435,0.5167,0.4678,0.0,0.3517,0.3184,0.233,0.2151,0.2151,0.2151,0.2151,0.214,0.2108,0.2938,0.3673,0.3961,0.4304,0.0,0.0,0.0,0.0,0.0,0.0,0.0,0.0,0.0,0.0,0.3928,0.2929,0.2269,0.2075,0.2073,0.1976,0.1711,0.1711,0.1611,0.1378,0.1008,0.0537,-0.0034,-0.0336,-0.0571,-0.0808,-0.1377,-0.2009,0.0,-0.2937,-0.3138,-0.3266,-0.3719,-0.4231,-0.477,-0.5383,-0.606,-0.676,-0.7187,-0.7763,-0.8333,-0.869,-0.9101,-0.9581,-1.0173,-1.0664,-1.1066,-1.1196,-1.1437,-1.1703,-1.2003,-1.2475,-1.298,-1.3411,-1.3636,-1.3851,-1.4132,-1.4307,-1.4456,-1.4658,-1.4849,-1.5018,-1.518,-1.5269,-1.531,-1.5387,-1.5406,-1.541,-1.5397,-1.5382,-1.533,-1.5275,-1.5274,-1.5278,-1.527,-1.5215,-1.5145,-1.5062,-1.5075,-1.508,-1.5064,-1.5057,-1.5057,-1.5064,-1.4992,-1.5759,-1.7377,-1.7344,-1.8144,-1.9675,-1.9596,-1.955,0.5495,0.578,0.578,0.578,0.484,0.3905,0.0,0.3076,0.2309,0.2301,0.2292,0.2292,0.2292,0.2292,0.2252,0.2128,0.2115,0.261,0.3996,0.4029,0.0,0.0,0.0,0.0,0.0,0.0,0.0,0.0,0.0,0.0,0.4494,0.4301,0.3853,0.3208,0.3175,0.3175,0.3175,0.3175,0.2812,0.2083,0.1742,0.141,0.1076,0.0538,0.0168,-0.0034,-0.037,-0.104,0.0,-0.2047,-0.2281,-0.254,-0.3028,-0.3547,-0.4097,-0.4692,-0.5376,-0.6083,-0.654,-0.7189,-0.7868,-0.8195,-0.8656,-0.9135,-0.9286,-0.9829,-1.0434,-1.0583,-1.1038,-1.1578,-1.1903,-1.23,-1.2708,-1.3176,-1.3508,-1.3803,-1.4132,-1.4307,-1.4456,-1.466,-1.4802,-1.4966,-1.518,-1.5265,-1.5319,-1.5383,-1.5391,-1.5402,-1.5409,-1.5342,-1.5284,-1.5215,-1.5207,-1.5201,-1.5204,-1.514,-1.5073,-1.5015,-1.4992,-1.4995,-1.4998,-1.4947,-1.4928,-1.4998,-1.4931,-1.5687,-1.7299,-1.7225,-1.8037,-1.9614,-1.9527,-1.9508,0.5017,0.5129,0.5129,0.5129,0.4811,0.4524,0.4524,0.3405,0.2373,0.2373,0.2373,0.2373,0.2373,0.2332,0.2252,0.2128,0.2108,0.2259,0.0,0.0,0.0,0.0,0.0,0.0,0.0,0.0,0.0,0.0,0.0,0.5049,0.5049,0.4858,0.4344,0.3504,0.3504,0.3541,0.3541,0.3541,0.3204,0.257,0.2435,0.2137,0.1705,0.134,0.1039,0.077,0.0167,-0.0368,-0.0836,-0.1238,-0.1507,-0.1738,-0.22,-0.2626,-0.3049,-0.3806,-0.4515,-0.5206,-0.5867,-0.6532,-0.718,-0.7618,-0.8127,-0.8572,-0.8717,-0.9331,-1.0072,-1.0436,-1.092,-1.1466,-1.1833,-1.2235,-1.2652,-1.3175,-1.3493,-1.3791,-1.4132,-1.4338,-1.4537,-1.4738,-1.4917,-1.5075,-1.5173,-1.526,-1.5323,-1.5391,-1.54,-1.5373,-1.533,-1.5269,-1.5206,-1.5138,-1.5088,-1.5054,-1.5062,-1.5033,-1.4992,-1.4873,-1.4902,-1.4914,-1.4878,-1.4841,-1.4813,-1.4794,-1.4765,-1.5524,-1.7083,-1.7071,-1.7898,-1.9446,-1.9398,-1.9368,0.4648,0.4793,0.4793,0.4793,0.4374,0.3973,0.4005,0.3213,0.2292,0.1627,0.2013,0.2471,0.2471,0.2441,0.2371,0.2242,0.2222,0.2427,0.0,0.0,0.0,0.0,0.0,0.0,0.0,0.0,0.0,0.0,0.0,0.5561,0.5561,0.5435,0.4973,0.4139,0.3806,0.3611,0.3624,0.3545,0.3271,0.2751,0.2759,0.2558,0.2156,0.1941,0.1744,0.1519,0.0905,0.0491,0.0,-0.0301,-0.0635,-0.0836,-0.1268,-0.1665,-0.2062,-0.279,-0.3473,-0.4119,-0.4853,-0.5567,-0.6243,-0.6734,-0.7375,-0.8003,-0.8202,-0.8942,-0.9764,-1.0186,-1.0729,-1.1293,-1.1753,-1.2179,-1.2633,-1.314,-1.3478,-1.3776,-1.406,-1.432,-1.4571,-1.4785,-1.4973,-1.5133,-1.5222,-1.5271,-1.5306,-1.5362,-1.5365,-1.533,-1.5241,-1.5199,-1.5133,-1.5042,-1.4962,-1.4898,-1.481,-1.4856,-1.4849,-1.4719,-1.4766,-1.4755,-1.4687,-1.4695,-1.4674,-1.4627,-1.46,-1.5201,-1.6471,-1.7082,-1.8045,-1.9282,-1.9248,-1.9214,0.0,0.4639,0.4639,0.4639,0.3612,0.2637,0.2724,0.2675,0.0,0.0541,0.1387,0.246,0.2598,0.2617,0.2578,0.2461,0.2432,0.2998,0.0,0.0,0.0,0.0,0.0,0.0,0.0,0.0,0.0,0.0,0.6052,0.6052,0.6052,0.5952,0.5642,0.5068,0.4089,0.3582,0.3526,0.3351,0.3104,0.2767,0.2887,0.2805,0.2503,0.2417,0.2331,0.0,0.1775,0.1458,0.0,0.0768,0.0434,0.01,-0.0234,-0.0635,-0.1036,-0.1667,-0.226,-0.2878,-0.3602,-0.4338,-0.506,-0.5629,-0.6485,-0.7356,-0.7705,-0.8584,-0.9528,-0.9867,-1.0447,-1.1094,-1.1629,-1.2112,-1.2614,-1.3071,-1.3428,-1.3746,-1.3959,-1.4259,-1.4577,-1.4841,-1.5011,-1.5139,-1.5289,-1.5299,-1.5312,-1.5301,-1.5303,-1.5234,-1.5114,-1.5088,-1.5038,-1.4911,-1.4821,-1.4719,-1.4512,-1.4608,-1.465,-1.4577,-1.4581,-1.4537,-1.4478,-1.4469,-1.4464,-1.4464,-1.4453,-1.4812,-1.5572,-1.7169,-1.8322,-1.8998,-1.9052,-1.9036,0.3099,0.0,0.3109,0.3109,0.2902,0.2752,0.0,0.2996,0.2781,0.2315,0.0,0.1065,0.2553,0.283,0.2819,0.278,0.278,0.3433,0.0,0.0,0.0,0.0,0.0,0.0,0.0,0.0,0.0,0.6621,0.6621,0.6621,0.6621,0.6198,0.5867,0.561,0.4837,0.4259,0.3891,0.3791,0.3642,0.3457,0.3494,0.3456,0.3402,0.3213,0.3213,0.3283,0.2796,0.2548,0.2422,0.193,0.1634,0.1399,0.0901,0.0534,0.02,-0.0465,-0.106,-0.1617,-0.2306,-0.3018,-0.3827,-0.4822,-0.5607,-0.6287,-0.6806,-0.7895,-0.9062,-0.949,-1.0097,-1.0736,-1.1281,-1.1873,-1.2439,-1.2855,-1.3295,-1.3698,-1.3949,-1.4257,-1.4571,-1.4776,-1.4958,-1.5145,-1.5284,-1.5334,-1.535,-1.5315,-1.5259,-1.5188,-1.504,-1.4984,-1.4921,-1.4832,-1.4717,-1.4592,-1.4446,-1.4492,-1.4462,-1.4302,-1.4289,-1.4264,-1.4214,-1.4201,-1.4193,-1.419,-1.4719,-1.5114,-1.5307,-1.6856,-1.7699,-1.7896,-1.8449,-1.8679,0.2932,0.279,0.2646,0.2646,0.2743,0.2893,0.3145,0.3097,0.2985,0.0,0.0,0.1702,0.275,0.295,0.3219,0.4089,0.4232,0.0,0.0,0.0,0.0,0.0,0.0,0.0,0.0,0.0,0.0,0.7026,0.7086,0.7086,0.7026,0.6567,0.6195,0.5942,0.5368,0.4782,0.4188,0.4,0.3838,0.37,0.3742,0.3718,0.37,0.3621,0.3732,0.3952,0.3568,0.3451,0.3468,0.302,0.2692,0.2461,0.1999,0.1634,0.1268,0.0731,0.0199,-0.0331,-0.0926,-0.1681,-0.2528,-0.3368,-0.4135,-0.4828,-0.5517,-0.6495,-0.7595,-0.8792,-0.9623,-1.0282,-1.0945,-1.1607,-1.2245,-1.2743,-1.321,-1.3638,-1.3938,-1.4237,-1.4526,-1.4757,-1.4943,-1.512,-1.5265,-1.5323,-1.5325,-1.5263,-1.5166,-1.505,-1.4892,-1.4785,-1.467,-1.4585,-1.4474,-1.4356,-1.4175,-1.418,-1.4154,-1.4114,-1.4069,-1.4046,-1.4009,-1.3963,-1.3888,-1.3865,-1.4234,-1.4605,-1.4974,-1.6116,-1.685,-1.7253,-1.7947,-1.8255,0.3199,0.3221,0.3255,0.3255,0.3142,0.306,0.3172,0.0,0.0,0.0,0.0,0.0,0.0,0.3264,0.0,0.0,0.0,0.0,0.0,0.0,0.0,0.0,0.0,0.0,0.0,0.7618,0.7589,0.7472,0.7569,0.7531,0.7348,0.6932,0.6527,0.6097,0.5687,0.5178,0.457,0.4194,0.3952,0.3828,0.3862,0.3862,0.3828,0.3862,0.4094,0.4468,0.0,0.0,0.4439,0.4097,0.3774,0.3445,0.3057,0.2695,0.2332,0.1963,0.1532,0.1035,0.0434,-0.0331,-0.1089,-0.158,-0.2343,-0.3185,-0.3972,-0.472,-0.5739,-0.7657,-0.8817,-0.9629,-1.0413,-1.1174,-1.1896,-1.2377,-1.2887,-1.3339,-1.3704,-1.3897,-1.4132,-1.4513,-1.46,-1.466,-1.4849,-1.4968,-1.4993,-1.4903,-1.487,-1.476,-1.4561,-1.4441,-1.4319,-1.419,-1.4118,-1.4011,-1.381,-1.3739,-1.3726,-1.383,-1.3848,-1.3821,-1.3796,-1.3652,-1.3572,-1.3509,-1.346,-1.382,-1.4588,-1.5265,-1.5976,-1.6765,-1.7453,-1.7726,0.3199,0.4448,0.575,0.575,0.4446,0.3172,0.319,0.0,0.0,0.0,0.0,0.0,0.0,0.4471,0.5603,0.0,0.0,0.0,0.0,0.0,0.0,0.0,0.0,0.0,0.0,0.8138,0.8184,0.8241,0.8195,0.7962,0.7497,0.7041,0.6542,0.6032,0.5633,0.5352,0.5254,0.4793,0.4507,0.4374,0.4342,0.4342,0.4366,0.4264,0.4619,0.5296,0.0,0.5277,0.5696,0.5251,0.4928,0.4668,0.4167,0.3853,0.3658,0.3327,0.2929,0.2465,0.1563,0.1027,0.0659,0.0362,-0.0475,-0.1484,-0.2196,-0.3222,-0.4415,-0.5583,-0.7092,-0.8497,-0.9126,-1.0203,-1.1139,-1.1117,-1.1647,-1.227,-1.2707,-1.2538,-1.2558,-1.3448,-1.322,-1.2889,-1.2923,-1.3393,-1.3724,-1.3528,-1.3885,-1.4083,-1.3876,-1.3796,-1.371,-1.3626,-1.355,-1.3489,-1.3394,-1.3278,-1.3159,-1.3071,-1.3379,-1.3495,-1.3312,-1.3193,-1.3107,-1.3086,-1.3086,-1.3433,-1.4123,-1.4714,-1.537,-1.6066,-1.6743,-1.701,0.3199,0.4712,0.6295,0.6295,0.5576,0.4581,0.3494,0.3254,0.0,0.0,0.0,0.0,0.0,0.0,0.0,0.0,0.0,0.0,0.0,0.0,0.0,0.0,0.0,0.0,0.8695,0.8811,0.891,0.8981,0.9008,0.8711,0.8085,0.7605,0.7047,0.6393,0.5996,0.5789,0.5826,0.5545,0.5204,0.4834,0.4824,0.4805,0.4776,0.4745,0.4999,0.5498,0.0,0.5634,0.6149,0.5812,0.5733,0.5767,0.5425,0.5143,0.4916,0.4471,0.4114,0.3723,0.3155,0.2888,0.2748,0.2508,0.1685,0.0623,-0.0177,-0.1241,-0.2393,-0.3445,-0.5373,-0.7325,-0.8177,-0.9031,-0.979,-1.0294,-1.0787,-1.1396,-1.2341,-1.1747,-1.1332,-1.2395,-1.1752,-1.1113,-1.1328,-1.2007,-1.251,-1.2398,-1.2855,-1.3089,-1.2824,-1.2788,-1.2751,-1.2659,-1.2604,-1.2581,-1.259,-1.2514,-1.2565,-1.2836,-1.2982,-1.2983,-1.2838,-1.2729,-1.2671,-1.2623,-1.2623,-1.29,-1.3457,-1.409,-1.4734,-1.5364,-1.6088,-1.6389,0.3207,0.4377,0.5719,0.6296,0.0,0.599,0.4525,0.419,0.0,0.0,0.0,0.0,0.0,0.0,0.0,0.0,0.0,0.0,0.967,0.9313,0.9031,0.8926,0.9042,0.9174,0.9217,0.9408,0.9555,0.9633,0.9537,0.918,0.8502,0.7964,0.7353,0.6664,0.6345,0.6218,0.629,0.6189,0.5852,0.5309,0.5328,0.529,0.5184,0.5214,0.5412,0.5708,0.5631,0.5988,0.6602,0.6421,0.6588,0.6934,0.6687,0.643,0.612,0.5654,0.5339,0.5115,0.4884,0.4822,0.4809,0.4654,0.3916,0.288,0.2021,0.0951,-0.0126,-0.1143,-0.3221,-0.5498,-0.7077,-0.8075,-0.8864,-0.9592,-1.0001,-1.0483,-1.1379,-1.0509,-0.9843,-1.0859,-1.0021,-0.9264,-0.9644,-1.0433,-1.1037,-1.1037,-1.158,-1.1888,-1.1617,-1.1632,-1.1616,-1.1514,-1.1529,-1.158,-1.1677,-1.1612,-1.1782,-1.2278,-1.2411,-1.2443,-1.232,-1.2245,-1.2179,-1.2107,-1.2107,-1.2421,-1.3066,-1.3554,-1.4154,-1.4937,-1.5456,-1.568,0.3213,0.3356,0.4059,0.6295,0.6723,0.0,0.678,0.6818,0.0,0.6818,0.0,0.0,0.0,0.0,0.0,0.0,0.0,0.0,1.0122,0.0,0.9552,0.9301,0.9446,0.9564,0.9564,0.9762,0.9919,1.0046,0.9489,0.8901,0.8349,0.7694,0.7054,0.6438,0.6448,0.6505,0.6564,0.6564,0.636,0.5925,0.5819,0.5745,0.5745,0.5678,0.5907,0.6318,0.6266,0.675,0.7592,0.7379,0.7723,0.8331,0.7937,0.7568,0.7242,0.703,0.6913,0.6795,0.6655,0.6646,0.6705,0.6754,0.6087,0.5127,0.4435,0.3358,0.2191,0.1377,-0.0212,-0.2355,-0.5436,-0.7718,-0.9159,-0.8788,-0.9109,-0.9352,-0.8888,-0.8013,-0.7573,-0.8398,-0.7822,-0.7283,-0.7565,-0.839,-0.9017,-0.9097,-0.9883,-1.044,-1.0352,-1.0328,-1.0355,-1.0406,-1.0478,-1.0552,-1.0692,-1.0634,-1.0668,-1.0833,-1.149,-1.1837,-1.1753,-1.1688,-1.1623,-1.1557,-1.1557,-1.2112,-1.3278,-1.315,-1.3727,-1.5002,-1.485,-1.4878,0.1636,0.2358,0.3785,0.473,0.6105,0.0,0.0,0.7282,0.7282,0.7282,0.7282,0.0,0.0,0.0,0.0,0.0,0.0,0.0,1.0261,1.0097,0.9918,0.9698,0.9776,0.988,0.9893,1.0085,1.0261,1.0411,0.987,0.9289,0.8701,0.805,0.7408,0.6791,0.6832,0.6911,0.696,0.6927,0.6861,0.6735,0.6413,0.6194,0.6111,0.6081,0.6167,0.6345,0.6695,0.7207,0.7794,0.8165,0.8683,0.9168,0.897,0.8813,0.8682,0.8524,0.8459,0.841,0.8388,0.8404,0.8458,0.8523,0.796,0.7138,0.6588,0.5742,0.4861,0.4304,0.2864,0.0507,-0.3799,-0.5876,-0.6967,-0.763,-0.7666,-0.7523,-0.7519,-0.6496,-0.5864,-0.6753,-0.6057,-0.5432,-0.5786,-0.6662,-0.7361,-0.7552,-0.8218,-0.8653,-0.8518,-0.8583,-0.8702,-0.8924,-0.9471,-0.9856,-0.9919,-1.0033,-1.0122,-1.0072,-1.0681,-1.107,-1.1141,-1.1118,-1.1071,-1.1001,-1.1001,-1.1527,-1.2636,-1.2483,-1.305,-1.4181,-1.4122,-1.4122,0.2802,0.3007,0.3717,0.3788,0.0,0.0,0.7484,0.7453,0.7696,0.8528,0.8699,0.0,0.0,0.0,0.0,0.0,1.0849,1.0656,1.0572,1.0523,1.0386,1.0161,1.0198,1.0273,1.0323,1.0485,1.0632,1.0753,1.0053,0.9446,0.9049,0.8223,0.7578,0.7169,0.7219,0.7282,0.7329,0.7282,0.7282,0.7329,0.6993,0.6727,0.6522,0.6522,0.6627,0.6867,0.7281,0.7837,0.8531,0.9059,0.9594,1.0058,1.0071,1.0058,1.0044,0.9993,0.9967,1.0004,1.0016,1.0065,1.0138,1.02,0.9767,0.9135,0.8681,0.8121,0.7542,0.714,0.581,0.3539,-0.0621,-0.3118,-0.4883,-0.6225,-0.6215,-0.5858,-0.5747,-0.4931,-0.4417,-0.51,-0.4523,-0.405,-0.4396,-0.5177,-0.5852,-0.6152,-0.6689,-0.7104,-0.7231,-0.7289,-0.7492,-0.798,-0.8563,-0.8876,-0.8794,-0.9039,-0.9251,-0.9354,-0.9662,-1.0008,-1.0373,-1.0422,-1.0422,-1.0385,-1.0494,-1.1029,-1.1906,-1.1998,-1.2513,-1.3399,-1.334,-1.3251,0.7407,0.5618,0.3753,0.0,0.0,0.0,0.7633,0.7619,0.8344,1.0965,0.0,1.0781,0.8393,0.0,0.0,1.1433,1.1187,1.0801,1.1062,1.1085,1.0968,1.0632,1.0729,1.0801,1.0801,1.092,1.1015,1.1085,1.0003,0.9312,0.9312,0.818,0.7513,0.7513,0.7604,0.7634,0.7634,0.762,0.762,0.762,0.762,0.7392,0.7009,0.7023,0.7381,0.8005,0.8018,0.8781,1.0009,1.0086,1.0515,1.1108,1.1262,1.131,1.132,1.1388,1.1454,1.1519,1.1599,1.1664,1.1728,1.1782,1.1531,1.1154,1.0747,1.0475,1.025,0.9853,0.8572,0.6779,0.4361,0.0479,-0.315,-0.4525,-0.4817,-0.4462,-0.34,-0.318,-0.322,-0.329,-0.3237,-0.3253,-0.3437,-0.3937,-0.4431,-0.4813,-0.5286,-0.5845,-0.6601,-0.6554,-0.6845,-0.7772,-0.7772,-0.7569,-0.7225,-0.7481,-0.7945,-0.8533,-0.8329,-0.8561,-0.9449,-0.9542,-0.9621,-0.9699,-1.0092,-1.0622,-1.1302,-1.1689,-1.2188,-1.2768,-1.2579,-1.2257,0.753,0.7013,0.0,0.6462,0.0,0.0,0.0,0.8909,0.0,0.0,1.1718,1.1587,1.1206,0.0,0.0,1.1994,1.1623,1.1307,1.1421,1.1444,1.1407,1.1324,1.1333,1.137,1.137,1.1415,1.1437,1.146,1.0808,1.0456,1.0484,0.9803,0.9448,0.9544,0.9561,0.9576,0.9576,0.905,0.8804,0.8788,0.8266,0.7811,0.7439,0.8008,0.8379,0.8631,0.9611,1.0269,1.0673,1.1272,1.165,1.1873,1.1921,1.203,1.2162,1.227,1.2387,1.2479,1.2498,1.2555,1.2614,1.2639,1.2569,1.2431,1.2268,1.2236,1.2237,1.2129,1.1205,0.9725,0.7449,0.5331,0.2764,-0.1329,-0.2235,-0.2062,-0.1616,-0.1824,-0.217,-0.2534,-0.2834,-0.293,-0.245,-0.2888,-0.3389,-0.3527,-0.4471,-0.5163,-0.5149,-0.5251,-0.5602,-0.6344,-0.7196,-0.7294,-0.6291,-0.6504,-0.6906,-0.7303,-0.7116,-0.7491,-0.8606,-0.8805,-0.9073,-0.9396,-0.9566,-1.0125,-1.1034,-1.1081,-1.1386,-1.1884,-1.1726,-1.1386,0.7797,0.7797,0.0,0.7797,0.7797,0.8527,1.1268,0.0,0.0,0.0,0.0,1.2159,1.2439,1.2514,0.0,1.2354,1.2075,1.1906,1.1949,1.2033,1.2024,1.1861,1.1861,1.1876,1.1854,1.1876,1.1876,1.1876,1.1433,1.115,1.1209,1.0695,1.0447,1.0527,1.0527,1.0527,1.0559,0.9838,0.9455,0.9452,0.873,0.8459,0.8562,0.8939,0.9452,1.0097,1.127,1.178,1.1812,1.2297,1.2511,1.2552,1.2593,1.2724,1.292,1.3076,1.3193,1.3293,1.3292,1.3356,1.3435,1.3457,1.3479,1.3517,1.3475,1.3558,1.367,1.3576,1.2967,1.1893,1.0007,0.8737,0.6678,0.1622,0.0252,0.0097,0.0131,-0.0762,-0.1709,-0.2075,-0.2247,-0.2181,-0.1667,-0.1758,-0.1981,-0.2282,-0.3797,-0.4736,-0.4242,-0.4183,-0.4382,-0.4922,-0.5913,-0.6291,-0.5655,-0.578,-0.5998,-0.6183,-0.6214,-0.6543,-0.7275,-0.7891,-0.8369,-0.8746,-0.9106,-0.9625,-1.0316,-1.0494,-1.0641,-1.0746,-1.0625,-1.036,0.8149,0.8149,0.0,0.8487,0.8549,0.0,1.1933,1.2538,1.2538,1.2518,0.0,1.2518,1.2538,1.2538,1.2518,1.2538,1.2558,1.2577,1.2558,1.2716,1.2684,1.232,1.2332,1.2347,1.2287,1.2327,1.2368,1.2388,1.1939,1.1665,1.1668,1.1205,1.0958,1.0956,1.0956,1.0987,1.1049,1.0324,0.996,0.9968,0.9288,0.9424,1.0238,0.9899,1.0586,1.2121,1.2841,1.316,1.316,1.3177,1.3177,1.3193,1.3258,1.3401,1.3601,1.38,1.3906,1.3961,1.3971,1.4054,1.4167,1.4221,1.429,1.436,1.4354,1.4488,1.4577,1.4316,1.3961,1.3318,1.1942,1.0837,0.8995,0.4578,0.2858,0.2127,0.1851,0.0164,-0.1371,-0.1676,-0.1512,-0.1246,-0.1009,-0.0469,-0.0368,-0.1177,-0.3093,-0.4215,-0.3536,-0.3241,-0.3241,-0.3607,-0.4291,-0.4838,-0.5182,-0.5214,-0.5214,-0.5214,-0.5529,-0.5718,-0.5749,-0.6883,-0.7599,-0.7825,-0.8566,-0.905,-0.929,-0.9753,-0.9809,-0.9425,-0.9324,-0.9188,0.8567,0.8567,0.0,0.0,1.2007,1.2204,1.2827,1.2975,1.2938,1.2773,1.2735,1.2773,1.2938,1.2829,1.2754,1.2813,1.3033,1.3156,1.3,1.3034,1.3033,1.2852,1.285,1.2832,1.2832,1.2885,1.2959,1.3,1.2938,1.2907,1.2907,1.2841,1.2839,1.2888,1.2902,1.2933,1.2997,1.2319,1.1982,1.1975,1.1307,1.1404,1.2173,1.1269,1.1747,1.3325,1.3556,1.3656,1.3656,1.3704,1.376,1.3814,1.3884,1.3993,1.4154,1.4289,1.4389,1.4456,1.4497,1.4586,1.4654,1.4669,1.4726,1.4775,1.483,1.4879,1.4862,1.4594,1.4224,1.3638,1.2506,1.1571,1.0473,0.8658,0.641,0.4398,0.3464,0.2152,0.0836,-0.02,-0.1004,-0.1174,-0.0034,0.0941,0.0974,-0.0875,-0.1575,-0.184,-0.1678,-0.2045,-0.258,-0.3241,-0.3667,-0.4091,-0.4473,-0.4505,-0.4505,-0.4505,-0.4832,-0.5125,-0.5404,-0.6253,-0.6904,-0.7261,-0.7593,-0.7999,-0.8474,-0.8522,-0.8451,-0.8273,-0.8379,-0.8405,0.8705,0.0,0.0,1.2356,0.0,1.3102,1.3102,1.3102,1.3137,1.3295,1.3122,1.3012,1.3208,1.3173,1.3085,1.3052,1.3261,1.3429,1.3345,1.3379,1.3346,1.3158,1.3192,1.3209,1.314,1.3227,1.3312,1.3395,1.3461,1.3493,1.3492,1.3556,1.3605,1.3639,1.3634,1.3678,1.3743,1.3047,1.2715,1.2737,1.202,1.2139,1.2975,1.2768,1.3213,1.4078,1.4147,1.4192,1.4235,1.4259,1.4326,1.4403,1.4423,1.4508,1.46,1.4672,1.4728,1.4799,1.4874,1.4901,1.4954,1.4978,1.5031,1.5093,1.5093,1.5054,1.4923,1.4556,1.4256,1.3854,1.2958,1.2304,1.164,1.0729,0.8453,0.6215,0.5154,0.4691,0.4072,0.2787,0.1551,0.0931,0.1669,0.1845,0.1378,-0.0101,-0.0336,-0.0403,-0.0538,-0.1341,-0.2145,-0.2878,-0.3109,-0.3307,-0.3532,-0.3532,-0.3532,-0.3532,-0.3858,-0.435,-0.503,-0.5129,-0.5469,-0.6132,-0.6418,-0.6746,-0.7175,-0.7227,-0.717,-0.7089,-0.7441,-0.7698,0.8705,0.0,1.0175,1.259,1.3137,0.0,1.3102,1.3102,1.326,1.3811,1.356,1.3277,1.3413,1.3429,1.3396,1.3261,1.3412,1.356,1.3605,1.362,1.3557,1.3378,1.3462,1.3511,1.3412,1.3508,1.3586,1.3682,1.3743,1.3771,1.3786,1.3842,1.3874,1.3865,1.3874,1.3899,1.3959,1.3374,1.3116,1.319,1.257,1.2706,1.3479,1.4109,1.4433,1.4545,1.4616,1.466,1.4718,1.4729,1.4776,1.4832,1.483,1.4892,1.4944,1.495,1.4997,1.5044,1.5106,1.5136,1.5154,1.5219,1.5266,1.5293,1.5217,1.5074,1.4854,1.4446,1.4199,1.3913,1.3346,1.2942,1.2459,1.1564,0.9651,0.7792,0.6957,0.7047,0.6927,0.571,0.4274,0.3274,0.3274,0.2441,0.1542,0.0805,0.0705,0.0571,0.0235,-0.0704,-0.164,-0.2411,-0.2513,-0.2513,-0.2513,-0.2513,-0.2513,-0.2513,-0.2812,-0.3434,-0.4388,-0.3863,-0.3904,-0.4689,-0.5191,-0.5542,-0.5847,-0.594,-0.6005,-0.5982,-0.652,-0.7075,0.8705,0.0,1.3261,0.0,1.3312,1.3102,0.0,0.0,1.3278,0.0,1.3915,1.375,1.3606,1.3573,1.3559,1.3479,1.3576,1.3671,1.3686,1.3686,1.3686,1.3655,1.3669,1.3682,1.3731,1.3803,1.3891,1.4026,1.4046,1.4083,1.4123,1.4136,1.4149,1.4154,1.4193,1.4232,1.4246,1.4205,1.4251,1.4379,1.4275,1.432,1.4511,1.4654,1.4719,1.4687,1.4748,1.4803,1.4867,1.4873,1.4906,1.496,1.497,1.5002,1.5076,1.5138,1.5164,1.5183,1.526,1.5268,1.5284,1.5351,1.5341,1.5287,1.5221,1.4986,1.4709,1.4529,1.4168,1.3798,1.3589,1.3278,1.2703,1.1445,1.0185,0.9162,0.8784,0.8138,0.7333,0.6368,0.4788,0.3639,0.3639,0.3043,0.2311,0.1573,0.144,0.1341,0.1009,0.0269,-0.0603,-0.164,-0.1742,-0.1742,-0.1742,-0.1742,-0.1742,-0.1742,-0.2045,-0.248,-0.2944,-0.2878,-0.2955,-0.3174,-0.4147,-0.4681,-0.4811,-0.4806,-0.4912,-0.5081,-0.585,-0.646,0.8497,1.0139,1.1335,0.0,1.2273,1.3379,1.3379,0.0,1.3527,1.3998,1.4068,1.3998,1.3809,1.3763,1.3733,1.3622,1.3717,1.3811,1.3811,1.3853,1.3865,1.3821,1.3891,1.3949,1.397,1.4019,1.4101,1.4203,1.4245,1.4307,1.4362,1.4392,1.4404,1.4374,1.4434,1.4458,1.4462,1.4526,1.4622,1.4705,1.4699,1.4748,1.4822,1.4871,1.4871,1.4821,1.4923,1.5015,1.5071,1.5062,1.5089,1.5101,1.5112,1.5152,1.5217,1.5245,1.5287,1.5323,1.5347,1.5351,1.5346,1.5344,1.53,1.5231,1.5074,1.4905,1.4701,1.4408,1.421,1.4005,1.3591,1.3051,1.2347,1.1324,1.051,0.984,0.9405,0.8889,0.7956,0.6106,0.5112,0.4543,0.4355,0.3733,0.3006,0.2311,0.2208,0.2178,0.2011,0.1174,0.0269,-0.0603,-0.0704,-0.0704,-0.0704,-0.0704,-0.0771,-0.0973,-0.1108,-0.1274,-0.1473,-0.1876,-0.2208,-0.2444,-0.321,-0.3657,-0.3827,-0.3968,-0.4151,-0.4426,-0.5309,-0.5935,0.8188,0.9358,0.9394,0.9303,1.0925,1.2561,0.0,0.0,1.3848,0.0,1.419,1.4177,1.4034,1.3976,1.3915,1.3821,1.3883,1.3947,1.3947,1.398,1.4019,1.3991,1.4083,1.4162,1.4203,1.4245,1.4307,1.4381,1.4446,1.4504,1.4567,1.4614,1.4635,1.4587,1.4627,1.4656,1.4656,1.4726,1.4803,1.4859,1.4875,1.4906,1.4984,1.5035,1.5037,1.5009,1.5095,1.5152,1.5226,1.5226,1.5231,1.5221,1.5225,1.5257,1.5307,1.5321,1.5362,1.539,1.5384,1.5366,1.5379,1.5326,1.5241,1.5145,1.4973,1.4837,1.469,1.4407,1.4252,1.4023,1.3193,1.2565,1.1949,1.1339,1.0729,1.0148,0.9617,0.9162,0.8202,0.5983,0.5467,0.5309,0.4998,0.4388,0.3737,0.3043,0.2878,0.2812,0.2812,0.1978,0.1098,0.0435,0.0313,0.0269,0.0269,0.0202,-0.0067,-0.0471,-0.0504,-0.0504,-0.0504,-0.1104,-0.1576,-0.1857,-0.2336,-0.2751,-0.3076,-0.3303,-0.3586,-0.3971,-0.486,-0.5471,0.7795,0.9491,0.95,0.9491,0.9609,0.0,0.0,0.0,0.0,0.0,1.4293,1.4281,1.4291,1.4168,1.41,1.4086,1.4086,1.41,1.41,1.4087,1.4123,1.4175,1.4252,1.4338,1.4464,1.4474,1.4519,1.4578,1.4651,1.4714,1.4775,1.4794,1.4785,1.4775,1.4784,1.4784,1.4784,1.4911,1.4979,1.5,1.5059,1.5114,1.5183,1.5192,1.5226,1.5278,1.5217,1.5236,1.5284,1.5283,1.5299,1.5295,1.5284,1.5292,1.5316,1.5369,1.5408,1.5391,1.5334,1.5316,1.5311,1.5303,1.5211,1.5088,1.5011,1.4812,1.4627,1.4654,1.4306,1.3622,1.224,1.1854,1.1762,1.1534,1.0873,1.0148,0.9617,0.8834,0.786,0.6521,0.5998,0.5655,0.5347,0.4966,0.4485,0.377,0.3372,0.3179,0.3179,0.2513,0.1852,0.139,0.1173,0.1043,0.1043,0.0706,0.0202,-0.0471,-0.0504,-0.0504,-0.0504,-0.0778,-0.1053,-0.1249,-0.1595,-0.2076,-0.2712,-0.2805,-0.3166,-0.3838,-0.4582,-0.5119,0.2784,0.4903,0.0,0.9002,0.9559,0.9609,0.9517,1.0394,1.1616,1.2984,1.3315,1.3556,1.4235,1.4281,1.4221,1.4216,1.4229,1.4229,1.4229,1.4257,1.4332,1.4387,1.4481,1.4589,1.4624,1.4637,1.4629,1.4658,1.4737,1.4785,1.4859,1.4867,1.4875,1.4936,1.4936,1.4952,1.4984,1.5042,1.5085,1.514,1.5139,1.521,1.5255,1.5256,1.5283,1.5297,1.532,1.5316,1.531,1.5342,1.536,1.5358,1.5356,1.5369,1.5351,1.533,1.534,1.5333,1.5256,1.5231,1.5231,1.5187,1.5108,1.4996,1.4803,1.4698,1.4632,1.4488,1.3754,1.2869,1.2221,1.1927,1.1718,1.1339,1.0897,1.0474,1.0097,0.9366,0.8393,0.7136,0.6643,0.6407,0.6284,0.5624,0.4966,0.4485,0.4123,0.4127,0.4738,0.3774,0.2882,0.2404,0.2289,0.2244,0.2244,0.1549,0.0735,-0.0123,-0.0164,-0.0327,-0.0613,-0.0718,-0.0816,-0.0859,-0.1135,-0.1502,-0.2041,-0.2115,-0.2378,-0.2861,-0.3741,-0.4283,0.0,0.1561,0.0,0.0,0.0,0.8365,0.9377,0.0,1.0185,1.2316,1.2822,1.3183,1.4261,1.4453,1.4423,1.4405,1.4405,1.4405,1.4405,1.4458,1.4526,1.4589,1.4703,1.4784,1.4794,1.4794,1.4794,1.4794,1.484,0.0,1.4928,1.4952,1.4992,1.5071,1.5066,1.5087,1.5133,1.5127,1.5177,1.5234,1.5236,1.5276,1.5333,1.5338,1.5334,1.5342,1.5373,1.5369,1.5331,1.5381,1.5394,1.5404,1.5391,1.5383,1.5362,1.5287,1.524,1.5226,1.519,1.5143,1.5139,1.5082,1.4977,1.4803,1.4478,1.4314,1.4232,1.405,1.3378,1.2636,1.2359,1.2054,1.1703,1.1407,1.1155,1.0849,1.0399,0.9736,0.8905,0.7753,0.7205,0.6924,0.6924,0.6307,0.5624,0.5062,0.5104,0.5441,0.6054,0.5058,0.4016,0.3223,0.3135,0.3135,0.3135,0.2506,0.1791,0.1031,0.0986,0.0762,0.0314,0.009,-0.009,-0.0224,-0.0509,-0.0863,-0.1274,-0.1512,-0.1875,-0.2323,-0.3147,-0.373,0.0,0.0,0.0,0.0,0.0,0.0,0.8978,0.0,1.0257,1.2399,1.2917,1.3307,1.4392,1.4654,1.4701,1.4622,1.4611,1.46,1.46,1.4661,1.4724,1.4785,1.486,1.4923,1.4998,1.4998,1.4998,1.4998,1.4995,1.4992,1.5008,1.5078,1.5133,1.5195,1.521,1.5206,1.5206,1.5206,1.5246,1.5306,1.5297,1.5348,1.5405,1.5401,1.5406,1.5408,1.541,1.5406,1.5392,1.5403,1.5409,1.539,1.5381,1.5351,1.5299,1.5221,1.5141,1.5108,1.5114,1.5066,1.5003,1.4992,1.4812,1.4512,1.404,1.3674,1.3396,1.3379,1.3243,1.2993,1.2577,1.2138,1.1805,1.1805,1.1652,1.1285,1.0474,0.9866,0.9244,0.8386,0.7676,0.7225,0.7225,0.7005,0.6484,0.5547,0.6337,0.7063,0.7063,0.6264,0.5198,0.3799,0.367,0.367,0.367,0.367,0.349,0.3001,0.2957,0.2734,0.2243,0.1748,0.1208,0.076,0.0268,-0.009,-0.0359,-0.0987,-0.1645,-0.2285,-0.2908,-0.3444,0.2891,0.0,0.0,0.0,0.0,0.0,0.0,0.0,0.0,1.1119,1.2044,1.2952,1.4466,1.4804,1.485,1.4877,1.4776,1.4678,1.4678,1.4727,1.4804,1.4868,1.4921,1.499,1.4992,1.4992,1.4992,0.0,1.5042,1.5064,1.5073,1.5133,1.519,1.526,1.5265,1.5263,1.5272,1.5272,1.5299,1.5363,1.5379,1.5377,1.5408,1.539,1.5391,1.541,1.5408,1.5408,1.5408,1.5408,1.5364,1.5329,1.5271,1.5245,1.5226,1.5152,1.5087,1.5102,1.5681,1.5472,1.4914,1.4804,1.4603,1.4325,1.4002,1.3674,1.3363,1.3225,1.3137,1.2922,1.2185,1.1891,1.1805,1.1805,1.1652,1.1285,1.0474,1.0021,0.9487,0.8414,0.8033,0.7918,0.7918,0.7471,0.7282,0.7887,0.823,0.8439,0.8439,0.7391,0.6264,0.5236,0.5111,0.5111,0.5111,0.5111,0.5067,0.4932,0.3972,0.3357,0.3223,0.2732,0.2328,0.2012,0.1477,0.1075,0.0762,-0.035,-0.1184,-0.174,-0.2463,-0.2941,0.0,0.0,0.0,0.0,0.0,0.0,0.6418,0.7246,0.0,0.0,1.1227,1.2248,1.3591,1.386,1.3921,1.3997,1.4171,1.4434,1.4784,1.4859,1.4894,1.4936,1.4995,1.5046,1.5038,1.5038,1.5038,1.5038,1.5085,1.5114,1.517,1.5226,1.5252,1.5307,1.5322,1.5336,1.5349,1.5335,1.5353,1.5397,1.5406,1.539,1.5407,1.5405,1.5402,1.5397,1.5374,1.5366,1.5353,1.5324,1.5313,1.53,1.5229,1.5187,1.5158,1.5085,1.5027,1.5074,1.5882,1.5565,1.4794,1.4685,1.4469,1.4311,1.4578,1.4878,1.5101,1.4981,1.4742,1.4405,1.367,1.3466,1.3466,1.3466,1.3266,1.283,1.196,1.1648,1.0953,0.8951,0.8471,0.8571,0.9233,0.8988,0.8879,0.9252,0.9145,0.9016,0.9016,0.8152,0.7238,0.6355,0.6105,0.5895,0.5723,0.568,0.568,0.568,0.4806,0.4236,0.4012,0.3615,0.3214,0.2901,0.2408,0.183,0.1206,0.0179,-0.0701,-0.1412,-0.2033,-0.2524,0.5574,0.78,0.0,0.0,0.0,0.0,0.6594,0.6993,0.7806,0.0,0.0,1.1237,1.2205,1.2376,1.2426,1.2597,1.322,1.3965,1.4756,1.4946,1.5,1.5015,1.5064,1.5105,1.5099,1.5106,1.5106,1.5106,1.5127,1.5174,1.5293,1.5303,1.531,1.5302,1.537,1.5399,1.5409,1.5395,1.5403,1.5409,1.5408,1.54,1.5391,1.5405,1.5397,1.5407,1.5324,1.5307,1.5276,1.5217,1.5231,1.5278,1.5226,1.5152,1.5078,1.5015,1.496,1.5035,1.5904,1.562,1.4844,1.4947,1.4709,1.4512,1.5365,1.6509,1.7515,1.7515,1.7075,1.649,1.5926,1.5799,1.5799,1.5799,1.5536,1.5025,1.4072,1.3821,1.2949,1.0106,0.9289,0.946,1.0677,1.0891,1.0651,0.995,0.9426,0.9096,0.9016,0.87,0.816,0.7314,0.6823,0.6325,0.5766,0.568,0.568,0.568,0.5463,0.5154,0.4748,0.4355,0.3957,0.3514,0.3064,0.2355,0.1337,0.0583,-0.0234,-0.1099,-0.1457,-0.2012,0.9179,0.9679,0.98,0.8222,0.0,0.0,0.6439,0.6482,0.6831,0.0,0.8701,0.9755,1.1321,1.1614,1.1849,1.2555,1.281,1.3188,1.3927,1.4632,1.5085,1.508,1.5087,1.512,1.5178,1.5178,1.5184,1.5171,1.522,1.5278,1.5303,1.534,1.5379,1.5383,1.5394,1.5402,1.5408,1.5409,1.539,1.5402,1.5394,1.5403,1.5409,1.5404,1.5396,1.5404,1.5333,1.5265,1.5217,1.5204,1.5212,1.5212,1.514,1.5085,1.5015,1.5003,1.4955,1.5103,1.6494,1.6369,1.5776,1.6935,1.6432,1.5315,1.5245,1.6285,1.7515,1.7515,1.7075,1.649,1.5926,1.5799,1.5799,1.5799,1.5536,1.5086,1.4365,1.3974,1.3511,1.2568,1.2116,1.1688,1.1008,1.0891,1.0853,1.069,1.0332,0.9804,0.9096,0.8935,0.8814,0.8643,0.7912,0.6956,0.5809,0.568,0.568,0.568,0.5636,0.5593,0.5501,0.484,0.4399,0.414,0.3476,0.281,0.2144,0.1063,0.0379,0.0048,-0.01,-0.0306,1.1707,1.1272,1.0775,0.964,0.0,0.0,0.0,0.7341,0.7719,0.8164,0.8908,0.9771,1.0636,0.0,1.0949,1.1378,1.1822,1.2235,1.2599,1.3712,1.4666,1.5101,1.5151,1.5163,1.519,1.524,1.525,1.5255,1.5284,1.53,1.5346,1.5373,1.5403,1.5405,1.5409,1.5391,1.5409,1.5406,1.5398,1.5401,1.5368,1.5354,1.5342,1.5352,1.5357,1.5342,1.5278,1.5222,1.5193,1.5159,1.5127,1.5094,1.5071,1.5,1.4952,1.4955,1.4895,1.4954,1.6119,1.5873,1.5301,1.6773,1.6348,1.534,1.5796,1.6669,1.7515,1.7515,1.7075,1.649,1.5926,1.5799,1.5799,1.5799,1.5683,1.5418,1.4902,1.4397,1.3874,1.3301,1.306,1.2627,1.1686,1.1325,1.1109,1.093,1.0728,1.0293,0.9466,0.9145,0.8935,0.8741,0.8085,0.7251,0.6153,0.6067,0.6067,0.6067,0.5809,0.568,0.568,0.5366,0.5019,0.4801,0.414,0.352,0.299,0.2145,0.1586,0.1287,0.1215,0.1238,0.0,0.0,0.0,0.0,0.0,0.8957,0.0,0.0,0.0,0.8665,0.0,0.0,0.0,0.0,0.0,0.0,0.0,0.0,0.0,1.2398,0.0,1.4594,1.4714,1.4787,1.4945,1.5035,1.4993,1.4827,1.4968,1.5085,1.516,1.531,1.5391,1.539,1.5407,1.5403,1.5398,1.5407,1.5392,1.5377,1.5333,1.5295,1.5307,1.5291,1.5293,1.5275,1.5215,1.5195,1.5172,1.5112,1.5042,1.4992,1.4992,1.496,1.4902,1.4895,1.4804,1.4771,1.551,1.5191,1.4728,1.6207,1.6129,1.566,1.6649,1.7205,1.7515,1.7515,1.71,1.6528,1.5955,1.5799,1.5799,1.5799,1.5799,1.5712,1.5373,1.4777,1.4092,1.3335,1.3198,1.3012,1.2401,1.1979,1.156,1.0995,1.0891,1.0661,0.999,0.9466,0.8903,0.8332,0.7919,0.7419,0.6708,0.6666,0.6666,0.6666,0.6196,0.5852,0.5766,0.5723,0.5614,0.5438,0.486,0.4296,0.383,0.3342,0.2825,0.2217,0.2233,0.2281,0.0,0.0,0.0,0.0,1.0742,0.0,0.0,0.0,0.7838,0.7838,0.0,0.0,0.0,0.0,0.0,0.0,0.0,0.0,1.0334,1.0585,1.1269,1.2796,1.2986,1.3288,1.4053,1.4202,1.3926,1.3138,1.3796,1.4241,1.4255,1.498,1.5407,1.5404,1.5397,1.5407,1.5394,1.5404,1.5371,1.5313,1.5303,1.5306,1.5302,1.5299,1.5274,1.521,1.5195,1.5165,1.5105,1.5049,1.4976,1.4919,1.4971,1.4955,1.4895,1.4832,1.4736,1.4714,1.5392,1.5442,1.5425,1.6851,1.7379,1.7478,1.7496,1.7492,1.7515,1.7515,1.7248,1.6789,1.6011,1.5799,1.5799,1.5799,1.5799,1.5712,1.5373,1.4777,1.4092,1.3335,1.3198,1.3163,1.3094,1.278,1.2197,1.1071,1.0891,1.0891,1.0766,1.0107,0.9145,0.7919,0.7719,0.7677,0.7545,0.7545,0.7545,0.7545,0.6963,0.641,0.5981,0.5809,0.5777,0.593,0.5337,0.4862,0.4593,0.4164,0.3366,0.2217,0.2248,0.2287,0.0,0.0,0.0,0.0,0.0,0.0,0.9945,0.0,0.9345,0.0,0.0,0.0,0.0,0.0,0.0,0.0,0.9418,0.0,0.0,0.0,1.0912,0.0,0.0,0.0,1.3264,1.3352,1.324,1.2894,1.3156,1.3573,1.4062,1.4934,1.5392,1.5403,1.5368,1.5335,1.5342,1.5349,1.533,1.5295,1.5255,1.5231,1.524,1.5193,1.517,1.5146,1.5133,1.5092,1.508,1.5524,1.5664,1.564,1.6092,1.5668,1.4776,1.4707,1.4603,1.4506,1.4719,1.4671,1.4757,1.601,1.6976,1.7658,1.7606,1.7552,1.7515,1.7515,1.7403,1.7075,1.6067,1.5799,1.5799,1.5799,1.5799,1.5712,1.5373,1.4777,1.4092,1.3335,1.3198,1.3198,1.3198,1.292,1.2269,1.1071,1.0891,1.0891,1.0891,1.0409,0.9655,0.857,0.8447,0.8447,0.8447,0.825,0.8002,0.7712,0.716,0.6738,0.6435,0.6419,0.6416,0.6287,0.6054,0.5644,0.514,0.4902,0.4338,0.3589,0.3018,0.2733,1.5457,0.0,0.0,0.0,0.0,0.0,0.0,0.0,0.0,0.0,0.0,0.0,0.0,0.0,0.0,0.0,0.0,0.0,0.0,0.0,0.0,0.0,0.0,0.0,0.0,1.2376,1.2437,1.2203,1.2578,1.3084,1.3705,1.4802,1.539,1.5374,1.5329,1.5292,1.5307,1.5519,1.5613,1.5608,1.5557,1.5522,1.5511,1.5223,1.5082,1.5073,1.5071,1.5175,1.5375,1.5929,1.6253,1.6457,1.6956,1.6373,1.5273,1.5205,1.5099,1.4979,1.4855,1.4802,1.4943,1.5718,1.6699,1.7559,1.7576,1.7545,1.7515,1.7515,1.7515,1.724,1.6095,1.5799,1.5799,1.5799,1.5741,1.5595,1.5343,1.4777,1.4092,1.3335,1.3198,1.3198,1.3198,1.292,1.2269,1.1071,1.0891,1.0891,1.0891,1.0651,1.0166,0.9457,0.9377,0.9377,0.9377,0.8984,0.8543,0.8011,0.7666,0.7355,0.705,0.7167,0.7123,0.6865,0.6773,0.6399,0.5801,0.5604,0.5301,0.4891,0.3884,0.3362,0.0,0.0,0.0,1.3237,0.0,0.0,0.0,0.0,1.0309,0.0,0.0,0.0,0.0,0.0,0.0,0.0,0.0,0.0,0.0,0.0,0.0,0.0,0.0,0.0,0.0,1.115,1.1288,0.0,1.1874,1.2805,1.2849,1.4469,1.5368,1.531,1.5299,1.5302,1.5302,1.6062,1.6436,1.6349,1.6356,1.6368,1.6338,1.5482,1.5052,1.4989,1.5008,1.5451,1.6167,1.613,1.6522,1.7142,1.7053,1.6875,1.6721,1.667,1.6599,1.6514,1.6373,1.6571,1.6895,1.6723,1.7043,1.7498,1.7498,1.7515,1.7515,1.7515,1.7515,1.724,1.6095,1.5799,1.5799,1.5799,1.5536,1.5313,1.5313,1.4777,1.4092,1.3335,1.3198,1.3198,1.3198,1.292,1.2269,1.1071,1.0891,1.0891,1.0891,1.0891,1.0728,1.0283,1.0244,1.0244,1.0244,0.9911,0.9383,0.8712,0.8655,0.8461,0.7977,0.7848,0.7753,0.7734,0.7374,0.6976,0.6568,0.6298,0.6027,0.5751,0.4718,0.4072,0.0,0.0,1.5115,1.3945,0.0,0.0,0.0,0.0,0.0,0.0,0.0,0.0,0.0,0.0,0.0,0.0,0.0,0.0,0.0,0.0,0.0,0.0,0.0,0.0,0.0,0.0,0.0,0.0,1.1315,0.0,1.2768,1.4416,1.5575,1.6072,1.6086,1.6347,1.6881,1.7105,1.7224,1.7183,1.7145,1.714,1.7126,1.6825,1.6685,1.6648,1.6648,1.6772,1.7036,1.7452,1.7725,1.7905,1.8294,1.8364,1.8129,1.7026,1.6586,1.6512,1.6319,1.657,1.6907,1.6695,1.702,1.7515,1.7515,1.7515,1.7515,1.7515,1.7216,1.6675,1.5726,1.5462,1.5462,1.5462,1.5373,1.5313,1.5313,1.4777,1.4092,1.3335,1.3198,1.3198,1.3198,1.292,1.2269,1.1071,1.0891,1.0891,1.0891,1.0891,1.0853,1.0718,1.0448,1.0283,1.0283,0.9655,0.9132,0.8905,0.9163,0.906,0.8511,0.8483,0.8447,0.8257,0.8178,0.784,0.7343,0.7133,0.6918,0.6647,0.5977,0.5139,1.6855,1.6523,0.0,1.486,1.4568,0.0,1.2402,0.0,0.0,0.0,0.0,0.0,0.0,0.0,0.0,0.0,0.0,0.0,0.0,0.9901,0.0,0.0,0.0,0.0,0.0,0.0,1.0306,1.0301,1.1047,0.0,0.0,1.4388,1.5671,1.6472,1.6772,1.7156,1.7665,1.7914,1.8035,1.8028,1.7983,1.7956,1.7919,1.7606,1.7463,1.7433,1.7433,1.7543,1.7787,1.8161,1.8419,1.8603,1.8984,1.9053,1.8806,1.7781,1.7389,1.729,1.7082,1.7141,1.7285,1.7045,1.7198,1.7491,1.7362,1.7265,1.7125,1.6949,1.6649,1.6219,1.5507,1.5313,1.5313,1.5313,1.5313,1.5313,1.5313,1.4963,1.4447,1.3728,1.3425,1.3301,1.3198,1.2943,1.2341,1.1109,1.0891,1.0891,1.0891,1.0891,1.0891,1.0891,1.069,1.0448,1.0322,1.0178,1.0071,0.9986,0.9992,0.9743,0.919,0.9211,0.9062,0.8765,0.875,0.8468,0.7889,0.7729,0.7515,0.7246,0.6761,0.605]}]]